[[{"header":{"parameterUnit":"m.s-1","parameterCategory":1,"la1":30.6,"la2":29.2853,"lo1":-89.7004,"lo2":-87.6739,"dy":0.0162,"dx":0.0183,"nx":112,"ny":82,"refTime":"2024-09-13T00:00:00:Z","depth":0,"parameterNumber":2,"parameterNumberName":"U-component_of_WINDS"},"data":[0.0,0.0,0.0,0.0,0.0,0.0,0.0,0.0,0.0,0.0,0.0,0.0,0.0,0.0,0.0,0.0,0.0,0.0,0.0,0.0,0.0,0.0,0.0,0.0,0.0,0.0,0.0,0.0,0.0,0.0,0.0,0.0,0.0,0.0,0.0,0.0,0.0,0.0,0.0,0.0,0.0,0.0,0.0,0.0,0.0,0.0,0.0,0.0,0.0,0.0,0.0,0.0,0.0,0.0,0.0,0.0,0.0,0.0,0.0,0.0,0.0,0.0,0.0,0.0,0.0,0.0,0.0,0.0,0.0,0.0,0.0,0.0,0.0,0.0,0.0,0.0,0.0,0.0,0.0,0.0,0.0,0.0,0.0,0.0,0.0,0.0,0.0,0.0,0.0,0.0,0.0,0.3373,0.3902,0.4231,0.4231,0.4121,0.3697,0.2992,0.0,0.0,0.0,0.0,0.0,0.0,0.0,0.0,0.0,0.0,0.0,0.0,0.0,0.0,0.0,0.0,0.0,0.0,0.0,0.0,0.0,0.0,0.0,0.0,0.0,0.0,0.0,0.0,0.0,0.0,0.0,0.0,0.0,0.0,0.0,0.0,0.0,0.0,0.0,0.0,0.0,0.0,0.0,0.0,0.0,0.0,0.0,0.0,0.0,0.0,0.0,0.0,0.0,0.0,0.0,0.0,0.0,0.0,0.0,0.0,0.0,0.0,0.0,0.0,0.0,0.0,0.0,0.0,0.0,0.0,0.0,0.0,0.0,0.0,0.0,0.0,0.0,0.0,0.0,0.0,0.0,0.0,0.0,0.0,0.0,0.0,0.0,0.0,0.0,0.0,0.0,0.0,0.0,0.0,0.0,0.0,0.0,0.0,0.0,0.0,0.0,0.0,0.0,0.0,0.3262,0.3812,0.4226,0.4429,0.4429,0.4178,0.3784,0.3249,0.0,0.0,0.0,0.0,0.0,0.0,0.0,0.0,0.0,0.0,0.0,0.0,0.0,0.0,0.0,0.0,0.0,0.0,0.0,0.0,0.0,0.0,0.0,0.0,0.0,0.0,0.0,0.0,0.0,0.0,0.0,0.0,0.0,0.0,0.0,0.0,0.0,0.0,0.0,0.0,0.0,0.0,0.0,0.0,0.0,0.0,0.0,0.0,0.0,0.0,0.0,0.0,0.0,0.0,0.0,0.0,0.0,0.0,0.0,0.0,0.0,0.0,0.0,0.0,0.0,0.0,0.0,0.0,0.0,0.0,0.0,0.0,0.0,0.0,0.0,0.0,0.0,0.0,0.0,0.0,0.0,0.0,0.0,0.0,0.0,0.0,0.0,0.0,0.0,0.0,0.0,0.0,0.0,0.0,0.0,0.0,0.0,0.0,0.0,0.0,0.0,0.0,0.0,0.3137,0.3537,0.3975,0.4284,0.4429,0.4355,0.4144,0.3761,0.3215,0.2557,0.0,0.0,0.0,0.0,0.0,0.0,0.0,0.0,0.0,0.0,0.0,0.0,0.0,0.0,0.0,0.0,0.0,0.0,0.0,0.0,0.0,0.0,0.0,0.0,0.0,0.0,0.0,0.0,0.0,0.0,0.0,0.0,0.0,0.0,0.0,0.0,0.0,0.0,0.0,0.0,0.0,0.0,0.0,0.0,0.0,0.0,0.0,0.0,0.0,0.0,0.0,0.0,0.0,0.0,0.0,0.0,0.0,0.0,0.0,0.0,0.0,0.0,0.0,0.0,0.0,0.0,0.0,0.0,0.0,0.0,0.0,0.0,0.0,0.0,0.0,0.0,0.0,0.0,0.0,0.0,0.0,0.0,0.0,0.0,0.0,0.0,0.0,0.0,0.0,0.0,0.0,0.0,0.0,0.0,0.0,0.0,0.0,0.0,0.0,0.0,0.0,0.0,0.3449,0.3771,0.3995,0.4284,0.4402,0.4207,0.4023,0.3695,0.3121,0.2564,0.0,0.0,0.0,0.0,0.0,0.0,0.0,0.0,0.0,0.0,0.0,0.0,0.0,0.0,0.0,0.0,0.0,0.0,0.0,0.0,0.0,0.0,0.0,0.0,0.0,0.0,0.0,0.0,0.0,0.0,0.0,0.0,0.0,0.0,0.0,0.0,0.0,0.0,0.0,0.0,0.0,0.0,0.0,0.0,0.0,0.0,0.0,0.0,0.0,0.0,0.0,0.0,0.0,0.0,0.0,0.0,0.0,0.0,0.0,0.0,0.0,0.0,0.0,0.0,0.0,0.0,0.0,0.0,0.0,0.0,0.0,0.0,0.0,0.0,0.0,0.0,0.0,0.0,0.0,0.0,0.0,0.0,0.0,0.0,0.0,0.0,0.0,0.0,0.0,0.0,0.0,0.0,0.0,0.0,0.0,0.0,0.0,0.0,0.0,0.0,0.0,0.0,0.3629,0.3995,0.4019,0.4284,0.4402,0.4207,0.3978,0.3628,0.3111,0.2414,0.0,0.0,0.0,0.0,0.0,0.0,0.0,0.0,0.0,0.0,0.0,0.0,0.0,0.0,0.0,0.0,0.0,0.0,0.0,0.0,0.0,0.0,0.0,0.0,0.0,0.0,0.0,0.0,0.0,0.0,0.0,0.0,0.0,0.0,0.0,0.0,0.0,0.0,0.0,0.0,0.0,0.0,0.0,0.0,0.0,0.0,0.0,0.0,0.0,0.0,0.0,0.0,0.0,0.0,0.0,0.0,0.0,0.0,0.0,0.0,0.0,0.0,0.0,0.0,0.0,0.0,0.0,0.0,0.0,0.0,0.0,0.0,0.0,0.0,0.0,0.0,0.0,0.0,0.0,0.0,0.0,0.0,0.0,0.0,0.0,0.0,0.0,0.0,0.0,0.0,0.0,0.0,0.0,0.0,0.0,0.0,0.0,0.0,0.0,0.0,0.0,0.0,0.3565,0.3914,0.0,0.4284,0.4365,0.4073,0.3999,0.3635,0.2878,0.0,0.0,0.0,0.0,0.0,0.0,0.0,0.0,0.0,0.0,0.0,0.0,0.0,0.0,0.0,0.0,0.0,0.0,0.0,0.0,0.0,0.0,0.0,0.0,0.0,0.0,0.0,0.0,0.0,0.0,0.0,0.0,0.0,0.0,0.0,0.0,0.0,0.0,0.0,0.0,0.0,0.0,0.0,0.0,0.0,0.0,0.0,0.0,0.0,0.0,0.0,0.0,0.0,0.0,0.0,0.0,0.0,0.0,0.0,0.0,0.0,0.0,0.0,0.0,0.0,0.0,0.0,0.0,0.0,0.0,0.0,0.0,0.0,0.0,0.0,0.0,0.0,0.0,0.0,0.0,0.0,0.0,0.0,0.0,0.0,0.0,0.0,0.0,0.0,0.0,0.0,0.0,0.0,0.0,0.0,0.0,0.0,0.0,0.0,0.0,0.0,0.0,0.3069,0.3558,0.3904,0.0,0.4284,0.4341,0.4046,0.3975,0.3573,0.2769,0.0,0.0,0.0,0.0,0.0,0.0,0.0,0.0,0.0,0.0,0.0,0.0,0.0,0.0,0.0,0.0,0.0,0.0,0.0,0.0,0.0,0.0,0.0,0.0,0.0,0.0,0.0,0.0,0.0,0.0,0.0,0.0,0.0,0.0,0.0,0.0,0.0,0.0,0.0,0.0,0.0,0.0,0.0,0.0,0.0,0.0,0.0,0.0,0.0,0.0,0.0,0.0,0.0,0.0,0.0,0.0,0.0,0.0,0.0,0.0,0.0,0.0,0.0,0.0,0.0,0.0,0.0,0.0,0.0,0.0,0.0,0.0,0.0,0.0,0.0,0.0,0.0,0.0,0.0,0.0,0.0,0.0,0.0,0.0,0.0,0.0,0.0,0.0,0.0,0.0,0.0,0.0,0.0,0.0,0.0,0.0,0.0,0.0,0.0,0.0,0.0,0.0,0.3083,0.3646,0.4019,0.4019,0.4287,0.4345,0.405,0.3883,0.3471,0.0,0.0,0.0,0.0,0.0,0.0,0.0,0.0,0.0,0.0,0.0,0.0,0.0,0.0,0.0,0.0,0.0,0.0,0.0,0.0,0.0,0.0,0.0,0.0,0.0,0.0,0.0,0.0,0.0,0.0,0.0,0.0,0.0,0.0,0.0,0.0,0.0,0.0,0.0,0.0,0.0,0.0,0.0,0.0,0.0,0.0,0.0,0.0,0.0,0.0,0.0,0.0,0.0,0.0,0.0,0.0,0.0,0.0,0.0,0.0,0.0,0.0,0.0,0.0,0.0,0.0,0.0,0.0,0.0,0.0,0.0,0.0,0.0,0.0,0.0,0.0,0.0,0.0,0.0,0.0,0.0,0.0,0.0,0.0,0.0,0.0,0.0,0.0,0.0,0.0,0.0,0.0,0.0,0.0,0.0,0.0,0.0,0.0,0.0,0.0,0.0,0.0,0.0,0.3201,0.3788,0.4122,0.4122,0.4449,0.4497,0.4147,0.4039,0.3622,0.2947,0.0,0.0,0.0,0.0,0.0,0.0,0.0,0.0,0.0,0.0,0.0,0.0,0.0,0.0,0.0,0.0,0.0,0.0,0.0,0.0,0.0,0.0,0.0,0.0,0.0,0.0,0.0,0.0,0.0,0.0,0.0,0.0,0.0,0.0,0.0,0.0,0.0,0.0,0.0,0.0,0.0,0.0,0.0,0.0,0.0,0.0,0.0,0.0,0.0,0.0,0.0,0.0,0.0,0.0,0.0,0.0,0.0,0.0,0.0,0.0,0.0,0.0,0.0,0.0,0.0,0.0,0.0,0.0,0.0,0.0,0.0,0.0,0.0,0.0,0.0,0.0,0.0,0.0,0.0,0.0,0.0,0.0,0.0,0.0,0.0,0.0,0.0,0.0,0.0,0.0,0.0,0.0,0.0,0.0,0.0,0.0,0.0,0.0,0.0,0.0,0.0,0.0,0.3484,0.4009,0.4396,0.4459,0.4698,0.4732,0.4362,0.4158,0.3785,0.3049,0.0,0.0,0.0,0.0,0.0,0.0,0.0,0.0,0.0,0.0,0.0,0.0,0.0,0.0,0.0,0.0,0.0,0.0,0.0,0.0,0.0,0.0,0.0,0.0,0.0,0.0,0.0,0.0,0.0,0.0,0.0,0.0,0.0,0.0,0.0,0.0,0.0,0.0,0.0,0.0,0.0,0.0,0.0,0.0,0.0,0.0,0.0,0.0,0.0,0.0,0.0,0.0,0.0,0.0,0.0,0.0,0.0,0.0,0.0,0.0,0.0,0.0,0.0,0.0,0.0,0.0,0.0,0.0,0.0,0.0,0.0,0.0,0.0,0.0,0.0,0.0,0.0,0.0,0.0,0.0,0.0,0.0,0.0,0.0,0.0,0.0,0.0,0.0,0.0,0.0,0.0,0.0,0.0,0.0,0.0,0.0,0.0,0.0,0.0,0.0,0.0,0.0,0.3866,0.4345,0.4731,0.4948,0.5077,0.4953,0.4587,0.4321,0.3846,0.3086,0.0,0.0,0.0,0.0,0.0,0.0,0.0,0.0,0.0,0.0,0.0,0.0,0.0,0.0,0.0,0.0,0.0,0.0,0.0,0.0,0.0,0.0,0.0,0.0,0.0,0.0,0.0,0.0,0.0,0.0,0.0,0.0,0.0,0.0,0.0,0.0,0.0,0.0,0.0,0.0,0.0,0.0,0.0,0.0,0.0,0.0,0.0,0.0,0.0,0.0,0.0,0.0,0.0,0.0,0.0,0.0,0.0,0.0,0.0,0.0,0.2831,0.0,0.0,0.0,0.0,0.0,0.0,0.0,0.0,0.0,0.0,0.0,0.0,0.0,0.0,0.0,0.0,0.0,0.0,0.0,0.0,0.0,0.0,0.0,0.0,0.0,0.0,0.0,0.0,0.0,0.0,0.0,0.0,0.0,0.0,0.0,0.0,0.0,0.0,0.0,0.0,0.0,0.4122,0.4704,0.5173,0.5367,0.5453,0.5328,0.4848,0.4433,0.3983,0.3441,0.2759,0.0,0.0,0.0,0.0,0.0,0.0,0.0,0.0,0.0,0.0,0.0,0.0,0.0,0.0,0.0,0.0,0.0,0.0,0.0,0.0,0.0,0.0,0.0,0.0,0.0,0.0,0.0,0.0,0.0,0.0,0.0,0.0,0.0,0.0,0.0,0.0,0.0,0.0,0.0,0.0,0.0,0.0,0.0,0.0,0.0,0.0,0.0,0.0,0.0,0.0,0.0,0.0,0.0,0.0,0.0,0.0,0.0,0.0,0.0,0.0,0.3487,0.0,0.0,0.0,0.0,0.0,0.0,0.0,0.0,0.0,0.0,0.0,0.0,0.0,0.0,0.0,0.0,0.0,0.0,0.0,0.0,0.0,0.0,0.0,0.0,0.0,0.0,0.0,0.0,0.0,0.0,0.0,0.0,0.0,0.0,0.0,0.0,0.0,0.0,0.0,0.0,0.4886,0.533,0.5708,0.6024,0.5986,0.5668,0.5117,0.4677,0.4186,0.3532,0.297,0.0,0.0,0.0,0.0,0.0,0.0,0.0,0.0,0.0,0.0,0.0,0.0,0.0,0.0,0.0,0.0,0.0,0.0,0.0,0.0,0.0,0.0,0.0,0.0,0.0,0.0,0.0,0.0,0.0,0.0,0.0,0.0,0.0,0.0,0.0,0.0,0.0,0.0,0.0,0.0,0.0,0.0,0.0,0.0,0.0,0.0,0.0,0.0,0.0,0.0,0.0,0.0,0.0,0.5042,0.5375,0.5651,0.5965,0.6165,0.6218,0.5295,0.4917,0.4859,0.4774,0.0,0.0,0.0,0.0,0.0,0.0,0.0,0.0,0.0,0.0,0.0,0.0,0.0,0.0,0.0,0.0,0.0,0.0,0.0,0.0,0.0,0.0,0.0,0.0,0.7015,0.6778,0.5945,0.0,0.0,0.0,0.0,0.0,0.0,0.0,0.0,0.0,0.0,0.0,0.5747,0.6028,0.6344,0.6714,0.648,0.6046,0.5391,0.4965,0.4397,0.3604,0.3207,0.2582,0.0,0.0,0.0,0.0,0.0,0.0,0.0,0.0,0.0,0.0,0.0,0.0,0.0,0.0,0.0,0.0,0.0,0.0,0.0,0.0,0.0,0.0,0.0,0.0,0.0,0.0,0.0,0.0,0.0,0.0,0.0,0.0,0.1381,0.1581,0.0,0.0,0.0,0.0,0.0,0.0,0.0,0.0,0.0,0.0,0.0,0.0,0.0,0.3162,0.3844,0.4298,0.4987,0.5875,0.6177,0.6686,0.7367,0.7448,0.7694,0.8106,0.7872,0.0,0.5985,0.6027,0.0,0.0,0.0,0.0,0.0,0.0,0.0,0.0,0.0,0.0,0.0,0.0,0.0,0.0,0.0,0.0,0.0,0.0,0.0,0.0,0.0,0.0,0.7352,0.7696,0.7856,0.7869,0.0,0.681,0.6104,0.5963,0.5516,0.0,0.0,0.0,0.0,0.0,0.0,0.0,0.6083,0.6564,0.6892,0.7052,0.681,0.6322,0.5618,0.5124,0.4584,0.3874,0.3383,0.2718,0.1884,0.1491,0.0,0.0,0.0,0.0,0.0,0.0,0.0,0.0,0.0,0.0,0.0,0.0,0.0,0.0,0.0,0.0,0.0,0.0,0.0,0.0,0.0,0.0,0.0,0.0,0.0,0.0,0.0,0.0,0.0,0.1485,0.1827,0.1905,0.2037,0.2018,0.0,0.0,0.0,0.0,0.0,0.0,0.0,0.0,0.0,0.29,0.3333,0.3972,0.4824,0.54,0.6124,0.7093,0.7483,0.7929,0.844,0.8552,0.8733,0.896,0.8952,0.8635,0.8032,0.7455,0.7011,0.6642,0.0,0.0,0.0,0.0,0.6392,0.6557,0.6705,0.6924,0.7031,0.6749,0.0,0.0,0.0,0.0,0.0,0.0,0.0,0.0,0.0,0.0,0.8396,0.87,0.8768,0.8669,0.8457,0.7935,0.736,0.0,0.668,0.6322,0.5775,0.0,0.0,0.0,0.0,0.6497,0.705,0.725,0.739,0.7427,0.6972,0.6376,0.5778,0.5213,0.4591,0.3875,0.3505,0.2889,0.2016,0.1551,0.1026,0.0,0.0,0.0,0.0,0.0,0.0,0.0,0.0,0.0,0.0,0.0,0.0,0.0,0.0,0.0,0.0,0.0,0.0,0.0,0.0,0.0,0.0,0.0,0.0,0.0,0.0,0.0,0.0,0.1827,0.2197,0.2264,0.2453,0.2495,0.0,0.0,0.0,0.0,0.0,0.0,0.2502,0.273,0.3142,0.3718,0.4174,0.4841,0.5789,0.6427,0.7173,0.8175,0.8592,0.8985,0.9364,0.9483,0.9596,0.9662,0.9735,0.9755,0.9564,0.8657,0.8073,0.7719,0.7648,0.7451,0.7257,0.741,0.7538,0.7676,0.7832,0.8004,0.8073,0.7824,0.768,0.7622,0.738,0.0,0.0,0.0,0.0,0.8572,0.9358,0.9456,0.9404,0.9577,0.952,0.9348,0.9078,0.8911,0.8561,0.0,0.7609,0.7327,0.6677,0.0,0.0,0.0,0.0,0.7329,0.7791,0.7809,0.7725,0.7652,0.7079,0.6431,0.5778,0.5285,0.4631,0.3931,0.3607,0.2968,0.1942,0.1631,0.1174,0.0429,0.0,0.0,0.0,0.0,0.0,0.0,0.0,0.0,0.0,0.0,0.0,0.0,0.0,0.0,0.0,0.0,0.0,0.0,0.0,0.0,0.0,0.0,0.0,0.0,0.0,0.0,0.0,0.0,0.0,0.2721,0.2873,0.0,0.0,0.0,0.0,0.283,0.3038,0.3209,0.3337,0.3626,0.4101,0.4714,0.5144,0.5771,0.6648,0.724,0.8012,0.8942,0.9236,0.968,1.0262,1.0262,1.0325,1.0514,1.0514,1.0354,1.0047,0.9389,0.9123,0.907,0.8798,0.8731,0.8724,0.8685,0.8864,0.9097,0.911,0.9303,0.9546,0.919,0.9012,0.8888,0.8874,0.9127,0.0,0.0,0.9969,1.0097,1.0286,1.0322,1.0265,0.9941,0.9992,0.9992,0.9697,0.9741,0.9527,0.0,0.8103,0.7801,0.7661,0.0,0.7633,0.7551,0.7788,0.798,0.8005,0.8092,0.799,0.7574,0.7144,0.6549,0.5677,0.5289,0.4849,0.4239,0.3683,0.2911,0.1751,0.174,0.1358,0.0404,0.0118,0.0,0.0,0.0,0.0,0.0,0.0,0.0,0.0,0.0,0.0,0.0,0.0,0.0,0.0,0.0,0.0,0.0,0.0,0.0,0.0,0.0,0.0,0.0,0.0,0.0,0.0,0.0,0.0,0.3149,0.3452,0.0,0.3538,0.3627,0.3658,0.3553,0.3761,0.396,0.4116,0.4298,0.4683,0.5364,0.5863,0.6586,0.7569,0.8429,0.9207,1.0037,1.0369,1.0751,1.0982,1.0982,1.1049,1.1116,1.1116,1.1056,1.0942,1.067,1.02,0.9512,0.9412,0.9372,0.9372,0.9372,0.9439,0.9526,0.9526,0.9593,0.9666,0.9559,0.9566,0.9646,0.9862,1.014,1.0446,1.0725,1.0979,1.112,1.1287,1.1137,1.0902,1.0614,1.0436,1.0203,0.9778,0.9737,0.965,0.9334,0.9132,0.8938,0.8499,0.8534,0.8534,0.8171,0.8362,0.8488,0.8378,0.8258,0.8068,0.7812,0.6982,0.6218,0.5622,0.5069,0.4519,0.3965,0.3408,0.2808,0.2183,0.1904,0.1481,0.0749,0.0254,-0.0116,0.0,0.0,0.0,0.0,0.0,0.0,0.0,0.0,0.0,0.0,0.0,0.0,0.0,0.0,0.0,0.0,0.0,0.0,0.0,0.0,0.0,0.0,0.0,0.0,0.0,0.0,0.334,0.3527,0.3847,0.4063,0.4058,0.4197,0.4306,0.4242,0.4426,0.4574,0.4786,0.4885,0.5264,0.5902,0.6451,0.7249,0.8292,0.9136,0.991,1.0604,1.0949,1.1155,1.1286,1.1286,1.1354,1.1423,1.1423,1.1423,1.1423,1.1423,1.0969,1.0274,1.0274,1.0274,1.0261,1.016,1.0127,1.0114,1.0013,0.998,0.998,0.998,1.0093,1.0272,1.0569,1.0916,1.1269,1.1561,1.1794,1.1916,1.196,1.1782,1.148,1.1063,1.0819,1.0519,1.008,0.998,0.998,0.998,0.982,0.9559,0.9172,0.9259,0.9259,0.8878,0.8844,0.8844,0.867,0.8318,0.7901,0.7597,0.6712,0.5941,0.5454,0.4849,0.4294,0.3741,0.3183,0.2656,0.2329,0.176,0.1298,0.0926,0.031,-0.008,-0.0255,0.0,0.0,0.0,0.0,0.0,0.0,0.0,0.0,0.0,0.0,0.0,0.0,0.0,0.0,0.0,0.0,0.0,0.0,0.0,0.0,0.0,0.0,0.0,0.2733,0.3063,0.3431,0.3797,0.4068,0.4324,0.4519,0.4616,0.4769,0.4921,0.4938,0.5067,0.5425,0.5442,0.5712,0.6373,0.7027,0.7739,0.8599,0.9384,1.0084,1.0628,1.0761,1.0899,1.1106,1.1106,1.1243,1.1456,1.1456,1.145,1.145,1.145,1.145,1.145,1.143,1.1423,1.1396,1.1109,1.1009,1.0969,1.0752,1.0651,1.0651,1.0651,1.0708,1.0898,1.1087,1.1464,1.1902,1.2212,1.2468,1.2591,1.239,1.2197,1.1949,1.1254,1.1122,1.0996,1.0688,1.0624,1.0624,1.0624,1.01,0.9706,0.9699,0.9699,0.9693,0.9686,0.9326,0.0,0.8788,0.816,0.7467,0.6933,0.6332,0.5727,0.5124,0.4739,0.4239,0.3627,0.3014,0.2514,0.2124,0.1311,0.0858,0.0857,0.0315,-0.0,-0.0,0.0,0.0,0.0,0.0,0.0,0.0,0.0,0.0,0.0,0.0,0.0,0.0,0.0,0.0,0.0,0.0,0.0,0.0,0.0,0.0,0.0,0.0,0.3417,0.3178,0.3632,0.4095,0.4274,0.4515,0.4748,0.4789,0.4925,0.5074,0.523,0.5342,0.5484,0.5671,0.5681,0.5983,0.6552,0.7147,0.7941,0.8901,0.9723,1.0313,1.0748,1.1113,1.1259,1.1332,1.1623,1.1768,1.184,1.1985,1.2058,1.2058,1.2058,1.2058,1.2017,1.159,1.1423,1.1416,1.1336,1.1309,1.1296,1.1216,1.1189,1.1189,1.1189,1.1316,1.1524,1.1791,1.2182,1.2519,1.2922,1.3118,1.3194,1.2741,1.2424,1.2108,1.1423,1.1059,1.0807,1.0624,1.0624,1.0624,1.0624,1.049,1.0247,1.0033,1.0,0.9927,0.9713,0.944,0.0,0.8577,0.7806,0.7036,0.646,0.5837,0.5285,0.4739,0.4239,0.3852,0.3466,0.2685,0.2104,0.1894,0.1008,0.0466,0.0252,0.0095,-0.0,0.0,0.0,0.0,0.0,0.0,0.0,0.0,0.0,0.0,0.0,0.0,0.0,0.0,0.0,0.0,0.0,0.0,0.0,0.0,0.0,0.0,0.0,0.3887,0.4073,0.4039,0.4234,0.4458,0.464,0.4863,0.5033,0.5098,0.5237,0.5386,0.5535,0.563,0.5742,0.5888,0.5967,0.6257,0.6723,0.7405,0.8174,0.8986,0.9678,1.0269,1.0678,1.0877,1.1129,1.128,1.1614,1.1855,1.2003,1.2224,1.2305,1.2305,1.2305,1.2305,0.0,0.0,0.0,0.0,0.0,1.153,1.1423,1.1423,1.1423,1.1423,1.1423,1.1491,1.1635,1.1908,1.2173,1.2444,1.2788,1.299,1.3012,1.2681,1.2439,1.2094,1.1447,1.112,1.0894,1.0651,1.0624,1.0624,1.0624,1.0624,0.0,1.0327,1.0301,1.0247,1.0087,0.9708,0.9269,0.8768,0.7725,0.6813,0.6202,0.561,0.5011,0.4519,0.4073,0.0,0.0,0.0,0.1764,0.1226,0.0586,0.0,0.0,0.0,0.0,0.0,0.0,0.0,0.0,-0.0256,-0.0564,0.0,0.0,0.0,0.0,0.0,0.0,0.0,0.0,0.0,0.0,0.0,0.0,0.0,0.0,0.0,0.0,0.4695,0.4851,0.5006,0.4791,0.4636,0.4911,0.5084,0.5237,0.5372,0.5525,0.5674,0.5817,0.5827,0.5895,0.6047,0.0,0.0,0.0,0.0,0.8385,0.8979,0.9523,1.0015,1.0384,1.0502,1.0712,1.1091,1.1386,1.1727,1.2107,1.233,1.2385,1.2351,1.2351,1.2331,1.2305,1.2305,1.2305,1.2271,1.2011,1.175,1.1523,1.1523,0.0,0.0,1.1523,1.1523,1.1523,1.173,1.1868,1.2074,1.2348,1.2477,1.247,1.2434,1.2298,1.2016,1.1441,1.1206,1.1111,1.0725,1.0645,1.0624,1.0624,1.0624,1.0624,1.0624,1.0624,1.0568,1.0588,0.9906,0.9359,0.9124,0.7855,0.6697,0.6081,0.0,0.0,0.4519,0.4018,0.3519,0.2961,0.2293,0.1491,0.0429,0.0161,-0.0,-0.0,-0.0,-0.0,-0.0,-0.0,-0.0,-0.0,-0.0,-0.0242,0.0,0.0,0.0,0.0,0.0,0.0,0.0,0.0,0.0,0.0,0.0,0.0,0.0,0.0,0.0,0.5049,0.5087,0.5182,0.5278,0.5147,0.5023,0.5084,0.5335,0.5511,0.5542,0.5677,0.5823,0.5973,0.5986,0.6054,0.6207,0.644,0.6666,0.7058,0.7545,0.8112,0.8702,0.9185,0.9533,0.9745,0.0,0.0,1.0964,1.1708,1.2242,1.2484,1.2876,1.2893,1.2735,1.2735,1.2518,1.2305,1.2305,1.2305,1.2291,1.2238,1.2184,1.2131,1.2131,1.2131,1.2131,1.2131,1.2131,1.2131,1.2356,1.2428,0.0,1.2718,1.279,1.2734,1.248,1.2277,1.213,1.1683,1.1296,1.1041,1.0922,1.0728,1.0624,1.0624,1.0624,1.0624,1.0624,1.0624,1.0561,1.0371,0.9869,0.9247,0.8494,0.7301,0.6267,0.5591,0.5186,0.4773,0.4311,0.386,0.3413,0.2905,0.1959,0.1118,0.0444,0.0167,-0.0,-0.0,-0.0,-0.0,-0.0,-0.0,-0.0,-0.0,-0.0,-0.0053,0.0,0.0,0.0,0.0,0.0,0.0,0.0,0.0,0.0,0.0,0.0,0.5145,0.5686,0.0,0.5546,0.5922,0.5718,0.5579,0.5618,0.5508,0.5332,0.5254,0.545,0.5616,0.5688,0.583,0.5979,0.6135,0.6146,0.6256,0.6409,0.6716,0.695,0.7266,0.7922,0.8466,0.8818,0.9234,0.9623,0.9981,1.0367,1.0805,1.1291,1.19,1.2412,1.273,1.3048,1.312,1.2979,1.2979,1.2809,1.2599,1.2599,1.2421,1.215,1.2003,1.2077,1.215,1.2003,1.2157,1.2305,1.215,1.2231,1.2298,1.2452,1.2452,1.2452,1.2599,1.2599,1.2565,1.2408,1.2301,1.2155,1.1857,1.1606,1.139,1.1243,1.0982,1.0775,1.0775,1.0661,1.0561,1.0498,1.0371,1.0244,1.0123,0.9594,0.8896,0.7942,0.7066,0.6311,0.5722,0.5269,0.4831,0.4465,0.376,0.3074,0.2406,0.1681,0.101,0.0449,0.0168,-0.0,-0.0,-0.0,-0.0,-0.0,-0.0,-0.0,-0.0,-0.0,-0.0,0.0,0.0,0.0,0.0,0.0,0.0,0.0,0.0,0.6096,0.651,0.6362,0.6344,0.6836,0.6536,0.6395,0.6701,0.6336,0.5982,0.5918,0.574,0.5586,0.546,0.5583,0.5722,0.5833,0.5983,0.6125,0.6251,0.6338,0.6349,0.6606,0.6882,0.7221,0.7523,0.8242,0.8827,0.9101,0.945,0.9871,1.0376,1.0629,1.1131,1.179,1.2255,1.273,1.3052,1.324,1.3293,1.3287,1.3233,1.3127,1.2969,1.2889,1.2518,1.2091,1.1889,1.1906,1.2003,1.1781,1.2003,1.2305,1.2077,1.215,1.2305,1.2305,1.2305,1.2305,1.2305,1.2305,1.2305,1.2305,1.2305,1.2245,1.2011,1.1911,1.1804,1.1563,1.1283,1.1076,1.1076,1.0842,1.0578,1.0386,1.0085,0.9862,0.9804,0.928,0.8554,0.7572,0.6989,0.6442,0.584,0.5399,0.4942,0.4613,0.3667,0.2755,0.1944,0.1486,0.103,0.04,0.0114,-0.0,-0.0,-0.0,-0.0,-0.0,-0.0,-0.0,-0.0,-0.0,-0.0,0.6314,0.6074,0.5904,0.5776,0.6097,0.6496,0.0,0.0,0.7197,0.7483,0.7512,0.7544,0.7666,0.7466,0.7192,0.6898,0.6548,0.6294,0.6108,0.5899,0.5772,0.5752,0.5888,0.5986,0.6003,0.6142,0.6244,0.6335,0.6338,0.6393,0.652,0.6864,0.7326,0.7954,0.8408,0.8939,0.9566,0.9831,1.0188,1.0549,1.1214,1.1804,1.2322,1.2977,1.3387,1.3626,1.3543,1.3594,1.3574,1.3313,1.3206,1.3127,1.273,1.2612,1.2523,1.2196,1.2011,1.2003,1.2003,1.2077,1.2305,1.2305,1.2305,1.2305,1.2305,1.2305,1.2305,1.2305,1.2305,1.2305,1.2305,1.2305,1.2291,1.2265,1.2058,1.1864,1.183,1.1583,1.1376,1.1376,1.1009,1.0613,1.0488,0.9888,0.9402,0.9338,0.8882,0.8231,0.7326,0.6793,0.6197,0.5537,0.5244,0.4866,0.4314,0.362,0.2875,0.2196,0.1588,0.1039,0.0428,0.0122,-0.0,-0.0,-0.0,-0.0,-0.0,-0.0,-0.0,-0.0,-0.0,-0.0,0.5795,0.5888,0.6012,0.5972,0.6233,0.6569,0.6806,0.7211,0.7592,0.7903,0.8046,0.8142,0.8385,0.8019,0.7671,0.0,0.6983,0.6437,0.6265,0.6057,0.5935,0.5935,0.6071,0.6129,0.6037,0.6169,0.6338,0.6338,0.6335,0.6493,0.6635,0.7129,0.7628,0.8195,0.8815,0.9429,1.0033,1.0381,1.0895,1.1413,1.1929,1.2448,1.2966,1.3392,1.3737,1.3906,1.3871,1.3901,1.3895,1.3774,1.3632,1.3467,1.3302,1.3035,1.2781,1.2336,1.2239,1.2363,1.2363,1.2483,1.2559,1.2421,1.2377,1.2305,1.2305,1.2305,1.2305,1.2305,1.2305,1.2305,1.2305,1.2305,1.2305,1.2305,1.2204,1.2124,1.2124,1.1813,1.1607,1.1683,1.1312,1.0918,1.0436,0.974,0.9041,0.8506,0.8123,0.7652,0.7003,0.6416,0.5932,0.5473,0.5332,0.5009,0.4361,0.3851,0.3199,0.2284,0.1665,0.1049,0.0432,0.0123,-0.0,-0.0,-0.0,-0.0,-0.0,-0.0,-0.0,-0.0,-0.0,-0.0,0.5183,0.5538,0.5911,0.5966,0.6176,0.6529,0.6844,0.7291,0.7688,0.8099,0.8319,0.8543,0.8844,0.8373,0.7999,0.7913,0.7198,0.6604,0.6493,0.6219,0.6095,0.6095,0.6193,0.6217,0.6105,0.6196,0.6338,0.6338,0.6393,0.6572,0.6781,0.7282,0.7878,0.8361,0.9265,0.9946,1.0467,1.0982,1.1585,1.2186,1.2534,1.2966,1.3483,1.3737,1.3913,1.4088,1.4088,1.4088,1.4088,1.4088,1.3997,1.3822,1.3737,1.3523,1.3156,1.2789,1.2705,1.2651,1.2651,1.2746,1.2859,1.2639,1.2536,1.2412,1.2325,1.2305,1.2305,1.2305,1.2305,1.2305,1.2305,1.2305,1.2305,1.2305,1.2305,1.2305,1.2305,1.2052,1.1906,1.1912,1.1545,1.1001,1.0295,0.9524,0.868,0.7794,0.7346,0.6933,0.6552,0.6086,0.5693,0.5428,0.5428,0.5183,0.4558,0.4097,0.3421,0.2403,0.1768,0.1137,0.0443,0.0127,-0.0,-0.0,-0.0,-0.0,-0.0,-0.0,-0.0,-0.0,-0.0,-0.0,0.4806,0.5224,0.5605,0.5605,0.605,0.651,0.6685,0.7162,0.77,0.8005,0.845,0.8812,0.8823,0.849,0.8108,0.774,0.7246,0.6789,0.6596,0.6384,0.6254,0.6254,0.6335,0.6335,0.0,0.6335,0.6338,0.6338,0.6393,0.6536,0.6688,0.7256,0.7932,0.8532,0.9419,1.0207,1.0982,1.1671,1.2186,1.2705,1.3137,1.3476,1.3737,1.3997,1.4088,1.4088,1.4088,1.4088,1.4088,1.4088,1.4088,1.4088,1.3822,1.373,1.3717,1.3626,1.3359,1.2889,1.2889,1.3041,1.3146,1.2846,1.2815,1.2755,1.2392,1.2305,1.2305,1.2305,1.2305,1.2305,1.2305,1.2305,1.2305,1.2305,1.2305,1.2305,1.2305,1.2291,1.2211,1.2063,1.1471,1.0779,1.0047,0.9056,0.8061,0.7358,0.658,0.6075,0.5911,0.5624,0.5428,0.5428,0.5428,0.5226,0.4824,0.4154,0.3485,0.2746,0.2012,0.1276,0.0538,0.0202,-0.0,-0.0,-0.0,-0.0,-0.0,-0.0,-0.0,-0.0,-0.0,-0.0,0.4411,0.4824,0.5178,0.5356,0.5735,0.6183,0.6427,0.6831,0.726,0.7554,0.7892,0.8138,0.8332,0.8012,0.7733,0.7896,0.7191,0.6691,0.6821,0.6531,0.6338,0.6338,0.6338,0.0,0.0,0.0,0.0,0.6393,0.6539,0.6771,0.7095,0.7677,0.8313,0.9078,0.9946,1.0809,1.1671,1.2186,1.279,1.3392,1.3737,1.3913,1.3997,1.4088,1.4088,1.4088,1.4088,1.4088,1.4088,1.4088,1.4088,1.4088,1.3997,1.3997,1.3997,1.3997,1.3878,1.3712,1.3712,1.3579,1.348,1.3373,1.3213,1.2999,1.2768,1.2681,1.2552,1.2358,1.2305,1.2305,1.2305,1.2305,1.2305,1.2305,1.2305,1.2224,1.2157,1.2077,1.1922,1.1632,1.1021,1.0364,0.9793,0.8861,0.7798,0.6606,0.6169,0.5802,0.5579,0.5495,0.5428,0.5428,0.5292,0.5024,0.4694,0.4159,0.3422,0.2551,0.2218,0.1548,0.0539,0.0202,-0.0,-0.0,-0.0,-0.0,-0.0,-0.0,-0.0,-0.0,-0.0,-0.0,0.4121,0.4594,0.4956,0.5195,0.553,0.5857,0.6181,0.6415,0.6737,0.7052,0.7273,0.7404,0.7716,0.7407,0.7241,0.7505,0.6933,0.6546,0.6662,0.6451,0.6338,0.6338,0.6305,0.6335,0.0,0.0,0.0,0.6468,0.6664,0.6908,0.7261,0.7846,0.8552,0.9345,1.0381,1.1241,1.21,1.279,1.3307,1.3822,1.3997,1.4088,1.4088,1.4088,1.4088,1.4088,1.4088,1.4088,1.4088,1.4088,1.4088,1.4088,1.4088,1.4088,1.4088,1.4088,1.4088,1.4088,1.4088,1.3961,1.3781,1.3674,1.3514,1.3307,1.3091,1.299,1.2846,1.2545,1.2458,1.2438,1.2325,1.2305,1.2305,1.2305,1.2231,1.2157,1.2003,1.1781,1.1477,1.1186,1.0496,0.982,0.9155,0.8209,0.7244,0.62,0.5946,0.5807,0.5538,0.5393,0.5292,0.5292,0.509,0.4758,0.4425,0.3825,0.3222,0.2485,0.2153,0.1616,0.0742,0.027,-0.0,-0.0,-0.0,-0.0,-0.0,-0.0,-0.0,-0.0,-0.0,-0.0,0.3996,0.4526,0.4962,0.5098,0.537,0.5683,0.5877,0.6008,0.6199,0.655,0.6646,0.6694,0.6804,0.6725,0.6615,0.6637,0.6429,0.6277,0.6296,0.6318,0.6271,0.0,0.0,0.0,0.0,0.0,0.0,0.6508,0.0,0.7015,0.7364,0.7937,0.8727,0.9602,1.0722,1.1671,1.2448,1.3319,1.3848,1.4108,1.4108,1.4102,1.4088,1.4088,1.4088,1.4088,1.4088,1.4088,1.4088,1.4088,1.4088,1.4088,1.4088,1.4088,1.4088,1.4088,1.4088,1.4088,1.4088,1.4088,1.4041,1.3761,1.3667,1.3614,1.3327,1.3233,1.3166,1.2936,1.2835,1.2755,1.2398,1.2311,1.2305,1.2305,1.215,1.2003,1.2003,1.1484,1.0962,1.0513,0.9916,0.916,0.8237,0.7246,0.6433,0.6064,0.6034,0.5925,0.5637,0.5325,0.51,0.51,0.4761,0.4425,0.3961,0.336,0.2824,0.2491,0.1951,0.1481,0.1146,0.0404,-0.0,-0.0,-0.0,-0.0,-0.0,-0.0,-0.0,-0.0,-0.0,-0.0,0.4248,0.467,0.4968,0.5255,0.5438,0.5654,0.5864,0.593,0.591,0.5744,0.5736,0.5759,0.5754,0.5688,0.5742,0.625,0.6124,0.0,0.6282,0.6405,0.0,0.6417,0.0,0.6644,0.6644,0.678,0.0,0.0,0.7052,0.7404,0.7952,0.8615,0.9428,1.0289,1.1327,1.2186,1.2881,1.3866,1.4322,1.4409,1.4409,1.4295,1.4088,1.4088,1.4088,1.4088,1.4088,1.4088,1.4088,1.4088,1.4088,1.4088,1.4088,1.4088,1.4088,1.4088,1.4088,1.4088,1.4088,1.4088,1.4075,1.4001,1.3975,1.3921,1.3906,1.3716,1.3467,1.3173,1.3003,1.2802,1.2391,1.2296,1.2305,1.2305,1.215,1.1929,1.1632,1.1111,1.0513,0.9922,0.9008,0.8012,0.7322,0.6865,0.6549,0.6283,0.6105,0.5962,0.5772,0.5477,0.518,0.504,0.4479,0.3961,0.3426,0.3096,0.2626,0.2018,0.2018,0.1751,0.1146,0.0404,-0.0,-0.0,-0.0,-0.0,-0.0,-0.0,-0.0,-0.0,-0.0,-0.0,0.4584,0.4947,0.5219,0.5667,0.5701,0.575,0.5915,0.5785,0.56,0.5353,0.5165,0.5004,0.4947,0.4861,0.494,0.0,0.0,0.0,0.5895,0.6244,0.6471,0.0,0.6668,0.0,0.68,0.6936,0.7021,0.0,0.7198,0.7581,0.8021,0.8819,0.9689,1.0463,1.1499,1.2502,1.3582,1.4206,1.4555,1.4522,1.4522,1.4369,1.4088,1.4088,1.4088,1.4088,0.0,1.4088,1.4088,1.4088,1.4088,1.4088,1.4088,1.4088,1.4088,1.4088,1.4088,1.4088,1.4088,1.4088,1.4088,1.4088,1.4088,1.4062,1.4081,1.3937,1.3781,1.3319,1.32,1.308,1.2485,1.2461,1.2465,1.2331,1.2077,1.1781,1.1335,1.0663,0.9841,0.8856,0.794,0.7173,0.6788,0.6641,0.6412,0.6338,0.6186,0.6098,0.5861,0.5453,0.5044,0.4756,0.4069,0.3483,0.3136,0.272,0.2291,0.1988,0.1782,0.1364,0.0674,0.0202,-0.0,-0.0,-0.0,-0.0,-0.0,-0.0,-0.0,-0.0,-0.0,-0.0,0.5057,0.5403,0.5649,0.6179,0.6085,0.5947,0.6083,0.5756,0.5324,0.5069,0.4703,0.4349,0.415,0.4137,0.4168,0.434,0.0,0.5306,0.5399,0.601,0.6458,0.6498,0.6756,0.6936,0.6956,0.7068,0.7139,0.7139,0.7323,0.7595,0.794,0.8819,0.9689,1.0463,1.1532,1.2713,1.4132,1.441,1.45,1.4488,1.4488,1.4402,1.4088,1.4088,1.4088,1.4088,1.4088,1.4088,1.4088,1.4088,1.4088,1.4088,1.4088,1.4088,1.4088,1.4088,1.4088,1.4088,1.4088,1.4088,1.4088,1.4088,1.4088,1.4082,1.4082,1.4004,1.3951,1.3437,1.3346,1.327,1.2492,1.2472,1.2596,1.2297,1.1929,1.1484,1.1111,1.0143,0.9008,0.771,0.6945,0.6563,0.6563,0.6412,0.6338,0.6338,0.6338,0.618,0.5864,0.5265,0.4751,0.4307,0.3572,0.306,0.2842,0.2261,0.1951,0.2047,0.1339,0.0697,-0.0,-0.0,-0.0,-0.0,-0.0,-0.0,-0.0,-0.0,-0.0,-0.0,-0.0,-0.0,0.5398,0.5804,0.6179,0.6671,0.66,0.6436,0.6293,0.5971,0.0,0.44,0.4005,0.3691,0.3245,0.3139,0.3243,0.3616,0.0,0.0,0.0,0.0,0.6225,0.0,0.0,0.0,0.0,0.0,0.0,0.0,0.0,0.768,0.8113,0.8907,0.9951,1.1413,1.2057,1.2815,1.3962,1.4122,1.4403,1.4609,1.4596,1.4502,1.4088,1.4088,1.4088,1.4088,1.4088,0.0,1.4088,1.4088,1.4088,1.4088,1.4088,1.4088,1.4088,1.4088,1.4088,1.4088,1.4088,1.4088,1.4088,1.4088,1.3913,1.3737,1.3737,1.3652,1.347,1.3262,1.3079,1.265,1.1896,1.1739,1.1827,1.177,1.1484,1.1111,1.0663,0.9387,0.8097,0.7173,0.6791,0.6563,0.6412,0.6338,0.6338,0.6338,0.6338,0.6106,0.5715,0.5194,0.4579,0.4054,0.3391,0.2769,0.2115,0.2115,0.1893,0.1304,0.0579,0.0144,-0.0,-0.0,-0.0,-0.0,-0.0,-0.0,-0.0,-0.0,-0.0,-0.0,-0.0,-0.0,0.5468,0.602,0.6416,0.6942,0.6971,0.6787,0.6543,0.0,0.0,0.4209,0.3637,0.315,0.2681,0.2514,0.0,0.0,0.0,0.0,0.0,0.0,0.0,0.0,0.0,0.0,0.0,0.0,0.0,0.0,0.0,0.7411,0.7852,0.8644,0.9689,1.0895,1.147,1.2093,1.2921,1.3453,1.3822,1.4008,1.4274,1.4228,1.3913,1.4004,1.4088,1.4088,1.4088,1.4088,1.4088,1.4088,1.4088,1.4088,1.4088,1.4088,1.4088,1.4088,1.4088,1.4088,1.4088,1.4088,1.4088,1.3913,1.3822,1.3652,1.3568,1.3307,1.2966,1.2625,1.2445,1.22,1.1594,1.1508,1.1576,1.13,1.0674,1.0056,0.9533,0.8475,0.7488,0.6868,0.6563,0.6412,0.6338,0.6338,0.6338,0.6338,0.6338,0.6106,0.5637,0.5038,0.4311,0.3697,0.3127,0.2425,0.1669,0.1669,0.1358,0.0595,0.0223,-0.0,-0.0,-0.0,-0.0,-0.0,-0.0,-0.0,-0.0,-0.0,-0.0,-0.0,-0.0,-0.0,0.5457,0.6057,0.6559,0.7075,0.7178,0.7062,0.6643,0.5897,0.0,0.4069,0.3309,0.2647,0.2224,0.206,0.2027,0.0,0.2677,0.3276,0.0,0.0,0.0,0.0,0.0,0.0,0.0,0.0,0.0,0.0,0.0,0.7231,0.7503,0.8296,0.9165,0.9941,1.0494,1.1054,1.1677,1.2462,1.2919,1.3185,1.3623,1.3745,1.3568,1.3913,1.3997,1.3997,1.4088,1.4088,1.3997,1.3997,1.3997,1.3913,1.3913,1.3913,1.3913,1.3913,1.3913,1.3913,1.3913,1.3913,1.3913,1.3652,1.3561,1.3483,1.3222,1.279,1.2272,1.1843,1.1671,1.153,1.1036,1.1051,1.1032,1.0562,0.9734,0.8922,0.8399,0.7638,0.7026,0.6641,0.6412,0.6338,0.6338,0.6338,0.6338,0.6338,0.6338,0.6106,0.5637,0.4932,0.4151,0.3446,0.2744,0.2041,0.1257,0.11,0.0701,0.0076,-0.0,-0.0,-0.0,-0.0,-0.0,-0.0,-0.0,-0.0,-0.0,-0.0,-0.0,-0.0,-0.0,-0.0,0.5428,0.6101,0.6624,0.724,0.7308,0.7153,0.6531,0.0,0.4961,0.3726,0.2926,0.2275,0.168,0.1556,0.1544,0.1493,0.1726,0.2334,0.0,0.0,0.0,0.0,0.0,0.0,0.0,0.0,0.0,0.0,0.0,0.7316,0.7764,0.8113,0.846,0.8978,0.9522,0.9984,1.0428,1.1182,1.1818,1.2209,1.2434,1.2742,1.3143,1.3568,1.3737,1.3737,1.3997,1.3997,0.0,1.3737,1.3652,1.3483,1.3483,1.3483,1.3483,1.3483,1.3483,1.3483,1.3483,1.3483,1.3398,1.3222,1.3137,1.3052,1.2619,1.2015,1.1322,1.0895,1.0636,1.0418,1.0114,0.9893,0.9702,0.9279,0.8789,0.8399,0.7936,0.7399,0.6865,0.6641,0.6412,0.6338,0.6338,0.6338,0.6338,0.6338,0.6338,0.6106,0.5637,0.4932,0.407,0.321,0.2433,0.1572,0.0707,0.0314,0.0078,-0.0,-0.0,-0.0,-0.0,-0.0,-0.0,-0.0,-0.0,-0.0,-0.0,-0.0,-0.0,-0.0,-0.0,-0.0,0.4746,0.5479,0.6174,0.6655,0.6983,0.6981,0.6393,0.5731,0.483,0.364,0.2738,0.2013,0.1571,0.1251,0.1013,0.086,0.1141,0.18,0.2905,0.0,0.0,0.0,0.0,0.0,0.0,0.0,0.0,0.0,0.0,0.7588,0.7591,0.7676,0.794,0.8288,0.8617,0.892,0.9181,0.9967,1.0588,1.103,1.1625,1.2095,1.2448,1.3143,1.3398,1.3313,1.3489,1.3489,0.0,1.313,1.3052,1.296,1.296,1.296,1.296,1.296,1.296,1.296,1.296,1.2881,1.2711,1.2363,1.2106,1.1843,1.1757,1.1154,1.0376,0.9946,0.9598,0.9231,0.9152,0.8901,0.8598,0.8409,0.8026,0.7638,0.7322,0.6942,0.6637,0.649,0.6335,0.6338,0.6338,0.6338,0.6338,0.6338,0.6338,0.6103,0.5479,0.4851,0.3992,0.3057,0.2277,0.1572,0.0707,0.0236,-0.0,-0.0,-0.0,-0.0,-0.0,-0.0,-0.0,-0.0,-0.0,-0.0,-0.0,-0.0,-0.0,-0.0,-0.0,-0.0,0.4103,0.4814,0.5486,0.5948,0.6368,0.6533,0.6035,0.5297,0.4513,0.3503,0.256,0.1786,0.1455,0.1027,0.0696,0.0644,0.0999,0.1631,0.2636,0.358,0.0,0.0,0.0,0.0,0.0,0.0,0.0,0.0,0.0,0.794,0.768,0.7591,0.7591,0.7676,0.7848,0.8025,0.8197,0.8899,0.9423,0.9864,1.0727,1.1241,1.1585,1.2277,1.2625,1.2711,1.2796,1.2796,0.0,1.2363,1.2272,1.2186,1.21,1.21,1.2186,1.2186,1.2186,1.2272,1.2186,1.21,1.1929,1.1327,1.0895,1.0549,1.0458,1.0028,0.9515,0.9082,0.8727,0.836,0.8309,0.811,0.7867,0.7725,0.7423,0.7009,0.688,0.6637,0.649,0.6338,0.6338,0.6338,0.6338,0.6338,0.6338,0.6338,0.6338,0.6103,0.5479,0.4774,0.3992,0.2979,0.2277,0.1572,0.0707,0.0236,-0.0,-0.0,-0.0,-0.0,-0.0,-0.0,-0.0,-0.0,-0.0,-0.0,-0.0,-0.0,-0.0,-0.0,-0.0,-0.0,0.3587,0.419,0.4743,0.5175,0.5559,0.5734,0.5286,0.457,0.3829,0.3229,0.2308,0.1501,0.1155,0.0836,0.0648,0.0843,0.1347,0.194,0.2605,0.347,0.0,0.0,0.0,0.0,0.0,0.0,0.0,0.0,0.0,0.0,0.8201,0.7937,0.7584,0.7139,0.7326,0.7507,0.7507,0.8013,0.8452,0.8911,0.9432,0.9946,1.0636,1.1068,1.1499,1.1757,1.1929,1.1929,0.0,1.1413,1.1241,1.0982,1.0722,1.0809,1.0982,1.0982,1.1154,1.1327,1.1068,1.0987,1.0895,1.012,0.9772,0.9515,0.8719,0.8723,0.8823,0.8376,0.8028,0.7903,0.7647,0.7599,0.7517,0.7189,0.6955,0.6756,0.6599,0.6412,0.6338,0.6338,0.6338,0.6338,0.6338,0.6338,0.6338,0.6338,0.6338,0.6106,0.5637,0.4932,0.407,0.321,0.2354,0.1572,0.0707,0.0236,-0.0,-0.0,-0.0,-0.0,-0.0,-0.0,-0.0,-0.0,-0.0,-0.0,-0.0,-0.0,-0.0,-0.0,-0.0,-0.0,0.2714,0.3372,0.3955,0.4364,0.4821,0.5118,0.4729,0.4264,0.3721,0.2984,0.2183,0.1483,0.1171,0.0891,0.0891,0.1327,0.1778,0.2327,0.3045,0.0,0.0,0.0,0.0,0.0,0.0,0.0,0.0,0.0,0.0,0.9253,0.8995,0.8732,0.8208,0.7411,0.7323,0.7231,0.7231,0.7584,0.7848,0.8116,0.8819,0.9345,0.9689,1.0197,1.0539,1.0722,1.0438,1.0356,1.0463,1.0202,1.0024,0.9758,0.9671,0.9671,0.9758,0.9941,0.9941,0.9845,1.0033,0.9854,0.9501,0.9069,0.8811,0.8552,0.8025,0.794,0.8028,0.7584,0.7404,0.7305,0.7257,0.717,0.7073,0.6975,0.6791,0.6621,0.6572,0.6407,0.6338,0.6338,0.6338,0.6338,0.6338,0.6338,0.6338,0.6338,0.6338,0.6103,0.5479,0.4932,0.4229,0.321,0.2273,0.1412,0.0629,0.0236,-0.0,-0.0,-0.0,-0.0,-0.0,-0.0,-0.0,-0.0,0.055,0.0864,0.0864,0.0314,-0.0,-0.0,-0.0,-0.0,0.2041,0.2684,0.3204,0.3578,0.3997,0.4294,0.4103,0.3777,0.3324,0.2798,0.2122,0.1585,0.1415,0.1227,0.1254,0.1767,0.2207,0.2696,0.3453,0.0,0.0,0.0,0.0,0.0,0.0,0.0,0.0,0.0,0.0,1.0207,0.9777,0.9432,0.8907,0.8208,0.7672,0.7408,0.7408,0.7588,0.768,0.7852,0.8288,0.864,0.8907,0.9157,0.9414,0.968,0.9314,0.9231,0.0,0.9165,0.8982,0.8803,0.8715,0.8715,0.8803,0.8986,0.9074,0.8978,0.9074,0.8899,0.8544,0.8197,0.7933,0.776,0.7411,0.7411,0.7496,0.7139,0.7139,0.7139,0.7139,0.7075,0.6997,0.6943,0.6739,0.6542,0.6485,0.6363,0.6338,0.6338,0.6338,0.6338,0.6338,0.6338,0.6338,0.6338,0.6338,0.6103,0.5479,0.5087,0.4462,0.3446,0.2586,0.1726,0.0942,0.0314,-0.0,-0.0,-0.0,-0.0,-0.0,-0.0,-0.0,-0.0,0.055,0.0943,0.1335,0.0393,-0.0,-0.0,-0.0,-0.0,0.0,0.211,0.2532,0.287,0.3166,0.3378,0.3462,0.312,0.0,0.2711,0.2194,0.178,0.1801,0.1747,0.1824,0.2302,0.2596,0.3099,0.3892,0.0,0.0,0.0,0.0,0.0,0.0,0.0,0.0,0.0,0.0,1.0982,1.0722,1.0289,0.9864,0.9432,0.8556,0.8028,0.7944,0.7944,0.7944,0.794,0.7929,0.8017,0.8201,0.8201,0.8285,0.0,0.8548,0.8548,0.846,0.8288,0.8113,0.8113,0.794,0.794,0.8109,0.8113,0.8285,0.846,0.8197,0.8113,0.8025,0.7591,0.7323,0.7139,0.7139,0.7139,0.7139,0.7139,0.7139,0.7139,0.7139,0.7139,0.7105,0.6963,0.681,0.6658,0.6505,0.6363,0.6338,0.6338,0.6338,0.6338,0.6338,0.6338,0.6338,0.6338,0.6338,0.6106,0.5715,0.5321,0.4771,0.3919,0.3136,0.2276,0.1492,0.055,-0.0,-0.0,-0.0,-0.0,-0.0,-0.0,-0.0,-0.0,-0.0,0.0393,0.1178,0.0471,0.0079,-0.0,-0.0,-0.0,0.1289,0.0,0.2244,0.2559,0.2896,0.3137,0.0,0.2934,0.273,0.2512,0.0,0.2218,0.2105,0.2268,0.2507,0.2912,0.3491,0.4069,0.4796,0.0,0.0,0.0,0.0,0.0,0.0,0.0,0.0,0.0,1.1929,1.1929,1.1671,1.1413,1.1068,1.0636,1.0033,0.9336,0.846,0.8464,0.8376,0.8113,0.8109,0.8113,0.794,0.794,0.8028,0.8028,0.8028,0.794,0.7768,0.768,0.7588,0.7316,0.7319,0.7319,0.7404,0.7588,0.7588,0.7492,0.7588,0.7499,0.7316,0.7231,0.7143,0.7139,0.7139,0.7139,0.7139,0.7139,0.7139,0.7139,0.7139,0.7139,0.7105,0.6963,0.681,0.6658,0.6505,0.6363,0.6338,0.6338,0.6338,0.6338,0.6338,0.6338,0.6338,0.6338,0.6338,0.618,0.5864,0.5634,0.5246,0.4543,0.3919,0.3215,0.2591,0.1256,0.0314,-0.0,-0.0,-0.0,-0.0,-0.0,-0.0,-0.0,-0.0,0.0079,0.0314,0.0786,0.0629,-0.0,-0.0,-0.0,0.1256,0.1678,0.2134,0.2503,0.2882,0.3218,0.325,0.3173,0.3047,0.0,0.0,0.2831,0.2892,0.3171,0.35,0.389,0.4496,0.0,0.0,0.0,0.0,0.0,0.0,0.0,0.0,0.0,0.0,0.0,1.2457,1.2524,1.2271,1.2213,1.1929,1.1499,1.1154,1.0463,0.9419,0.9161,0.8903,0.8552,0.8288,0.8025,0.768,0.7588,0.7499,0.7499,0.7499,0.7411,0.7323,0.7323,0.7231,0.7139,0.7139,0.7139,0.7139,0.7234,0.7231,0.7139,0.7234,0.7231,0.7139,0.7139,0.7139,0.7139,0.7139,0.7139,0.7139,0.7139,0.7139,0.7139,0.7139,0.7092,0.7024,0.6946,0.6759,0.6573,0.6488,0.6363,0.6338,0.6338,0.6338,0.6338,0.6338,0.6338,0.6338,0.6338,0.6338,0.618,0.5941,0.5786,0.5556,0.501,0.4543,0.3997,0.3526,0.243,0.1412,0.0628,0.0393,0.0314,0.0314,0.0314,0.0314,0.0314,0.0314,0.0314,0.0314,0.0786,0.0707,0.0236,0.0079,-0.0,0.1404,0.1813,0.2242,0.265,0.3052,0.3436,0.3702,0.3626,0.3561,0.0,0.0,0.0,0.0,0.0,0.0,0.0,0.0,0.0,0.0,0.0,0.0,0.0,0.0,0.0,0.0,0.0,0.0,1.232,1.2706,1.2921,1.2663,1.2714,1.2517,1.2128,1.1878,1.1375,1.0554,1.0033,0.9515,0.8999,0.8464,0.8025,0.7595,0.7231,0.7139,0.7139,0.0,0.0,0.7139,0.7139,0.7139,0.7139,0.7139,0.7139,0.7139,0.7139,0.7139,0.7139,0.7139,0.7139,0.7139,0.7139,0.7139,0.7139,0.7139,0.7139,0.7139,0.7139,0.7139,0.7136,0.7112,0.7017,0.6915,0.6871,0.6661,0.6468,0.6444,0.6346,0.6338,0.6338,0.6338,0.6338,0.6338,0.6338,0.6338,0.6338,0.6338,0.618,0.6018,0.5941,0.5786,0.5398,0.5087,0.4696,0.4302,0.36,0.2821,0.1727,0.1099,0.0785,0.0786,0.0786,0.0786,0.0786,0.0786,0.0786,0.0786,0.0786,0.0786,0.0707,0.0393,0.0157,0.1697,0.2294,0.2807,0.293,0.3346,0.3778,0.3927,0.402,0.4092,0.0,0.0,0.0,0.0,0.0,0.0,0.0,0.0,0.0,0.0,0.0,0.0,0.0,0.0,0.0,0.0,0.0,0.0,1.273,1.2855,1.2875,1.2875,1.2833,1.2719,1.2527,1.229,1.2067,1.1774,1.0901,1.012,0.9515,0.8811,0.8288,0.7856,0.7319,0.7139,0.7139,0.0,0.7139,0.7139,0.7139,0.7139,0.7139,0.7139,0.7139,0.7139,0.7139,0.7139,0.7139,0.7139,0.7139,0.7139,0.7139,0.7139,0.7139,0.7139,0.7139,0.7139,0.7139,0.7139,0.7112,0.6993,0.6946,0.6865,0.6603,0.6505,0.6437,0.6318,0.6278,0.6338,0.6338,0.6338,0.6338,0.6338,0.6338,0.6338,0.6338,0.6338,0.6261,0.6261,0.6257,0.6099,0.5864,0.5634,0.5323,0.4927,0.4302,0.3759,0.345,0.2195,0.1569,0.1729,0.1729,0.1729,0.1729,0.1729,0.1729,0.1729,0.1729,0.1493,0.1178,0.11,0.0707,0.1961,0.2623,0.3265,0.3646,0.4091,0.455,0.4866,0.5012,0.5122,0.0,0.0,0.0,0.0,0.0,0.0,0.0,0.0,0.0,0.0,0.0,0.0,0.0,0.0,0.0,0.0,0.0,1.2407,1.2566,1.2711,1.2882,1.2882,1.2877,1.2788,1.2432,1.2107,1.174,1.1234,1.0634,1.0096,0.9777,0.8811,0.8201,0.7852,0.7319,0.7139,0.7139,0.0,0.7139,0.7139,0.7139,0.7139,0.7139,0.7139,0.7139,0.7139,0.7139,0.7139,0.7139,0.7139,0.7139,0.7139,0.7139,0.7139,0.7139,0.7139,0.7139,0.7126,0.7048,0.7024,0.701,0.6946,0.6807,0.6647,0.6505,0.6413,0.6339,0.6274,0.6338,0.6338,0.6338,0.6338,0.6338,0.6338,0.6338,0.6338,0.6338,0.6338,0.6338,0.6338,0.6338,0.6261,0.6099,0.5867,0.5709,0.5473,0.5004,0.4307,0.3294,0.2666,0.2275,0.2199,0.2199,0.2199,0.2199,0.2357,0.2357,0.2199,0.2357,0.212,0.1649,0.1414,0.0943,0.2249,0.2954,0.3689,0.4387,0.4902,0.5351,0.5799,0.6012,0.0,0.0,0.0,0.0,0.0,0.0,0.0,0.0,0.0,0.0,0.0,0.0,0.0,0.0,0.0,0.0,0.0,0.0,1.2305,1.2305,1.2512,1.2721,1.2721,1.2711,1.2478,1.2147,1.175,1.1151,1.0398,0.9986,0.97,0.9689,0.8723,0.8025,0.7768,0.7319,0.7139,0.7139,0.7139,0.7139,0.7139,0.7139,0.7139,0.7139,0.7139,0.7139,0.7139,0.7139,0.7139,0.7139,0.7139,0.7139,0.7139,0.7139,0.7139,0.7139,0.7139,0.7115,0.7068,0.6959,0.6878,0.682,0.682,0.6647,0.6464,0.643,0.6339,0.6338,0.6338,0.6338,0.6338,0.6338,0.6338,0.6338,0.6338,0.6338,0.6338,0.6338,0.6338,0.6338,0.6338,0.6338,0.6338,0.6338,0.6099,0.5941,0.5941,0.5553,0.4776,0.345,0.3214,0.2981,0.2824,0.2824,0.2823,0.2899,0.2981,0.2981,0.2899,0.2902,0.2666,0.2038,0.1649,0.1178,0.2593,0.3347,0.4133,0.4771,0.5486,0.6099,0.6396,0.6795,0.0,0.7566,0.0,0.0,0.0,0.0,0.0,0.0,0.0,0.0,0.0,0.0,0.0,0.0,0.0,0.0,0.0,1.2298,1.2305,1.2305,1.2318,1.2338,1.2338,1.2129,1.1884,1.1605,1.1146,1.0565,0.9841,0.9182,0.8879,0.8999,0.8464,0.794,0.7507,0.7231,0.7139,0.7139,0.7139,0.7139,0.7139,0.7139,0.7139,0.7139,0.7139,0.7139,0.7139,0.7139,0.7139,0.7139,0.7139,0.7139,0.7139,0.7139,0.7139,0.7139,0.7139,0.7048,0.6943,0.6932,0.6722,0.6505,0.6505,0.6488,0.6437,0.6308,0.6345,0.6338,0.6338,0.6338,0.6338,0.6338,0.6338,0.6338,0.6338,0.6338,0.6338,0.6338,0.6338,0.6338,0.6338,0.6338,0.6338,0.6338,0.6261,0.618,0.5941,0.5712,0.5479,0.5165,0.4382,0.3915,0.3684,0.3684,0.3761,0.399,0.3839,0.3839,0.399,0.3524,0.3057,0.2431,0.2038,0.1412,0.3029,0.3903,0.4825,0.5352,0.6409,0.0,0.0,0.753,0.803,0.8306,0.8699,0.0,0.0,0.0,0.0,0.0,0.0,0.0,0.0,0.0,0.0,0.0,0.0,0.0,1.2305,1.2305,1.2305,1.2305,1.2305,1.2231,1.215,1.1781,1.1384,1.0878,1.028,0.9622,0.8969,0.8412,0.8057,0.7801,0.7628,0.7428,0.7357,0.7094,0.697,0.6881,0.7054,0.7054,0.6881,0.7054,0.7139,0.7139,0.7139,0.7139,0.7129,0.7041,0.7007,0.6997,0.6898,0.6868,0.6868,0.6868,0.6868,0.6868,0.6868,0.6827,0.6766,0.6671,0.6563,0.6471,0.6471,0.6407,0.6329,0.6352,0.6338,0.6338,0.6338,0.6338,0.6338,0.6338,0.6338,0.6338,0.6338,0.6338,0.6338,0.6338,0.6338,0.6338,0.6338,0.6338,0.6338,0.6338,0.6338,0.6261,0.618,0.6103,0.5948,0.5709,0.5162,0.4771,0.4538,0.454,0.4616,0.4691,0.4696,0.4618,0.4462,0.4151,0.3526,0.2668,0.2431,0.1648,0.3645,0.458,0.5545,0.6224,0.7339,0.8289,0.8282,0.8571,0.891,0.9187,0.9555,0.0,0.0,0.0,0.0,0.0,0.0,0.0,0.0,0.0,0.0,0.0,0.0,0.0,1.2305,1.2305,1.2305,1.2305,1.2305,1.2224,1.2003,1.1632,1.1037,1.0293,0.9539,0.8774,0.8055,0.7592,0.7259,0.6884,0.6884,0.6908,0.7109,0.6885,0.6784,0.6789,0.6877,0.6877,0.6786,0.6927,0.7,0.7,0.7,0.7,0.699,0.6892,0.6858,0.6841,0.6736,0.6702,0.6702,0.6702,0.6702,0.6702,0.6702,0.6668,0.6607,0.6502,0.6441,0.6407,0.6407,0.6332,0.6338,0.6338,0.6338,0.6338,0.6338,0.6338,0.6338,0.6338,0.6338,0.6338,0.6338,0.6338,0.6338,0.6338,0.6338,0.6338,0.6338,0.6338,0.6338,0.6338,0.6338,0.6338,0.6338,0.6338,0.6257,0.6022,0.5786,0.5476,0.5162,0.5162,0.524,0.5315,0.5321,0.5243,0.4854,0.454,0.3839,0.2826,0.2589,0.1804,0.4473,0.5358,0.6279,0.7441,0.8305,0.0,0.9992,0.9938,0.982,1.0244,0.0,1.0458,0.0,0.0,0.0,0.0,0.0,0.0,0.0,0.0,0.0,0.0,0.0,1.2291,1.2291,1.2291,1.2298,1.2298,1.2305,1.2224,1.2003,1.1632,1.0962,0.9916,0.9084,0.8246,0.7184,0.6795,0.6486,0.6338,0.6338,0.6413,0.6702,0.6709,0.6665,0.6668,0.6678,0.6675,0.6658,0.6739,0.6702,0.6702,0.6702,0.6702,0.6702,0.6698,0.6698,0.6698,0.6698,0.6698,0.6698,0.6698,0.6698,0.6698,0.6698,0.659,0.6471,0.6471,0.6369,0.6338,0.6338,0.6338,0.6338,0.6338,0.6338,0.6338,0.6338,0.6338,0.6338,0.6338,0.6338,0.6338,0.6338,0.6338,0.6338,0.6338,0.6338,0.6338,0.6338,0.6338,0.6338,0.6338,0.6338,0.6338,0.6338,0.6338,0.6338,0.6338,0.6338,0.6106,0.5637,0.5637,0.5712,0.5864,0.5712,0.5479,0.5321,0.4696,0.3839,0.2826,0.2589,0.1804,0.5296,0.6186,0.0,0.8143,0.0,0.0,0.0,1.0574,0.0,0.0,0.0,0.0,0.0,0.0,0.0,0.0,0.0,0.0,0.0,0.0,0.0,0.0,0.0,1.1683,1.1683,1.187,1.1997,1.1997,1.2038,1.1929,1.1632,1.1037,1.0368,0.9473,0.8713,0.7944,0.7184,0.6795,0.6486,0.6338,0.6338,0.6359,0.6542,0.6528,0.6546,0.6411,0.6622,0.6562,0.6394,0.6599,0.6702,0.6702,0.6702,0.6702,0.6688,0.658,0.6539,0.6525,0.6427,0.639,0.639,0.639,0.639,0.639,0.639,0.6359,0.6325,0.6325,0.6291,0.6338,0.6338,0.6338,0.6338,0.6338,0.6338,0.6338,0.6338,0.6338,0.6338,0.6338,0.6338,0.6338,0.6338,0.6338,0.6338,0.6338,0.6338,0.6338,0.6338,0.6338,0.6338,0.6338,0.6338,0.6338,0.6338,0.6338,0.6338,0.6338,0.6338,0.6261,0.6106,0.6106,0.6103,0.618,0.5944,0.5631,0.5321,0.4538,0.3839,0.3141,0.2435,0.1728,0.6029,0.7043,0.0,0.9139,0.995,1.069,0.0,0.0,0.0,0.0,0.0,0.0,0.0,0.0,0.0,0.0,0.0,0.0,0.0,0.0,0.0,0.0,1.1423,1.1423,1.1423,1.159,1.169,1.1627,1.1644,1.1499,1.1028,1.0518,0.9894,0.9084,0.8327,0.7714,0.7099,0.6795,0.6486,0.6338,0.6338,0.6305,0.639,0.6424,0.6341,0.6276,0.6491,0.6441,0.6281,0.6502,0.6525,0.6525,0.6525,0.6525,0.6515,0.6424,0.6386,0.6376,0.6291,0.6338,0.6338,0.6338,0.6338,0.6338,0.6338,0.6338,0.6338,0.6338,0.6338,0.6338,0.6338,0.6338,0.6338,0.6338,0.6338,0.6338,0.6338,0.6338,0.6338,0.6338,0.6338,0.6338,0.6338,0.6338,0.6338,0.6338,0.6338,0.6338,0.6338,0.6338,0.6338,0.6338,0.6338,0.6338,0.6338,0.6338,0.6338,0.6338,0.6338,0.6338,0.6338,0.6338,0.6338,0.6338,0.6022,0.5628,0.5162,0.4382,0.3682,0.3141,0.2121,0.1493,0.6714,0.0,0.0,0.0,0.0,0.0,0.0,0.0,0.0,0.0,0.0,0.0,0.0,0.0,0.0,0.0,0.0,0.0,0.0,0.0,0.0,0.0,1.1485,1.1349,1.1349,1.1369,1.1321,1.1191,1.1142,1.0925,1.039,0.9969,0.9422,0.8742,0.8138,0.7536,0.6942,0.6791,0.6563,0.6338,0.6338,0.6338,0.6338,0.6338,0.6338,0.6338,0.6338,0.6338,0.6338,0.6338,0.6338,0.6338,0.6338,0.6338,0.6338,0.6338,0.6338,0.6338,0.6338,0.6338,0.6338,0.6338,0.6338,0.6338,0.6338,0.6338,0.6338,0.6338,0.6338,0.6338,0.6338,0.6338,0.6338,0.6338,0.6338,0.6338,0.6338,0.6338,0.6338,0.6338,0.6338,0.6338,0.6338,0.6338,0.6338,0.6338,0.6338,0.6338,0.6338,0.6338,0.6338,0.6338,0.6338,0.6338,0.6338,0.6338,0.6338,0.6338,0.6338,0.6338,0.6338,0.6338,0.6338,0.6338,0.6022,0.555,0.5004,0.4151,0.345,0.2826,0.1806,0.1257,0.7306,0.8388,0.0,0.0,0.0,0.0,0.0,0.0,0.0,0.0,0.0,0.0,0.0,0.0,0.0,0.0,0.0,0.0,0.0,0.0,0.0,1.0999,1.0877,1.0748,1.0748,1.0955,1.1022,1.0816,1.0759,1.0565,1.0207,0.9504,0.9042,0.868,0.8087,0.7639,0.7403,0.718,0.6872,0.6563,0.6563,0.649,0.6338,0.6338,0.6338,0.6338,0.6338,0.6338,0.6338,0.6338,0.6338,0.6338,0.6338,0.6338,0.6338,0.6338,0.6338,0.6338,0.6338,0.6338,0.6338,0.6338,0.6338,0.6338,0.6338,0.6338,0.6338,0.6338,0.6338,0.6338,0.6338,0.6338,0.6338,0.6338,0.6338,0.6338,0.6338,0.6338,0.6338,0.6338,0.6338,0.6338,0.6338,0.6338,0.6338,0.6338,0.6338,0.6338,0.6338,0.6338,0.6338,0.6338,0.6338,0.6338,0.6338,0.6338,0.6338,0.6338,0.6338,0.6338,0.6338,0.6338,0.6338,0.6338,0.587,0.5401,0.4776,0.3917,0.3214,0.2589,0.1728,0.0943,0.7284,0.0,0.0,0.0,0.0,0.0,0.0,0.0,0.0,0.0,0.0,0.0,0.0,0.0,0.0,0.0,0.0,0.0,0.0,0.0,0.0,1.1052,1.0807,1.0624,1.0624,1.0759,1.0717,1.0523,1.0403,1.0208,0.9867,0.9251,0.8803,0.8672,0.8271,0.8004,0.7722,0.7668,0.7411,0.7022,0.6949,0.6718,0.6412,0.6338,0.6338,0.6338,0.6338,0.6338,0.6338,0.6338,0.6338,0.6338,0.6338,0.6338,0.6338,0.6338,0.6338,0.6338,0.6338,0.6338,0.6338,0.6338,0.6338,0.6338,0.6338,0.6338,0.6338,0.6338,0.6338,0.6338,0.6338,0.6338,0.6338,0.6338,0.6338,0.6338,0.6338,0.6338,0.6338,0.6338,0.6338,0.6338,0.6338,0.6338,0.6338,0.6338,0.6338,0.6338,0.6338,0.6338,0.6338,0.6338,0.6338,0.6338,0.6338,0.6338,0.6338,0.6338,0.6338,0.6338,0.6338,0.6338,0.6257,0.6099,0.5712,0.5165,0.4543,0.3604,0.2902,0.251,0.1413,0.0628,0.6966,0.0,0.9886,0.0,0.0,0.0,0.0,0.0,0.0,0.0,0.0,0.0,0.0,0.0,0.0,0.0,0.0,0.0,0.0,0.0,0.0,1.1303,1.087,1.0624,1.0624,1.0624,1.0498,1.0301,1.011,0.9891,0.9657,0.9131,0.8769,0.8723,0.8561,0.8374,0.8107,0.8173,0.8045,0.7588,0.7318,0.6949,0.6563,0.6412,0.6338,0.6338,0.6338,0.6338,0.6338,0.6338,0.6338,0.6338,0.6338,0.6338,0.6338,0.6338,0.6338,0.6338,0.6338,0.6338,0.6338,0.6338,0.6338,0.6338,0.6338,0.6338,0.6338,0.6338,0.6338,0.6338,0.6338,0.6338,0.6338,0.6338,0.6338,0.6338,0.6338,0.6338,0.6338,0.6338,0.6338,0.6338,0.6338,0.6338,0.6338,0.6338,0.6338,0.6338,0.6338,0.6338,0.6338,0.6338,0.6338,0.6338,0.6338,0.6338,0.6338,0.6338,0.6338,0.6338,0.6338,0.6338,0.618,0.5864,0.5476,0.4929,0.4307,0.3372,0.2747,0.2354,0.1256,0.0471,0.0,0.0,1.0417,0.0,0.0,0.0,0.0,0.0,0.0,0.0,0.0,0.0,0.0,0.0,0.0,0.0,0.0,0.0,0.0,0.0,1.1677,1.1373,1.087,1.0624,1.0624,1.0624,1.0498,1.0301,1.011,0.9938,0.979,0.9268,0.9046,0.922,0.8931,0.87,0.868,0.8757,0.8503,0.7908,0.7251,0.6791,0.6563,0.6412,0.6338,0.6338,0.6338,0.6338,0.6338,0.6338,0.6338,0.6338,0.6338,0.6338,0.6338,0.6338,0.6338,0.6338,0.6338,0.6338,0.6338,0.6338,0.6338,0.6338,0.6338,0.6338,0.6338,0.6338,0.6338,0.6338,0.6338,0.6338,0.6338,0.6338,0.6338,0.6338,0.6338,0.6338,0.6338,0.6338,0.6338,0.6338,0.6338,0.6338,0.6338,0.6338,0.6338,0.6338,0.6338,0.6338,0.6338,0.6338,0.6338,0.6338,0.6338,0.6338,0.6338,0.6338,0.6338,0.6338,0.6338,0.6338,0.6106,0.5637,0.5401,0.4851,0.3841,0.3452,0.2827,0.1964,0.1415,0.0786,0.6856,0.8633,0.0,0.0,0.0,0.0,0.0,0.0,0.0,0.0,0.0,0.0,0.0,0.0,0.0,0.0,0.0,0.0,0.0,0.0,1.1465,1.1099,1.0767,1.0624,1.0624,1.0624,1.0561,1.0498,1.0308,1.0117,1.0053,0.967,0.9461,0.9569,0.9458,0.9383,0.9423,0.939,0.8995,0.8314,0.7513,0.7083,0.6949,0.6641,0.6412,0.6338,0.6338,0.6338,0.6338,0.6338,0.6338,0.6338,0.6338,0.6338,0.6338,0.6338,0.6338,0.6338,0.6338,0.6338,0.6338,0.6338,0.6338,0.6338,0.6338,0.6338,0.6338,0.6338,0.6338,0.6338,0.6338,0.6338,0.6338,0.6338,0.6338,0.6338,0.6338,0.6338,0.6338,0.6338,0.6338,0.6338,0.6338,0.6338,0.6338,0.6338,0.6338,0.6338,0.6338,0.6338,0.6338,0.6338,0.6338,0.649,0.6949,0.6949,0.6795,0.6338,0.6412,0.6412,0.6338,0.6338,0.6106,0.5637,0.5321,0.4618,0.3604,0.3217,0.2591,0.1572,0.1415,0.0864,0.0,0.0,0.0,0.0,0.0,0.0,0.0,0.0,0.0,0.0,0.0,0.0,0.0,0.0,0.0,0.0,0.0,0.0,0.0,0.0,1.1233,1.0827,1.062,1.0485,1.0559,1.0573,1.0669,1.0744,1.0561,1.0491,1.0428,1.018,0.9989,0.9932,0.9931,0.9904,0.9904,0.9758,0.9379,0.8742,0.7874,0.7368,0.7127,0.6673,0.637,0.6149,0.6227,0.6338,0.6338,0.6338,0.6338,0.6338,0.6338,0.6338,0.6338,0.6338,0.6338,0.6338,0.6338,0.6338,0.6338,0.6338,0.6338,0.6338,0.6338,0.6338,0.6338,0.6338,0.6338,0.6338,0.6338,0.6338,0.6338,0.6338,0.6338,0.6338,0.6338,0.6338,0.6338,0.6338,0.6338,0.6338,0.6338,0.6338,0.6338,0.6338,0.6338,0.6338,0.6338,0.6338,0.6338,0.6338,0.649,0.6872,0.7484,0.7484,0.7176,0.6412,0.649,0.6486,0.6338,0.6338,0.6106,0.5637,0.524,0.4457,0.329,0.2981,0.2198,0.11,0.1021,0.0628,0.7111,0.7606,0.0,0.0,0.0,0.0,0.0,0.0,0.0,0.0,0.0,0.0,0.0,0.0,0.0,0.0,0.0,0.0,0.0,0.0,1.1058,1.0666,1.0343,1.0238,1.059,1.0618,1.0744,1.1038,1.1059,1.0996,1.0807,1.0624,1.0498,1.0308,1.0066,1.0008,1.0008,0.976,0.9406,0.9076,0.8165,0.7392,0.6905,0.6334,0.6046,0.584,0.6132,0.6338,0.6338,0.6338,0.6338,0.6338,0.6338,0.6338,0.6338,0.6338,0.6338,0.6338,0.6338,0.6338,0.6338,0.6338,0.6338,0.6338,0.6338,0.6338,0.6338,0.6338,0.6338,0.6338,0.6338,0.6338,0.6338,0.6338,0.6338,0.6338,0.6338,0.6338,0.6338,0.6338,0.6338,0.6338,0.6338,0.6338,0.6338,0.6338,0.6338,0.6338,0.6338,0.6338,0.6338,0.6338,0.6949,0.7484,0.7484,0.7484,0.7253,0.6721,0.6641,0.6486,0.6338,0.6338,0.6106,0.5637,0.524,0.438,0.3132,0.2744,0.1883,0.0628,0.0236,0.0079,0.6314,0.7097,0.0,0.0,0.0,0.0,0.0,0.0,0.0,0.0,0.0,0.0,0.0,0.0,0.0,0.0,0.0,0.0,0.0,0.0,1.0777,1.0461,1.0293,1.0286,1.053,1.0544,1.0666,1.1034,1.1056,1.1088,1.1108,1.0996,1.0807,1.0618,1.0498,1.0301,1.018,0.9897,0.9544,0.9242,0.8422,0.7808,0.7237,0.6666,0.6241,0.6029,0.5991,0.5966,0.5966,0.5966,0.6023,0.6112,0.6112,0.6173,0.6338,0.6412,0.649,0.6486,0.6641,0.6714,0.6637,0.6563,0.649,0.6486,0.6338,0.6338,0.6338,0.6338,0.6338,0.6338,0.6338,0.6338,0.6338,0.6338,0.6338,0.6338,0.6338,0.6338,0.6338,0.6338,0.6338,0.6338,0.6338,0.6338,0.6338,0.6338,0.6338,0.6338,0.6338,0.6338,0.6338,0.6338,0.7026,0.7484,0.7484,0.733,0.7099,0.6718,0.6641,0.6486,0.6338,0.6338,0.6106,0.5637,0.5166,0.4358,0.329,0.2526,0.1672,0.0599,0.0225,-0.0,0.599,0.6748,0.0,0.0,0.0,0.0,0.0,0.0,0.0,0.0,0.0,0.0,0.0,0.0,0.0,0.0,0.0,0.0,0.0,0.0,1.0706,1.0394,1.0359,1.0476,1.0651,1.0722,1.085,1.1173,1.1352,0.0,1.1247,1.1308,1.1185,1.0807,1.0688,1.0561,1.0371,1.0117,0.982,0.946,0.8799,0.8145,0.7532,0.6908,0.6425,0.6146,0.5933,0.5849,0.5803,0.5875,0.5937,0.6029,0.6099,0.624,0.641,0.6557,0.6629,0.6712,0.692,0.6935,0.6866,0.6853,0.6718,0.6563,0.6412,0.6335,0.6338,0.6338,0.6338,0.6338,0.6338,0.6338,0.6338,0.6338,0.6338,0.6338,0.6338,0.6338,0.6338,0.6338,0.6338,0.6338,0.6338,0.6338,0.6338,0.6338,0.6338,0.6338,0.6338,0.6338,0.6338,0.6338,0.6795,0.7099,0.7253,0.7103,0.6872,0.6641,0.6641,0.6486,0.618,0.618,0.5925,0.534,0.5025,0.4271,0.3316,0.2526,0.1629,0.0802,0.0219,-0.0,0.0,0.0,0.0,0.0,0.0,0.0,0.0,0.0,0.0,0.0,0.0,0.0,0.0,0.0,0.0,0.0,0.0,0.0,0.0,0.0,1.0972,1.0573,1.0522,1.0701,1.1091,1.1124,1.1269,1.1576,1.197,1.1921,1.1279,1.1546,1.1483,1.0807,1.0688,1.0624,1.0624,1.0371,1.0117,0.9804,0.9157,0.8436,0.7707,0.6999,0.6544,0.6214,0.602,0.5863,0.5861,0.6008,0.6086,0.6162,0.6297,0.644,0.6595,0.6599,0.6738,0.6972,0.7155,0.7064,0.6939,0.711,0.6934,0.6626,0.6626,0.6475,0.6325,0.6325,0.6251,0.6254,0.6335,0.6338,0.6338,0.6338,0.6338,0.6338,0.6338,0.6338,0.6338,0.6338,0.6338,0.6338,0.6338,0.6338,0.6338,0.6338,0.6338,0.6338,0.6338,0.6338,0.6338,0.6338,0.6338,0.6412,0.6644,0.6721,0.6641,0.6641,0.6563,0.6405,0.5941,0.5857,0.5564,0.4914,0.4675,0.4047,0.3081,0.2585,0.189,0.1164,0.0364,-0.0,0.7442,0.0,0.0,0.0,0.0,0.0,0.0,0.0,0.0,0.0,0.0,0.0,0.0,0.0,0.0,0.0,0.0,0.0,0.0,0.0,1.1628,1.1368,1.1276,1.131,1.1515,1.1524,1.1636,0.0,1.1873,1.1828,1.1581,1.1279,1.1012,1.08,1.0688,1.0624,1.0624,1.0371,1.0117,0.9804,0.9344,0.8753,0.8037,0.7521,0.7068,0.6679,0.6548,0.6469,0.6423,0.6225,0.6253,0.6468,0.6634,0.6855,0.6974,0.727,0.7442,0.7522,0.7718,0.7664,0.7457,0.7372,0.7098,0.6734,0.6438,0.6298,0.6155,0.6002,0.6006,0.6118,0.6234,0.6338,0.6338,0.6338,0.6338,0.6338,0.6338,0.6338,0.6338,0.6338,0.6338,0.6338,0.6338,0.6338,0.6338,0.6338,0.6338,0.6338,0.6338,0.6338,0.6338,0.6338,0.6338,0.6412,0.6641,0.6641,0.6641,0.6641,0.649,0.6254,0.5941,0.5692,0.5318,0.4683,0.4225,0.3549,0.2729,0.247,0.2035,0.1446,0.0492,-0.0,0.8227,0.8412,0.0,0.0,0.0,0.0,0.0,0.9809,0.0,0.0,0.0,0.0,0.0,0.0,0.0,0.0,0.0,0.0,0.0,0.0,1.2246,1.2098,1.1918,1.1877,1.2026,1.1977,1.1977,1.2048,1.207,1.1896,1.1656,1.1137,1.0795,1.0733,1.062,1.0624,1.0624,1.0498,1.0308,0.9989,0.9728,0.9274,0.8624,0.8236,0.7792,0.7405,0.733,0.7265,0.7326,0.7129,0.7021,0.7026,0.7194,0.7333,0.7576,0.7787,0.7957,0.804,0.8265,0.8225,0.8036,0.7915,0.7517,0.7019,0.673,0.6376,0.6097,0.595,0.6058,0.6122,0.6287,0.6437,0.6563,0.6563,0.649,0.649,0.649,0.6416,0.6338,0.6338,0.6338,0.6338,0.6338,0.6338,0.6338,0.6338,0.6338,0.6338,0.6338,0.6338,0.6338,0.6338,0.6338,0.6335,0.649,0.649,0.649,0.649,0.6276,0.601,0.5778,0.5423,0.4956,0.4317,0.3838,0.3201,0.2411,0.2206,0.1778,0.1145,0.0343,-0.0,0.91,0.9162,0.9194,0.0,0.0,0.0,0.9244,0.9264,0.9636,0.0,0.0,0.0,0.0,0.0,0.0,0.0,0.0,0.0,0.0,0.0,0.0,1.2716,1.255,1.2421,1.2578,1.2431,1.2274,1.2175,1.2211,1.2042,1.1472,1.0974,1.0632,1.059,1.0554,1.0528,1.0624,1.0624,1.0498,1.0301,1.011,0.9792,0.9338,0.9022,0.8641,0.8257,0.8117,0.8177,0.8236,0.8236,0.7977,0.7657,0.7797,0.7987,0.8301,0.8296,0.8436,0.8609,0.8809,0.8751,0.8586,0.8582,0.8089,0.7385,0.724,0.6675,0.6118,0.614,0.6168,0.6345,0.6363,0.6625,0.6889,0.69,0.6831,0.6692,0.6637,0.6493,0.6338,0.6338,0.6338,0.6338,0.6338,0.6338,0.6338,0.6338,0.6338,0.6338,0.6338,0.6338,0.6338,0.6338,0.6338,0.6338,0.6338,0.6338,0.6254,0.6237,0.6105,0.5874,0.5486,0.5137,0.4657,0.3918,0.3491,0.2964,0.2221,0.1951,0.1413,0.0539,0.0202,0.0068,0.0,0.0,0.0,0.0,0.0,0.0,0.9271,0.9338,0.9577,0.0,0.0,0.0,0.0,0.0,0.0,0.0,0.0,0.0,0.0,0.0,0.0,1.3409,1.317,1.2987,1.2978,1.2881,1.2676,1.2431,1.1849,1.1395,1.1004,1.0276,1.0094,1.0576,1.0289,1.0252,1.0618,1.0624,1.0498,1.0301,1.0238,1.0053,0.967,0.9344,0.9081,0.8829,0.8689,0.856,0.8447,0.8635,0.8511,0.8317,0.8528,0.8641,0.8742,0.8994,0.9128,0.9151,0.9327,0.915,0.8907,0.8761,0.8251,0.7522,0.7123,0.6655,0.6285,0.6149,0.6209,0.6468,0.675,0.6809,0.6929,0.6942,0.6822,0.6652,0.6454,0.6338,0.6338,0.6338,0.6338,0.6338,0.6338,0.6338,0.6338,0.6338,0.6338,0.6338,0.6338,0.6338,0.6338,0.6338,0.6338,0.6338,0.6338,0.6338,0.6207,0.6084,0.6047,0.5754,0.527,0.4997,0.4568,0.3918,0.3219,0.2703,0.2357,0.1749,0.1345,0.0942,0.0606,0.027,0.0,0.0,0.0,1.1714,0.0,0.0,0.0,0.938,0.9258,0.9485,0.0,0.0,0.0,0.0,0.0,0.0,0.0,0.0,0.0,0.0,0.0,0.0,1.3042,1.2916,1.2852,1.2908,1.2783,1.2431,1.1828,1.1302,1.0821,1.0264,1.0007,1.0128,0.9937,1.004,1.0334,1.0341,1.0352,1.0434,1.0434,1.0301,1.004,0.9786,0.953,0.9268,0.9011,0.8823,0.8641,0.8571,0.8436,0.8376,0.8711,0.8835,0.8941,0.9069,0.9198,0.9338,0.9396,0.9338,0.9221,0.9087,0.863,0.8047,0.7657,0.7138,0.6634,0.6459,0.6679,0.6971,0.7207,0.7513,0.7686,0.7603,0.7512,0.7338,0.7003,0.6567,0.6338,0.6338,0.6338,0.6338,0.6338,0.6338,0.6338,0.6338,0.6338,0.6338,0.6338,0.6338,0.6338,0.6338,0.6338,0.6338,0.6338,0.6338,0.6196,0.604,0.5959,0.5702,0.5274,0.4933,0.4521,0.3837,0.3448,0.309,0.2825,0.2285,0.1747,0.1076,0.0875,0.0539,0.0,0.0,0.0,0.0,0.0,1.0718,0.0,0.0,0.0,0.9354,0.0,0.0,0.0,0.0,0.0,0.0,0.0,0.0,0.0,0.0,0.0,0.0,1.264,1.2554,1.2474,1.2562,1.2436,1.208,1.1764,1.1314,1.0671,1.0362,1.0092,0.9728,0.9699,0.974,1.0027,1.0087,1.0241,1.0474,1.0598,1.0485,1.0275,1.004,0.9792,0.946,0.9075,0.8823,0.8635,0.8242,0.8042,0.8042,0.8495,0.8753,0.8823,0.8894,0.9022,0.921,0.9274,0.9344,0.9414,0.9338,0.8947,0.849,0.8231,0.7722,0.7073,0.7003,0.7309,0.7702,0.7846,0.8245,0.8548,0.8392,0.8239,0.8026,0.7575,0.7007,0.649,0.6338,0.6338,0.6338,0.6338,0.6338,0.6338,0.6338,0.6338,0.6338,0.6338,0.6338,0.6338,0.6338,0.6338,0.6338,0.6338,0.6338,0.6183,0.5996,0.5871,0.5651,0.5271,0.4953,0.4561,0.3959,0.3959,0.3758,0.336,0.3021,0.235,0.1344,0.1277,0.0807,0.0,0.0,0.0,0.0,1.2453,0.0,0.0,0.0,0.9108,0.8923,0.0,0.0,0.0,0.0,0.0,0.0,0.0,0.0,0.0,0.0,0.0,0.0,1.2339,1.2111,1.1981,1.1743,1.1462,1.1165,1.1091,1.0867,1.0352,1.0132,0.9978,0.9878,0.9598,0.9538,0.9733,0.9987,1.0134,1.0167,1.0434,1.0491,1.0301,0.9989,0.967,0.9274,0.8748,0.8366,0.8052,0.7857,0.7596,0.7396,0.7872,0.82,0.8301,0.8463,0.8657,0.8899,0.921,0.9338,0.9338,0.9274,0.8947,0.849,0.8231,0.8042,0.7857,0.7852,0.8127,0.8403,0.8609,0.8826,0.8978,0.9071,0.8651,0.8077,0.7603,0.7461,0.718,0.6416,0.6338,0.6338,0.6338,0.6338,0.6338,0.6338,0.6338,0.6338,0.6338,0.6338,0.6338,0.6338,0.6338,0.6338,0.6338,0.6338,0.6135,0.5844,0.581,0.5604,0.5122,0.4903,0.4694,0.4492,0.4492,0.4292,0.3894,0.3556,0.3019,0.2216,0.1882,0.121,0.0,0.0,0.0,0.0,0.0,0.0,1.1278,0.0,0.9301,0.0,0.0,0.0,0.0,0.0,0.0,0.0,0.843,0.0,0.0,0.0,0.0,0.0,0.0,0.0,1.1227,1.133,1.1255,1.099,1.0877,1.0658,1.031,1.0024,0.9753,0.9599,0.93,0.9234,0.9426,0.9546,0.9693,0.9866,1.016,1.0239,1.0066,0.9977,0.9664,0.9274,0.8759,0.8247,0.7797,0.7405,0.7138,0.6937,0.6924,0.7186,0.7451,0.7676,0.7872,0.8112,0.8436,0.8689,0.8877,0.921,0.9204,0.9069,0.8882,0.8823,0.8759,0.8759,0.8882,0.9139,0.935,0.9478,0.96,0.9728,0.935,0.877,0.8182,0.7924,0.7677,0.7141,0.6644,0.6338,0.6338,0.6338,0.6338,0.6338,0.6338,0.6338,0.6338,0.6338,0.6338,0.6338,0.6338,0.6338,0.6338,0.6179,0.6034,0.5817,0.564,0.5488,0.5296,0.5163,0.5093,0.4891,0.4891,0.4691,0.4359,0.3959,0.3422,0.2753,0.2287,0.1412,1.732,0.0,0.0,0.0,0.0,0.0,0.0,0.0,0.0,0.0,0.0,0.0,0.0,0.0,0.8156,0.7812,0.0,0.7605,0.0,0.0,0.0,0.0,0.0,0.0,0.0,1.0431,1.0526,1.0361,1.0247,1.0169,1.0089,0.9785,0.9542,0.9406,0.9159,0.9011,0.9064,0.9143,0.9345,0.9566,0.986,0.998,0.989,0.9843,0.966,0.9274,0.87,0.8187,0.7727,0.7209,0.6876,0.6745,0.6358,0.6416,0.6732,0.6881,0.7077,0.733,0.7657,0.8112,0.8689,0.9204,0.946,0.9594,0.953,0.9466,0.9466,0.9466,0.9594,0.9786,0.9926,1.0053,1.0174,1.0238,0.9926,0.942,0.8899,0.8508,0.8141,0.7845,0.7176,0.6567,0.649,0.6338,0.6338,0.6338,0.6338,0.6338,0.6338,0.6338,0.6338,0.6338,0.6338,0.6338,0.6338,0.6118,0.5945,0.5755,0.5504,0.5428,0.5428,0.5428,0.5359,0.5156,0.5153,0.4954,0.4625,0.4161,0.3558,0.2889,0.249,0.1614,0.0,0.0,0.0,1.5271,0.0,0.0,0.0,0.0,1.1337,0.0,0.0,0.0,0.0,0.888,0.8532,0.7744,0.7242,0.0,0.0,0.0,0.0,0.0,0.0,0.0,0.0,0.8639,0.8674,0.0,0.8923,0.9115,0.9482,0.9475,0.9407,0.9399,0.9159,0.8962,0.8824,0.9044,0.919,0.9203,0.9552,0.9787,0.9884,0.9591,0.9363,0.9274,0.856,0.8112,0.7922,0.74,0.7073,0.6881,0.6552,0.635,0.621,0.6214,0.6412,0.6806,0.7138,0.7922,0.8899,0.9332,0.9658,0.9804,0.9926,0.9983,0.9983,0.9983,1.011,1.0308,1.0308,1.0434,1.0561,1.0371,1.0053,0.974,0.9548,0.8981,0.8539,0.8618,0.8016,0.7326,0.6942,0.6563,0.6338,0.6338,0.6338,0.6338,0.6338,0.6338,0.6338,0.6338,0.6338,0.6338,0.6338,0.6118,0.5905,0.5613,0.545,0.5428,0.5428,0.5428,0.5428,0.5362,0.5223,0.4954,0.4625,0.4092,0.3422,0.2686,0.2691,0.1817,0.0,0.0,1.6675,1.5968,0.0,0.0,0.0,0.0,0.0,0.0,0.0,0.0,0.0,0.9088,0.8529,0.7947,0.6999,0.627,0.0,0.0,0.0,0.0,0.0,0.0,0.0,0.0,0.0,0.0,0.8301,0.0,0.9128,0.8969,0.8989,0.9242,0.9106,0.8956,0.8804,0.8905,0.8958,0.8958,0.9252,0.9332,0.9323,0.9395,0.9392,0.9345,0.8828,0.8546,0.8506,0.8042,0.7722,0.7405,0.7199,0.6942,0.6613,0.6346,0.628,0.6474,0.7269,0.8117,0.8899,0.9478,0.9919,1.018,1.0371,1.0371,1.0371,1.0371,1.0434,1.0498,1.0498,1.0561,1.0561,1.0498,1.0308,1.0053,0.9862,0.9486,0.9131,0.8685,0.8403,0.8169,0.7791,0.733,0.6949,0.6416,0.6338,0.6338,0.6338,0.6338,0.6338,0.6338,0.6218,0.6074,0.6105,0.5881,0.5654,0.545,0.5456,0.5428,0.5428,0.5428,0.5359,0.5223,0.5024,0.4694,0.4228,0.3692,0.3092,0.2557,0.2423,0.1748,1.8707,1.7949,0.0,1.6372,1.5163,0.0,1.3459,0.0,0.0,0.0,0.0,0.0,0.0,0.9566,0.895,0.813,0.707,0.6162,0.0,0.5246,0.0,0.0,0.0,0.0,0.0,0.0,0.7458,0.7597,0.7483,0.0,0.0,0.8453,0.8581,0.8985,0.8954,0.891,0.8804,0.8804,0.8804,0.8811,0.8998,0.909,0.9085,0.9219,0.9395,0.9579,0.9199,0.9045,0.9157,0.8759,0.8436,0.8117,0.7912,0.7652,0.7265,0.6605,0.6478,0.6675,0.7531,0.8247,0.8964,0.9612,1.0053,1.0371,1.0561,1.0624,1.0624,1.0624,1.0624,1.0624,1.0624,1.0624,1.0624,1.0624,1.0434,1.0238,1.0117,0.987,0.9514,0.898,0.8842,0.8685,0.8328,0.7886,0.7405,0.6623,0.6318,0.6187,0.6301,0.6167,0.6061,0.6095,0.5983,0.5895,0.5874,0.5698,0.5525,0.5439,0.5428,0.5428,0.5428,0.5359,0.5226,0.5024,0.4694,0.4228,0.3694,0.3295,0.2825,0.2221,0.2221,0.1682]},{"header":{"parameterUnit":"m.s-1","parameterCategory":1,"la1":30.6,"la2":29.2853,"lo1":-89.7004,"lo2":-87.6739,"dy":0.0162,"dx":0.0183,"nx":112,"ny":82,"refTime":"2024-09-13T00:00:00:Z","depth":0,"parameterNumber":3,"parameterNumberName":"V-component_of_WINDS"},"data":[0.0,0.0,0.0,0.0,0.0,0.0,0.0,0.0,0.0,0.0,0.0,0.0,0.0,0.0,0.0,0.0,0.0,0.0,0.0,0.0,0.0,0.0,0.0,0.0,0.0,0.0,0.0,0.0,0.0,0.0,0.0,0.0,0.0,0.0,0.0,0.0,0.0,0.0,0.0,0.0,0.0,0.0,0.0,0.0,0.0,0.0,0.0,0.0,0.0,0.0,0.0,0.0,0.0,0.0,0.0,0.0,0.0,0.0,0.0,0.0,0.0,0.0,0.0,0.0,0.0,0.0,0.0,0.0,0.0,0.0,0.0,0.0,0.0,0.0,0.0,0.0,0.0,0.0,0.0,0.0,0.0,0.0,0.0,0.0,0.0,0.0,0.0,0.0,0.0,0.0,0.0,-1.9377,-2.2417,-2.4302,-2.4302,-2.337,-2.1798,-1.9439,0.0,0.0,0.0,0.0,0.0,0.0,0.0,0.0,0.0,0.0,0.0,0.0,0.0,0.0,0.0,0.0,0.0,0.0,0.0,0.0,0.0,0.0,0.0,0.0,0.0,0.0,0.0,0.0,0.0,0.0,0.0,0.0,0.0,0.0,0.0,0.0,0.0,0.0,0.0,0.0,0.0,0.0,0.0,0.0,0.0,0.0,0.0,0.0,0.0,0.0,0.0,0.0,0.0,0.0,0.0,0.0,0.0,0.0,0.0,0.0,0.0,0.0,0.0,0.0,0.0,0.0,0.0,0.0,0.0,0.0,0.0,0.0,0.0,0.0,0.0,0.0,0.0,0.0,0.0,0.0,0.0,0.0,0.0,0.0,0.0,0.0,0.0,0.0,0.0,0.0,0.0,0.0,0.0,0.0,0.0,0.0,0.0,0.0,0.0,0.0,0.0,0.0,0.0,0.0,-1.8742,-2.1897,-2.3966,-2.512,-2.512,-2.3697,-2.2021,-2.0229,0.0,0.0,0.0,0.0,0.0,0.0,0.0,0.0,0.0,0.0,0.0,0.0,0.0,0.0,0.0,0.0,0.0,0.0,0.0,0.0,0.0,0.0,0.0,0.0,0.0,0.0,0.0,0.0,0.0,0.0,0.0,0.0,0.0,0.0,0.0,0.0,0.0,0.0,0.0,0.0,0.0,0.0,0.0,0.0,0.0,0.0,0.0,0.0,0.0,0.0,0.0,0.0,0.0,0.0,0.0,0.0,0.0,0.0,0.0,0.0,0.0,0.0,0.0,0.0,0.0,0.0,0.0,0.0,0.0,0.0,0.0,0.0,0.0,0.0,0.0,0.0,0.0,0.0,0.0,0.0,0.0,0.0,0.0,0.0,0.0,0.0,0.0,0.0,0.0,0.0,0.0,0.0,0.0,0.0,0.0,0.0,0.0,0.0,0.0,0.0,0.0,0.0,0.0,-1.7792,-2.0062,-2.2543,-2.4293,-2.512,-2.4697,-2.3505,-2.1886,-1.974,-1.6858,0.0,0.0,0.0,0.0,0.0,0.0,0.0,0.0,0.0,0.0,0.0,0.0,0.0,0.0,0.0,0.0,0.0,0.0,0.0,0.0,0.0,0.0,0.0,0.0,0.0,0.0,0.0,0.0,0.0,0.0,0.0,0.0,0.0,0.0,0.0,0.0,0.0,0.0,0.0,0.0,0.0,0.0,0.0,0.0,0.0,0.0,0.0,0.0,0.0,0.0,0.0,0.0,0.0,0.0,0.0,0.0,0.0,0.0,0.0,0.0,0.0,0.0,0.0,0.0,0.0,0.0,0.0,0.0,0.0,0.0,0.0,0.0,0.0,0.0,0.0,0.0,0.0,0.0,0.0,0.0,0.0,0.0,0.0,0.0,0.0,0.0,0.0,0.0,0.0,0.0,0.0,0.0,0.0,0.0,0.0,0.0,0.0,0.0,0.0,0.0,0.0,0.0,-1.9561,-2.1389,-2.2658,-2.4293,-2.4966,-2.4168,-2.3109,-2.1501,-1.9162,-1.6422,0.0,0.0,0.0,0.0,0.0,0.0,0.0,0.0,0.0,0.0,0.0,0.0,0.0,0.0,0.0,0.0,0.0,0.0,0.0,0.0,0.0,0.0,0.0,0.0,0.0,0.0,0.0,0.0,0.0,0.0,0.0,0.0,0.0,0.0,0.0,0.0,0.0,0.0,0.0,0.0,0.0,0.0,0.0,0.0,0.0,0.0,0.0,0.0,0.0,0.0,0.0,0.0,0.0,0.0,0.0,0.0,0.0,0.0,0.0,0.0,0.0,0.0,0.0,0.0,0.0,0.0,0.0,0.0,0.0,0.0,0.0,0.0,0.0,0.0,0.0,0.0,0.0,0.0,0.0,0.0,0.0,0.0,0.0,0.0,0.0,0.0,0.0,0.0,0.0,0.0,0.0,0.0,0.0,0.0,0.0,0.0,0.0,0.0,0.0,0.0,0.0,0.0,-2.0581,-2.2658,-2.2793,-2.4293,-2.4966,-2.4168,-2.2562,-2.0839,-1.9104,-1.5912,0.0,0.0,0.0,0.0,0.0,0.0,0.0,0.0,0.0,0.0,0.0,0.0,0.0,0.0,0.0,0.0,0.0,0.0,0.0,0.0,0.0,0.0,0.0,0.0,0.0,0.0,0.0,0.0,0.0,0.0,0.0,0.0,0.0,0.0,0.0,0.0,0.0,0.0,0.0,0.0,0.0,0.0,0.0,0.0,0.0,0.0,0.0,0.0,0.0,0.0,0.0,0.0,0.0,0.0,0.0,0.0,0.0,0.0,0.0,0.0,0.0,0.0,0.0,0.0,0.0,0.0,0.0,0.0,0.0,0.0,0.0,0.0,0.0,0.0,0.0,0.0,0.0,0.0,0.0,0.0,0.0,0.0,0.0,0.0,0.0,0.0,0.0,0.0,0.0,0.0,0.0,0.0,0.0,0.0,0.0,0.0,0.0,0.0,0.0,0.0,0.0,0.0,-2.0215,-2.2197,0.0,-2.4293,-2.4755,-2.3398,-2.2677,-2.1155,-1.8429,0.0,0.0,0.0,0.0,0.0,0.0,0.0,0.0,0.0,0.0,0.0,0.0,0.0,0.0,0.0,0.0,0.0,0.0,0.0,0.0,0.0,0.0,0.0,0.0,0.0,0.0,0.0,0.0,0.0,0.0,0.0,0.0,0.0,0.0,0.0,0.0,0.0,0.0,0.0,0.0,0.0,0.0,0.0,0.0,0.0,0.0,0.0,0.0,0.0,0.0,0.0,0.0,0.0,0.0,0.0,0.0,0.0,0.0,0.0,0.0,0.0,0.0,0.0,0.0,0.0,0.0,0.0,0.0,0.0,0.0,0.0,0.0,0.0,0.0,0.0,0.0,0.0,0.0,0.0,0.0,0.0,0.0,0.0,0.0,0.0,0.0,0.0,0.0,0.0,0.0,0.0,0.0,0.0,0.0,0.0,0.0,0.0,0.0,0.0,0.0,0.0,0.0,-1.7407,-2.0177,-2.2139,0.0,-2.4293,-2.462,-2.2947,-2.2543,-2.1066,-1.7991,0.0,0.0,0.0,0.0,0.0,0.0,0.0,0.0,0.0,0.0,0.0,0.0,0.0,0.0,0.0,0.0,0.0,0.0,0.0,0.0,0.0,0.0,0.0,0.0,0.0,0.0,0.0,0.0,0.0,0.0,0.0,0.0,0.0,0.0,0.0,0.0,0.0,0.0,0.0,0.0,0.0,0.0,0.0,0.0,0.0,0.0,0.0,0.0,0.0,0.0,0.0,0.0,0.0,0.0,0.0,0.0,0.0,0.0,0.0,0.0,0.0,0.0,0.0,0.0,0.0,0.0,0.0,0.0,0.0,0.0,0.0,0.0,0.0,0.0,0.0,0.0,0.0,0.0,0.0,0.0,0.0,0.0,0.0,0.0,0.0,0.0,0.0,0.0,0.0,0.0,0.0,0.0,0.0,0.0,0.0,0.0,0.0,0.0,0.0,0.0,0.0,0.0,-1.7484,-2.0677,-2.2793,-2.2793,-2.4312,-2.4639,-2.2966,-2.2023,-2.0469,0.0,0.0,0.0,0.0,0.0,0.0,0.0,0.0,0.0,0.0,0.0,0.0,0.0,0.0,0.0,0.0,0.0,0.0,0.0,0.0,0.0,0.0,0.0,0.0,0.0,0.0,0.0,0.0,0.0,0.0,0.0,0.0,0.0,0.0,0.0,0.0,0.0,0.0,0.0,0.0,0.0,0.0,0.0,0.0,0.0,0.0,0.0,0.0,0.0,0.0,0.0,0.0,0.0,0.0,0.0,0.0,0.0,0.0,0.0,0.0,0.0,0.0,0.0,0.0,0.0,0.0,0.0,0.0,0.0,0.0,0.0,0.0,0.0,0.0,0.0,0.0,0.0,0.0,0.0,0.0,0.0,0.0,0.0,0.0,0.0,0.0,0.0,0.0,0.0,0.0,0.0,0.0,0.0,0.0,0.0,0.0,0.0,0.0,0.0,0.0,0.0,0.0,0.0,-1.7483,-2.0691,-2.2794,-2.2794,-2.4303,-2.487,-2.3821,-2.2908,-2.1355,-1.8873,0.0,0.0,0.0,0.0,0.0,0.0,0.0,0.0,0.0,0.0,0.0,0.0,0.0,0.0,0.0,0.0,0.0,0.0,0.0,0.0,0.0,0.0,0.0,0.0,0.0,0.0,0.0,0.0,0.0,0.0,0.0,0.0,0.0,0.0,0.0,0.0,0.0,0.0,0.0,0.0,0.0,0.0,0.0,0.0,0.0,0.0,0.0,0.0,0.0,0.0,0.0,0.0,0.0,0.0,0.0,0.0,0.0,0.0,0.0,0.0,0.0,0.0,0.0,0.0,0.0,0.0,0.0,0.0,0.0,0.0,0.0,0.0,0.0,0.0,0.0,0.0,0.0,0.0,0.0,0.0,0.0,0.0,0.0,0.0,0.0,0.0,0.0,0.0,0.0,0.0,0.0,0.0,0.0,0.0,0.0,0.0,0.0,0.0,0.0,0.0,0.0,0.0,-1.7926,-2.0868,-2.2882,-2.3208,-2.4455,-2.4926,-2.412,-2.3284,-2.1743,-1.9252,0.0,0.0,0.0,0.0,0.0,0.0,0.0,0.0,0.0,0.0,0.0,0.0,0.0,0.0,0.0,0.0,0.0,0.0,0.0,0.0,0.0,0.0,0.0,0.0,0.0,0.0,0.0,0.0,0.0,0.0,0.0,0.0,0.0,0.0,0.0,0.0,0.0,0.0,0.0,0.0,0.0,0.0,0.0,0.0,0.0,0.0,0.0,0.0,0.0,0.0,0.0,0.0,0.0,0.0,0.0,0.0,0.0,0.0,0.0,0.0,0.0,0.0,0.0,0.0,0.0,0.0,0.0,0.0,0.0,0.0,0.0,0.0,0.0,0.0,0.0,0.0,0.0,0.0,0.0,0.0,0.0,0.0,0.0,0.0,0.0,0.0,0.0,0.0,0.0,0.0,0.0,0.0,0.0,0.0,0.0,0.0,0.0,0.0,0.0,0.0,0.0,0.0,-1.8587,-2.112,-2.2995,-2.3788,-2.4678,-2.4903,-2.4158,-2.3314,-2.1812,-1.9484,0.0,0.0,0.0,0.0,0.0,0.0,0.0,0.0,0.0,0.0,0.0,0.0,0.0,0.0,0.0,0.0,0.0,0.0,0.0,0.0,0.0,0.0,0.0,0.0,0.0,0.0,0.0,0.0,0.0,0.0,0.0,0.0,0.0,0.0,0.0,0.0,0.0,0.0,0.0,0.0,0.0,0.0,0.0,0.0,0.0,0.0,0.0,0.0,0.0,0.0,0.0,0.0,0.0,0.0,0.0,0.0,0.0,0.0,0.0,0.0,-1.5466,0.0,0.0,0.0,0.0,0.0,0.0,0.0,0.0,0.0,0.0,0.0,0.0,0.0,0.0,0.0,0.0,0.0,0.0,0.0,0.0,0.0,0.0,0.0,0.0,0.0,0.0,0.0,0.0,0.0,0.0,0.0,0.0,0.0,0.0,0.0,0.0,0.0,0.0,0.0,0.0,0.0,-1.8592,-2.1003,-2.286,-2.3717,-2.4598,-2.5065,-2.4943,-2.3631,-2.2303,-2.1128,-1.819,0.0,0.0,0.0,0.0,0.0,0.0,0.0,0.0,0.0,0.0,0.0,0.0,0.0,0.0,0.0,0.0,0.0,0.0,0.0,0.0,0.0,0.0,0.0,0.0,0.0,0.0,0.0,0.0,0.0,0.0,0.0,0.0,0.0,0.0,0.0,0.0,0.0,0.0,0.0,0.0,0.0,0.0,0.0,0.0,0.0,0.0,0.0,0.0,0.0,0.0,0.0,0.0,0.0,0.0,0.0,0.0,0.0,0.0,0.0,0.0,-1.6231,0.0,0.0,0.0,0.0,0.0,0.0,0.0,0.0,0.0,0.0,0.0,0.0,0.0,0.0,0.0,0.0,0.0,0.0,0.0,0.0,0.0,0.0,0.0,0.0,0.0,0.0,0.0,0.0,0.0,0.0,0.0,0.0,0.0,0.0,0.0,0.0,0.0,0.0,0.0,0.0,-1.9595,-2.1377,-2.2893,-2.4163,-2.4695,-2.505,-2.5149,-2.4061,-2.2862,-2.1687,-1.9581,0.0,0.0,0.0,0.0,0.0,0.0,0.0,0.0,0.0,0.0,0.0,0.0,0.0,0.0,0.0,0.0,0.0,0.0,0.0,0.0,0.0,0.0,0.0,0.0,0.0,0.0,0.0,0.0,0.0,0.0,0.0,0.0,0.0,0.0,0.0,0.0,0.0,0.0,0.0,0.0,0.0,0.0,0.0,0.0,0.0,0.0,0.0,0.0,0.0,0.0,0.0,0.0,0.0,-2.0603,-2.0599,-2.0728,-2.133,-2.1679,-2.1685,-1.959,-1.8842,-1.8958,-1.7363,0.0,0.0,0.0,0.0,0.0,0.0,0.0,0.0,0.0,0.0,0.0,0.0,0.0,0.0,0.0,0.0,0.0,0.0,0.0,0.0,0.0,0.0,0.0,0.0,-1.981,-1.9273,-1.7267,0.0,0.0,0.0,0.0,0.0,0.0,0.0,0.0,0.0,0.0,0.0,-2.0722,-2.1921,-2.3069,-2.4628,-2.4832,-2.4942,-2.5091,-2.4402,-2.3439,-2.213,-2.1145,-1.9616,0.0,0.0,0.0,0.0,0.0,0.0,0.0,0.0,0.0,0.0,0.0,0.0,0.0,0.0,0.0,0.0,0.0,0.0,0.0,0.0,0.0,0.0,0.0,0.0,0.0,0.0,0.0,0.0,0.0,0.0,0.0,0.0,-1.0318,-1.2006,0.0,0.0,0.0,0.0,0.0,0.0,0.0,0.0,0.0,0.0,0.0,0.0,0.0,-1.9966,-2.0999,-2.0891,-2.16,-2.3133,-2.3054,-2.3318,-2.391,-2.3987,-2.4402,-2.4947,-2.3872,0.0,-2.0532,-1.9561,0.0,0.0,0.0,0.0,0.0,0.0,0.0,0.0,0.0,0.0,0.0,0.0,0.0,0.0,0.0,0.0,0.0,0.0,0.0,0.0,0.0,0.0,-2.0478,-2.1288,-2.1438,-2.1329,0.0,-1.9365,-1.7853,-1.7694,-1.6484,0.0,0.0,0.0,0.0,0.0,0.0,0.0,-2.087,-2.2337,-2.3645,-2.4595,-2.4764,-2.4893,-2.5082,-2.4369,-2.386,-2.3788,-2.2303,-2.0997,-2.0029,-1.8436,0.0,0.0,0.0,0.0,0.0,0.0,0.0,0.0,0.0,0.0,0.0,0.0,0.0,0.0,0.0,0.0,0.0,0.0,0.0,0.0,0.0,0.0,0.0,0.0,0.0,0.0,0.0,0.0,0.0,-1.0738,-1.2603,-1.3341,-1.3835,-1.4134,0.0,0.0,0.0,0.0,0.0,0.0,0.0,0.0,0.0,-2.0637,-2.1343,-2.2524,-2.4251,-2.411,-2.4561,-2.5578,-2.5466,-2.5536,-2.5783,-2.5746,-2.5912,-2.6206,-2.5816,-2.5078,-2.4004,-2.2282,-2.0803,-1.9567,0.0,0.0,0.0,0.0,-1.9383,-1.974,-2.0185,-2.0544,-2.0714,-1.9882,0.0,0.0,0.0,0.0,0.0,0.0,0.0,0.0,0.0,0.0,-2.2758,-2.3583,-2.3766,-2.3657,-2.3235,-2.195,-2.0641,0.0,-1.8996,-1.8232,-1.7386,0.0,0.0,0.0,0.0,-2.0765,-2.2024,-2.2821,-2.3617,-2.4484,-2.4719,-2.4879,-2.5025,-2.479,-2.4475,-2.4124,-2.345,-2.2708,-2.1939,-2.0273,-1.88,0.0,0.0,0.0,0.0,0.0,0.0,0.0,0.0,0.0,0.0,0.0,0.0,0.0,0.0,0.0,0.0,0.0,0.0,0.0,0.0,0.0,0.0,0.0,0.0,0.0,0.0,0.0,0.0,-1.2997,-1.4483,-1.4927,-1.549,-1.5978,0.0,0.0,0.0,0.0,0.0,0.0,-2.002,-2.1094,-2.2358,-2.3813,-2.3975,-2.4905,-2.6664,-2.6517,-2.677,-2.738,-2.7252,-2.7248,-2.7389,-2.7348,-2.7288,-2.7285,-2.7301,-2.7169,-2.6822,-2.4616,-2.2958,-2.1799,-2.1596,-2.1189,-2.0781,-2.1369,-2.1738,-2.198,-2.2587,-2.292,-2.2958,-2.2093,-2.1688,-2.1377,-2.0841,0.0,0.0,0.0,0.0,-2.2044,-2.4065,-2.4634,-2.4821,-2.5445,-2.5633,-2.5509,-2.4942,-2.4317,-2.3364,0.0,-2.105,-2.0549,-1.939,0.0,0.0,0.0,0.0,-2.1747,-2.2952,-2.3338,-2.3776,-2.4456,-2.4689,-2.4865,-2.5025,-2.5134,-2.4985,-2.4471,-2.4501,-2.4174,-2.3376,-2.1951,-2.067,-1.9644,0.0,0.0,0.0,0.0,0.0,0.0,0.0,0.0,0.0,0.0,0.0,0.0,0.0,0.0,0.0,0.0,0.0,0.0,0.0,0.0,0.0,0.0,0.0,0.0,0.0,0.0,0.0,0.0,0.0,-1.7426,-1.7639,0.0,0.0,0.0,0.0,-2.0134,-2.0953,-2.1796,-2.2666,-2.4262,-2.5532,-2.6399,-2.7094,-2.7447,-2.7428,-2.7258,-2.7489,-2.8145,-2.8009,-2.8313,-2.8979,-2.8979,-2.8956,-2.8888,-2.8888,-2.8448,-2.7603,-2.5972,-2.5237,-2.509,-2.4337,-2.3988,-2.3969,-2.4025,-2.4521,-2.5164,-2.5201,-2.5733,-2.6227,-2.5421,-2.4592,-2.393,-2.3894,-2.3777,0.0,0.0,-2.4831,-2.499,-2.5946,-2.6204,-2.6227,-2.6414,-2.6374,-2.6374,-2.6463,-2.6405,-2.5651,0.0,-2.2263,-2.1728,-2.1633,0.0,-2.1705,-2.1775,-2.2458,-2.3011,-2.3085,-2.384,-2.4409,-2.4582,-2.4711,-2.4875,-2.5088,-2.5153,-2.5241,-2.5331,-2.5398,-2.5066,-2.4273,-2.3412,-2.2205,-2.0562,-1.7968,0.0,0.0,0.0,0.0,0.0,0.0,0.0,0.0,0.0,0.0,0.0,0.0,0.0,0.0,0.0,0.0,0.0,0.0,0.0,0.0,0.0,0.0,0.0,0.0,0.0,0.0,0.0,0.0,-1.9335,-2.0354,0.0,-2.1429,-2.1968,-2.2458,-2.2752,-2.4083,-2.5001,-2.5272,-2.6391,-2.7613,-2.8941,-2.9143,-2.9708,-3.0641,-3.0396,-3.0353,-3.0439,-3.0327,-3.036,-3.0588,-3.0588,-3.0564,-3.054,-3.054,-3.0375,-3.0063,-2.9517,-2.8026,-2.6135,-2.586,-2.575,-2.575,-2.575,-2.5933,-2.6172,-2.6172,-2.6355,-2.6557,-2.6264,-2.5928,-2.5628,-2.5524,-2.5415,-2.5375,-2.5577,-2.5554,-2.5727,-2.659,-2.6886,-2.6982,-2.7118,-2.7187,-2.7108,-2.6683,-2.6573,-2.6334,-2.5472,-2.5089,-2.4557,-2.3511,-2.3768,-2.3768,-2.2757,-2.329,-2.3805,-2.3824,-2.4155,-2.4466,-2.459,-2.4757,-2.494,-2.5101,-2.5198,-2.5303,-2.5395,-2.5456,-2.5137,-2.4336,-2.3536,-2.2588,-2.1452,-1.9412,-1.7675,0.0,0.0,0.0,0.0,0.0,0.0,0.0,0.0,0.0,0.0,0.0,0.0,0.0,0.0,0.0,0.0,0.0,0.0,0.0,0.0,0.0,0.0,0.0,0.0,0.0,0.0,-2.0511,-2.1074,-2.2387,-2.334,-2.3619,-2.4427,-2.5062,-2.5351,-2.6449,-2.7335,-2.7853,-2.8431,-2.9475,-3.1085,-3.1016,-3.1401,-3.2353,-3.2125,-3.1915,-3.1691,-3.1573,-3.1501,-3.1434,-3.1434,-3.1409,-3.1384,-3.1384,-3.1384,-3.1384,-3.1384,-3.0136,-2.8227,-2.8227,-2.8227,-2.8191,-2.7915,-2.7824,-2.7787,-2.7512,-2.742,-2.742,-2.742,-2.7358,-2.7291,-2.7177,-2.7019,-2.6873,-2.6749,-2.6647,-2.6764,-2.7342,-2.7589,-2.7716,-2.7907,-2.8002,-2.7949,-2.7508,-2.742,-2.742,-2.742,-2.6979,-2.6264,-2.5199,-2.5438,-2.5438,-2.4392,-2.4466,-2.4632,-2.4653,-2.4505,-2.45,-2.4657,-2.4832,-2.4987,-2.5118,-2.5241,-2.5322,-2.541,-2.5466,-2.5271,-2.4754,-2.3685,-2.2854,-2.2325,-2.033,-1.8437,-1.6697,0.0,0.0,0.0,0.0,0.0,0.0,0.0,0.0,0.0,0.0,0.0,0.0,0.0,0.0,0.0,0.0,0.0,0.0,0.0,0.0,0.0,0.0,0.0,-1.9142,-1.9902,-2.107,-2.2692,-2.3676,-2.4524,-2.5303,-2.6178,-2.7044,-2.7909,-2.8005,-2.8736,-3.0379,-3.0475,-3.12,-3.2785,-3.2711,-3.2549,-3.2374,-3.2195,-3.1983,-3.1765,-3.17,-3.1653,-3.1581,-3.1581,-3.1532,-3.1476,-3.1476,-3.1458,-3.1458,-3.1458,-3.1458,-3.1458,-3.1403,-3.1384,-3.1311,-3.0522,-3.0246,-3.0136,-2.9342,-2.9067,-2.9067,-2.9067,-2.9025,-2.8955,-2.8883,-2.8735,-2.8557,-2.8425,-2.8335,-2.8281,-2.8327,-2.8389,-2.8495,-2.8755,-2.8785,-2.8834,-2.897,-2.8994,-2.8994,-2.8994,-2.775,-2.6667,-2.6649,-2.6649,-2.6631,-2.6612,-2.5974,0.0,-2.5522,-2.4929,-2.4615,-2.4791,-2.4931,-2.5057,-2.5187,-2.5262,-2.5331,-2.5406,-2.5467,-2.5521,-2.5556,-2.4007,-2.3129,-2.3109,-2.0642,-1.8555,-1.6855,0.0,0.0,0.0,0.0,0.0,0.0,0.0,0.0,0.0,0.0,0.0,0.0,0.0,0.0,0.0,0.0,0.0,0.0,0.0,0.0,0.0,0.0,-2.0696,-2.0062,-2.2304,-2.4147,-2.4553,-2.5938,-2.6928,-2.7159,-2.7928,-2.8775,-2.966,-3.0294,-3.1102,-3.216,-3.2218,-3.2679,-3.3705,-3.3624,-3.3726,-3.4112,-3.3907,-3.3732,-3.3576,-3.3456,-3.3408,-3.3383,-3.3283,-3.3232,-3.3206,-3.3154,-3.3128,-3.3128,-3.3128,-3.3128,-3.3018,-3.1843,-3.1384,-3.1366,-3.1146,-3.1072,-3.1035,-3.0815,-3.0742,-3.0742,-3.0742,-3.0674,-3.0618,-3.0516,-3.0341,-3.0225,-3.0076,-2.9991,-2.9808,-2.9303,-2.9269,-2.9232,-2.8814,-2.881,-2.8905,-2.8994,-2.8994,-2.8994,-2.8994,-2.8627,-2.8154,-2.7567,-2.7475,-2.7273,-2.6686,-2.6473,0.0,-2.5634,-2.5533,-2.5371,-2.4979,-2.5032,-2.5134,-2.5262,-2.5331,-2.5393,-2.5468,-2.5543,-2.5323,-2.4752,-2.4295,-2.3745,-2.3104,-2.1836,-2.0957,0.0,0.0,0.0,0.0,0.0,0.0,0.0,0.0,0.0,0.0,0.0,0.0,0.0,0.0,0.0,0.0,0.0,0.0,0.0,0.0,0.0,0.0,-2.2043,-2.3101,-2.2908,-2.4322,-2.5611,-2.6313,-2.7582,-2.8544,-2.8909,-2.9698,-3.0544,-3.1391,-3.1929,-3.2564,-3.3391,-3.3417,-3.3761,-3.4587,-3.4467,-3.4715,-3.5381,-3.5197,-3.5233,-3.5479,-3.503,-3.4766,-3.4717,-3.4215,-3.3947,-3.3895,-3.3815,-3.3807,-3.3807,-3.3807,-3.3807,0.0,0.0,0.0,0.0,0.0,-3.1678,-3.1384,-3.1384,-3.1384,-3.1384,-3.1384,-3.1359,-3.1327,-3.1224,-3.1101,-3.0994,-3.0874,-3.079,-3.0653,-3.0242,-3.0216,-3.0124,-2.9435,-2.9351,-2.9331,-2.9067,-2.8994,-2.8994,-2.8994,-2.8994,0.0,-2.8374,-2.8301,-2.8154,-2.7714,-2.7414,-2.7112,-2.6785,-2.6291,-2.5876,-2.5587,-2.5304,-2.519,-2.5303,-2.5359,0.0,0.0,0.0,-2.5231,-2.4422,-2.4407,0.0,0.0,0.0,0.0,0.0,0.0,0.0,0.0,-1.9569,-1.9875,0.0,0.0,0.0,0.0,0.0,0.0,0.0,0.0,0.0,0.0,0.0,0.0,0.0,0.0,0.0,0.0,-2.4436,-2.5857,-2.6683,-2.6167,-2.6294,-2.7852,-2.8832,-2.9698,-3.0467,-3.1333,-3.2179,-3.2987,-3.3045,-3.343,-3.4295,0.0,0.0,0.0,0.0,-3.5608,-3.6349,-3.617,-3.6421,-3.713,-3.6325,-3.5876,-3.572,-3.4785,-3.4301,-3.4189,-3.4109,-3.4027,-3.3935,-3.3935,-3.388,-3.3807,-3.3807,-3.3807,-3.3715,-3.2999,-3.2284,-3.1659,-3.1659,0.0,0.0,-3.1659,-3.1659,-3.1659,-3.1583,-3.1532,-3.1454,-3.1347,-3.1275,-3.1257,-3.1166,-3.122,-3.1099,-3.0399,-3.0174,-2.9917,-2.9269,-2.9049,-2.8994,-2.8994,-2.8994,-2.8994,-2.8994,-2.8994,-2.9035,-2.909,-2.8566,-2.8174,-2.8292,-2.7169,-2.637,-2.6338,0.0,0.0,-2.5303,-2.5367,-2.5441,-2.5493,-2.5561,-2.5288,-2.4586,-2.455,-2.418,-2.3418,-2.3457,-2.3477,-2.3477,-2.3418,-2.3477,-2.3613,-2.2637,-2.2206,0.0,0.0,0.0,0.0,0.0,0.0,0.0,0.0,0.0,0.0,0.0,0.0,0.0,0.0,0.0,-2.4545,-2.617,-2.7624,-2.848,-2.8464,-2.8486,-2.8832,-3.0256,-3.1256,-3.1429,-3.2199,-3.3026,-3.3872,-3.3949,-3.4334,-3.5199,-3.5177,-3.5532,-3.6312,-3.6274,-3.6592,-3.7319,-3.7183,-3.7196,-3.7343,0.0,0.0,-3.6718,-3.6303,-3.6065,-3.6002,-3.5864,-3.5422,-3.4752,-3.4752,-3.4394,-3.3807,-3.3807,-3.3807,-3.377,-3.3623,-3.3476,-3.333,-3.333,-3.333,-3.333,-3.333,-3.333,-3.333,-3.3268,-3.3241,0.0,-3.3131,-3.3103,-3.2958,-3.2302,-3.2192,-3.2017,-3.1247,-3.0619,-3.0131,-3.0008,-2.9475,-2.8994,-2.8994,-2.8994,-2.8994,-2.8994,-2.8994,-2.9017,-2.9085,-2.9074,-2.8888,-2.8446,-2.8231,-2.7698,-2.6586,-2.637,-2.6071,-2.5418,-2.5451,-2.5495,-2.5499,-2.5609,-2.5601,-2.5465,-2.5449,-2.5371,-2.5195,-2.5215,-2.5215,-2.5215,-2.5195,-2.5566,-2.623,-2.4648,-2.4297,0.0,0.0,0.0,0.0,0.0,0.0,0.0,0.0,0.0,0.0,0.0,-2.0074,-2.2596,0.0,-2.5018,-2.6715,-2.7797,-2.8701,-2.9589,-3.0086,-3.0237,-2.9794,-3.091,-3.1852,-3.2256,-3.3064,-3.391,-3.4795,-3.4853,-3.5032,-3.5441,-3.5801,-3.6174,-3.653,-3.6873,-3.7413,-3.8194,-3.8096,-3.8241,-3.8593,-3.8026,-3.7681,-3.7517,-3.6898,-3.6564,-3.6454,-3.6342,-3.6046,-3.5661,-3.5661,-3.5432,-3.5092,-3.5092,-3.4595,-3.3842,-3.3895,-3.3868,-3.3842,-3.3895,-3.386,-3.3807,-3.3842,-3.3834,-3.3788,-3.3753,-3.3753,-3.3753,-3.3698,-3.3698,-3.3607,-3.3186,-3.3121,-3.2947,-3.214,-3.1671,-3.1292,-3.0889,-3.0173,-2.9604,-2.9604,-2.9292,-2.9017,-2.904,-2.9085,-2.913,-2.9193,-2.931,-2.9325,-2.9132,-2.8875,-2.8469,-2.7816,-2.7428,-2.7052,-2.668,-2.6334,-2.5971,-2.5571,-2.5648,-2.5703,-2.5699,-2.5703,-2.5918,-2.6348,-2.6348,-2.6562,-2.6992,-2.6992,-2.7226,-2.7637,-2.6758,-2.6582,0.0,0.0,0.0,0.0,0.0,0.0,0.0,0.0,-1.9785,-2.1293,-2.1826,-2.2684,-2.4859,-2.5504,-2.6384,-2.846,-2.9183,-2.9736,-3.0446,-3.1354,-3.1679,-3.0968,-3.166,-3.2449,-3.3083,-3.393,-3.4737,-3.5449,-3.5493,-3.5551,-3.5643,-3.6247,-3.6719,-3.6977,-3.7563,-3.8233,-3.9031,-3.8988,-3.9226,-3.9762,-3.8987,-3.8501,-3.8264,-3.744,-3.6971,-3.6859,-3.6626,-3.6523,-3.6505,-3.6358,-3.6313,-3.637,-3.6398,-3.5597,-3.4381,-3.4286,-3.4094,-3.3895,-3.3972,-3.3895,-3.3807,-3.3868,-3.3842,-3.3807,-3.3807,-3.3807,-3.3807,-3.3807,-3.3807,-3.3807,-3.3807,-3.3807,-3.3642,-3.2999,-3.2724,-3.243,-3.177,-3.0999,-3.043,-3.043,-2.9787,-2.926,-2.9329,-2.9289,-2.9262,-2.9302,-2.9431,-2.9589,-2.9815,-2.9395,-2.906,-2.9028,-2.8437,-2.8025,-2.7942,-2.7392,-2.6773,-2.6158,-2.6169,-2.621,-2.6208,-2.6211,-2.6543,-2.7246,-2.7246,-2.7598,-2.8301,-2.8301,-2.8398,-2.8555,-2.8555,-2.8555,-1.6342,-1.7035,-1.7775,-1.8043,-1.9191,-2.0294,0.0,0.0,-2.3002,-2.3915,-2.4765,-2.5672,-2.6735,-2.7622,-2.832,-2.8734,-3.0157,-3.1287,-3.1424,-3.2218,-3.2737,-3.2622,-3.3391,-3.3949,-3.4045,-3.4834,-3.5411,-3.5474,-3.5493,-3.5801,-3.6512,-3.6588,-3.7255,-3.8663,-3.8727,-3.9108,-3.9844,-3.98,-3.975,-3.9717,-3.9432,-3.9219,-3.908,-3.8785,-3.8604,-3.8479,-3.772,-3.7349,-3.7294,-3.6578,-3.6285,-3.6313,-3.6454,-3.6371,-3.6113,-3.542,-3.4637,-3.3895,-3.3895,-3.3868,-3.3807,-3.3807,-3.3807,-3.3807,-3.3807,-3.3807,-3.3807,-3.3807,-3.3807,-3.3807,-3.3807,-3.3807,-3.377,-3.3697,-3.3128,-3.2596,-3.2504,-3.1825,-3.1256,-3.1256,-3.0662,-3.018,-3.0245,-2.9768,-2.9372,-2.9392,-2.9513,-2.9681,-2.9937,-3.0022,-2.9792,-2.9166,-2.9002,-2.8692,-2.8029,-2.797,-2.7938,-2.7902,-2.7963,-2.8008,-2.8004,-2.8007,-2.8047,-2.8144,-2.8144,-2.8203,-2.8301,-2.8301,-2.8691,-2.9453,-2.9453,-2.9453,-1.8242,-1.9563,-2.0626,-2.0658,-2.1558,-2.2539,-2.2978,-2.3958,-2.5026,-2.585,-2.6317,-2.6839,-2.7643,-2.8198,-2.8881,0.0,-3.086,-3.1637,-3.2229,-3.3083,-3.366,-3.366,-3.443,-3.4757,-3.4237,-3.4988,-3.5493,-3.5493,-3.593,-3.6358,-3.669,-3.7552,-3.835,-3.8972,-3.9357,-3.9656,-3.987,-3.9781,-3.9623,-3.9477,-3.9324,-3.9183,-3.9036,-3.8892,-3.8792,-3.8732,-3.837,-3.8193,-3.8175,-3.7845,-3.7709,-3.7768,-3.7827,-3.7589,-3.7119,-3.6342,-3.5798,-3.5403,-3.5403,-3.5009,-3.4504,-3.4595,-3.4238,-3.3807,-3.3807,-3.3807,-3.3807,-3.3807,-3.3807,-3.3807,-3.3807,-3.3807,-3.3807,-3.3807,-3.3532,-3.3311,-3.3311,-3.2676,-3.2107,-3.21,-3.1507,-3.1046,-3.1191,-3.0658,-3.028,-3.0415,-3.0054,-2.9855,-3.0034,-3.0185,-3.0164,-2.9894,-2.986,-2.9539,-2.8753,-2.8767,-2.863,-2.8228,-2.8232,-2.8262,-2.8297,-2.83,-2.8535,-2.9043,-2.9062,-2.9316,-2.9805,-2.9805,-3.0,-3.0351,-3.0351,-3.0351,-1.9862,-2.1606,-2.3063,-2.3069,-2.3882,-2.4799,-2.5322,-2.607,-2.681,-2.7341,-2.7642,-2.7942,-2.8483,-2.8726,-2.9339,-3.0877,-3.1492,-3.2101,-3.302,-3.3967,-3.4564,-3.4564,-3.5122,-3.5257,-3.4622,-3.5141,-3.5493,-3.5493,-3.6257,-3.6801,-3.704,-3.8358,-3.9157,-3.9336,-3.9735,-3.9892,-3.9758,-3.9599,-3.9427,-3.9245,-3.9156,-3.9036,-3.8881,-3.8792,-3.875,-3.8707,-3.8707,-3.8707,-3.8707,-3.8707,-3.8719,-3.8762,-3.8792,-3.8453,-3.794,-3.7405,-3.6897,-3.6482,-3.6482,-3.5993,-3.533,-3.5202,-3.4679,-3.41,-3.3862,-3.3807,-3.3807,-3.3807,-3.3807,-3.3807,-3.3807,-3.3807,-3.3807,-3.3807,-3.3807,-3.3807,-3.3807,-3.3338,-3.2934,-3.2952,-3.2378,-3.1948,-3.2162,-3.1645,-3.1299,-3.1552,-3.0896,-3.0331,-3.0176,-3.0253,-3.0349,-3.0398,-3.0398,-3.0163,-2.9612,-2.962,-2.945,-2.8924,-2.8911,-2.8942,-2.9,-2.9023,-2.9316,-2.9941,-2.9961,-3.0273,-3.0898,-3.0898,-3.0898,-3.0898,-3.0898,-3.0898,-2.124,-2.3088,-2.5024,-2.5024,-2.6205,-2.7381,-2.7319,-2.7944,-2.8489,-2.8385,-2.8989,-2.9513,-2.9551,-2.9608,-2.9998,-3.1042,-3.2022,-3.3,-3.3935,-3.487,-3.5468,-3.5468,-3.5474,-3.5474,0.0,-3.5474,-3.5493,-3.5493,-3.6257,-3.7065,-3.793,-3.8681,-3.9425,-4.0138,-4.0,-3.9826,-3.9599,-3.9401,-3.9245,-3.9101,-3.8979,-3.8862,-3.8792,-3.8719,-3.8707,-3.8707,-3.8707,-3.8707,-3.8707,-3.8707,-3.8707,-3.8707,-3.8762,-3.8773,-3.8737,-3.8748,-3.7724,-3.6398,-3.6398,-3.6323,-3.6119,-3.5293,-3.4972,-3.4807,-3.4045,-3.3807,-3.3807,-3.3807,-3.3807,-3.3807,-3.3807,-3.3807,-3.3807,-3.3807,-3.3807,-3.3807,-3.3807,-3.377,-3.3778,-3.3831,-3.3315,-3.2929,-3.3119,-3.2654,-3.233,-3.2518,-3.1986,-3.1251,-3.0407,-3.0343,-3.0398,-3.0398,-3.0398,-3.0414,-3.046,-3.0519,-3.0583,-3.0619,-3.0696,-3.0755,-3.0816,-3.082,-3.082,-3.0859,-3.0859,-3.0879,-3.0898,-3.0898,-3.0898,-3.0898,-3.0898,-3.0898,-2.2959,-2.453,-2.6033,-2.6037,-2.7275,-2.8477,-2.8403,-2.9011,-2.939,-2.869,-2.87,-2.8855,-2.882,-2.889,-2.9633,-3.1667,-3.2435,-3.3259,-3.4687,-3.524,-3.5493,-3.5493,-3.5493,0.0,0.0,0.0,0.0,-3.6257,-3.7084,-3.7916,-3.875,-3.9495,-3.9965,-4.0118,-3.9892,-3.9647,-3.9401,-3.9245,-3.9073,-3.8892,-3.8792,-3.875,-3.8719,-3.8707,-3.8707,-3.8707,-3.8707,-3.8707,-3.8707,-3.8707,-3.8707,-3.8707,-3.8719,-3.8719,-3.8719,-3.8719,-3.8389,-3.793,-3.793,-3.7562,-3.7037,-3.6743,-3.6303,-3.5716,-3.4844,-3.4605,-3.4486,-3.3954,-3.3807,-3.3807,-3.3807,-3.3807,-3.3807,-3.3807,-3.3807,-3.3815,-3.386,-3.3868,-3.3902,-3.4023,-3.3918,-3.39,-3.4151,-3.3658,-3.3118,-3.2838,-3.2108,-3.1303,-3.047,-3.0386,-3.0398,-3.0398,-3.0402,-3.0428,-3.05,-3.0558,-3.063,-3.0695,-3.076,-3.082,-3.0894,-3.0898,-3.0898,-3.0898,-3.0898,-3.0898,-3.0898,-3.0898,-3.0898,-3.0898,-3.0898,-3.0898,-2.4301,-2.5726,-2.707,-2.7363,-2.8452,-2.9443,-2.9396,-2.9546,-2.9474,-2.8818,-2.838,-2.8124,-2.806,-2.8385,-2.9314,-3.126,-3.2271,-3.3288,-3.4678,-3.5235,-3.5493,-3.5493,-3.5757,-3.593,0.0,0.0,0.0,-3.668,-3.7796,-3.8685,-3.9176,-3.99,-4.0234,-4.0077,-3.9781,-3.9526,-3.9272,-3.9073,-3.8921,-3.8762,-3.8719,-3.8707,-3.8707,-3.8707,-3.8707,-3.8707,-3.8707,-3.8707,-3.8707,-3.8707,-3.8707,-3.8707,-3.8707,-3.8707,-3.8707,-3.8707,-3.8707,-3.8707,-3.8707,-3.8358,-3.7863,-3.7569,-3.7129,-3.656,-3.5724,-3.5449,-3.5293,-3.4468,-3.4229,-3.4174,-3.3862,-3.3807,-3.3807,-3.3807,-3.3834,-3.386,-3.3895,-3.3972,-3.4055,-3.4173,-3.433,-3.4529,-3.4772,-3.4526,-3.4082,-3.3454,-3.2885,-3.2116,-3.1013,-3.0583,-3.0402,-3.0402,-3.0417,-3.0471,-3.0521,-3.0602,-3.0651,-3.072,-3.0784,-3.0837,-3.0909,-3.0897,-3.0898,-3.0898,-3.0898,-3.0898,-3.0898,-3.0898,-3.0898,-3.0898,-3.0898,-3.1074,-2.5232,-2.6689,-2.814,-2.8909,-2.9694,-3.0292,-3.0235,-2.9532,-2.8853,-2.8655,-2.7951,-2.7357,-2.729,-2.8013,-2.8941,-2.9937,-3.1599,-3.3062,-3.3972,-3.4941,-3.5565,0.0,0.0,0.0,0.0,0.0,0.0,-3.6911,0.0,-3.9281,-3.9257,-3.9902,-4.0196,-3.9996,-3.967,-3.9401,-3.9183,-3.8958,-3.8835,-3.8762,-3.8762,-3.8744,-3.8707,-3.8707,-3.8707,-3.8707,-3.8707,-3.8707,-3.8707,-3.8707,-3.8707,-3.8707,-3.8707,-3.8707,-3.8707,-3.8707,-3.8707,-3.8707,-3.8707,-3.8707,-3.8579,-3.7808,-3.7551,-3.7404,-3.6615,-3.6358,-3.6174,-3.5302,-3.5027,-3.4807,-3.4064,-3.3825,-3.3807,-3.3807,-3.3842,-3.3895,-3.3895,-3.4074,-3.4245,-3.4386,-3.4583,-3.4791,-3.4981,-3.5219,-3.5139,-3.4391,-3.4218,-3.3603,-3.1968,-3.0991,-3.0475,-3.0475,-3.049,-3.0521,-3.0604,-3.0676,-3.073,-3.0798,-3.0798,-3.0824,-3.0897,-3.0896,-3.0898,-3.0898,-3.0898,-3.0898,-3.0898,-3.0898,-3.0898,-3.0898,-3.0957,-3.1406,-2.6082,-2.7536,-2.8912,-2.906,-2.9702,-3.0138,-2.9481,-2.9149,-2.8415,-2.6454,-2.5876,-2.5711,-2.5691,-2.5926,-2.7014,-2.9721,-3.1142,0.0,-3.3895,-3.5422,0.0,-3.6392,0.0,-3.768,-3.768,-3.845,0.0,0.0,-3.8996,-3.9468,-3.9978,-4.0101,-4.0038,-3.9785,-3.9502,-3.9245,-3.9064,-3.943,-3.9619,-3.9588,-3.9588,-3.9276,-3.8707,-3.8707,-3.8707,-3.8707,-3.8707,-3.8707,-3.8707,-3.8707,-3.8707,-3.8707,-3.8707,-3.8707,-3.8707,-3.8707,-3.8707,-3.8707,-3.8707,-3.8707,-3.867,-3.8469,-3.8395,-3.8248,-3.7442,-3.7179,-3.7,-3.6193,-3.5485,-3.4935,-3.4751,-3.4246,-3.3807,-3.3807,-3.3842,-3.3921,-3.4023,-3.4197,-3.4386,-3.4602,-3.4831,-3.5053,-3.5203,-3.5315,-3.5336,-3.5185,-3.4622,-3.3814,-3.2737,-3.1877,-3.1372,-3.1375,-3.0888,-3.0604,-3.0668,-3.0743,-3.0787,-3.0793,-3.0793,-3.0829,-3.0897,-3.0896,-3.0898,-3.0898,-3.0898,-3.0898,-3.0898,-3.0898,-3.0898,-3.0918,-3.1562,-3.1992,-2.7392,-2.842,-2.9225,-2.95,-2.9672,-2.9583,-2.9072,-2.8122,-2.6924,-2.5459,-2.456,-2.4055,-2.4047,-2.4722,-2.602,0.0,0.0,0.0,-3.343,-3.5411,-3.6699,0.0,-3.7815,0.0,-3.8565,-3.9335,-3.9815,0.0,-3.9804,-3.9931,-4.0323,-4.0196,-3.9975,-3.9739,-3.9452,-3.9351,-3.9446,-4.0117,-4.0262,-3.99,-3.99,-3.9478,-3.8707,-3.8707,-3.8707,-3.8707,0.0,-3.8707,-3.8707,-3.8707,-3.8707,-3.8707,-3.8707,-3.8707,-3.8707,-3.8707,-3.8707,-3.8707,-3.8707,-3.8707,-3.8707,-3.8707,-3.8707,-3.8634,-3.8169,-3.8034,-3.7863,-3.7095,-3.6515,-3.5936,-3.5257,-3.4706,-3.4247,-3.388,-3.3868,-3.3972,-3.4124,-3.434,-3.4604,-3.487,-3.5089,-3.5254,-3.533,-3.5398,-3.546,-3.5493,-3.5084,-3.4584,-3.4109,-3.3029,-3.2304,-3.2308,-3.1988,-3.1802,-3.1838,-3.1896,-3.1773,-3.1382,-3.1375,-3.124,-3.0911,-3.0898,-3.0898,-3.0898,-3.0898,-3.0898,-3.0898,-3.0898,-3.1094,-3.1484,-3.1973,-3.2598,-2.8679,-2.9152,-2.9404,-3.0035,-2.9576,-2.8906,-2.8618,-2.6791,-2.5046,-2.464,-2.3379,-2.2374,-2.2392,-2.3764,-2.5244,-2.6285,0.0,-3.1707,-3.2702,-3.4976,-3.6622,-3.6853,-3.8315,-3.9335,-3.945,-4.0085,-4.0489,-4.0489,-4.0495,-4.0485,-4.0379,-4.0196,-3.9975,-3.9739,-3.9564,-3.9714,-4.0185,-4.0977,-4.0946,-4.0079,-4.0079,-3.957,-3.8707,-3.8707,-3.8707,-3.8707,-3.8707,-3.8707,-3.8707,-3.8707,-3.8707,-3.8707,-3.8707,-3.8707,-3.8707,-3.8707,-3.8707,-3.8707,-3.8707,-3.8707,-3.8707,-3.8707,-3.8707,-3.8689,-3.8689,-3.8738,-3.8591,-3.7945,-3.7687,-3.7216,-3.5772,-3.522,-3.4844,-3.4017,-3.3921,-3.4074,-3.4197,-3.4517,-3.4831,-3.5141,-3.532,-3.5412,-3.5412,-3.546,-3.5493,-3.5493,-3.5493,-3.5501,-3.5515,-3.4206,-3.3276,-3.3277,-3.3285,-3.3297,-3.3316,-3.338,-3.3087,-3.2318,-3.2277,-3.1965,-3.1269,-3.123,-3.123,-3.123,-3.123,-3.123,-3.123,-3.123,-3.1621,-3.2363,-3.248,-3.3301,-2.8775,-2.9513,-3.0035,-3.009,-2.9465,-2.8441,-2.6991,-2.5863,0.0,-2.1627,-2.0849,-2.0669,-2.0783,-2.1649,-2.3074,-2.5329,0.0,0.0,0.0,0.0,-3.6227,0.0,0.0,0.0,0.0,0.0,0.0,0.0,0.0,-4.0449,-4.0325,-4.0177,-3.9911,-3.9477,-4.0061,-4.0645,-4.1132,-4.1903,-4.1828,-4.0969,-4.0933,-4.0115,-3.8707,-3.8707,-3.8707,-3.8707,-3.8707,0.0,-3.8707,-3.8707,-3.8707,-3.8707,-3.8707,-3.8707,-3.8707,-3.8707,-3.8707,-3.8707,-3.8707,-3.8707,-3.8707,-3.8707,-3.875,-3.8792,-3.8792,-3.8822,-3.8844,-3.8792,-3.8256,-3.7535,-3.6612,-3.5862,-3.5092,-3.4183,-3.4074,-3.4197,-3.434,-3.473,-3.5073,-3.5254,-3.535,-3.5412,-3.546,-3.5493,-3.5493,-3.5493,-3.5493,-3.5534,-3.5579,-3.4751,-3.4206,-3.4253,-3.3677,-3.3323,-3.339,-3.339,-3.3345,-3.3177,-3.3178,-3.3105,-3.2969,-3.2969,-3.2969,-3.2969,-3.2969,-3.2969,-3.2969,-3.2969,-3.3047,-3.3203,-3.3926,-3.4414,-2.8802,-2.9589,-3.0185,-3.0068,-2.9038,-2.7736,-2.6489,0.0,0.0,-2.0689,-1.9865,-1.9612,-1.9701,-2.0471,0.0,0.0,0.0,0.0,0.0,0.0,0.0,0.0,0.0,0.0,0.0,0.0,0.0,0.0,0.0,-4.0479,-4.0396,-4.0234,-3.9975,-3.9623,-4.0334,-4.0825,-4.098,-4.1712,-4.1612,-4.0683,-4.059,-3.9902,-3.875,-3.8738,-3.8707,-3.8707,-3.8707,-3.8707,-3.8707,-3.8707,-3.8707,-3.8707,-3.8707,-3.8707,-3.8707,-3.8707,-3.8707,-3.8707,-3.8707,-3.8707,-3.8707,-3.875,-3.8762,-3.8822,-3.8851,-3.8921,-3.9036,-3.9147,-3.8877,-3.8401,-3.7629,-3.6777,-3.5894,-3.5039,-3.4643,-3.4502,-3.467,-3.4964,-3.5229,-3.5335,-3.5412,-3.546,-3.5493,-3.5493,-3.5493,-3.5493,-3.5493,-3.5534,-3.5591,-3.5287,-3.5107,-3.5177,-3.486,-3.4681,-3.4745,-3.4745,-3.4563,-3.4116,-3.4081,-3.3867,-3.3418,-3.3398,-3.3398,-3.3398,-3.3398,-3.3398,-3.3398,-3.3398,-3.3633,-3.4082,-3.4512,-3.4941,-2.8744,-2.9442,-2.9894,-2.9756,-2.8525,-2.7062,-2.592,-2.3872,0.0,-2.0,-1.9011,-1.8542,-1.8795,-1.9599,-2.1055,0.0,-2.6015,-2.8209,0.0,0.0,0.0,0.0,0.0,0.0,0.0,0.0,0.0,0.0,0.0,-4.0492,-4.0482,-4.0327,-4.0099,-3.9873,-4.0579,-4.0896,-4.0722,-4.1407,-4.1288,-4.028,-4.0133,-3.9637,-3.8851,-3.875,-3.8719,-3.8719,-3.8707,-3.8707,-3.8719,-3.8719,-3.8719,-3.875,-3.875,-3.875,-3.875,-3.875,-3.875,-3.875,-3.875,-3.875,-3.875,-3.8822,-3.8833,-3.8881,-3.895,-3.9073,-3.9219,-3.935,-3.9401,-3.9239,-3.8488,-3.7609,-3.6657,-3.5656,-3.5101,-3.4812,-3.4982,-3.5176,-3.5324,-3.5398,-3.546,-3.5493,-3.5493,-3.5493,-3.5493,-3.5493,-3.5493,-3.5534,-3.5591,-3.5657,-3.5736,-3.5791,-3.5872,-3.5938,-3.5994,-3.5999,-3.5716,-3.5019,-3.498,-3.4668,-3.3984,-3.3965,-3.3965,-3.3965,-3.3965,-3.3965,-3.3965,-3.3965,-3.4316,-3.498,-3.498,-3.5351,-2.8591,-2.9014,-2.8979,-2.8771,-2.8007,-2.6695,-2.4374,0.0,-2.0663,-1.8316,-1.7254,-1.6997,-1.7851,-1.8724,-2.0175,-2.2783,-2.4686,-2.6675,0.0,0.0,0.0,0.0,0.0,0.0,0.0,0.0,0.0,0.0,0.0,-4.0457,-4.0413,-4.0325,-4.0233,-4.0081,-4.0838,-4.119,-4.106,-4.1731,-4.1555,-4.0566,-4.0354,-3.9807,-3.8997,-3.8851,-3.8792,-3.8792,-3.8719,-3.8719,0.0,-3.8792,-3.8822,-3.8881,-3.8881,-3.8881,-3.8881,-3.8881,-3.8881,-3.8881,-3.8881,-3.8881,-3.891,-3.895,-3.8979,-3.9007,-3.9129,-3.9298,-3.9483,-3.9623,-3.9693,-3.9569,-3.8761,-3.791,-3.685,-3.5244,-3.4927,-3.4982,-3.507,-3.5187,-3.5315,-3.5398,-3.546,-3.5493,-3.5493,-3.5493,-3.5493,-3.5493,-3.5493,-3.5534,-3.5591,-3.5657,-3.5726,-3.5794,-3.5914,-3.6001,-3.6009,-3.5995,-3.5976,-3.5898,-3.5879,-3.584,-3.5762,-3.5762,-3.5762,-3.5762,-3.5762,-3.5762,-3.5762,-3.5762,-3.5801,-3.5879,-3.5879,-3.5918,-2.7266,-2.7865,-2.8139,-2.7989,-2.7244,-2.6054,-2.4068,-2.2363,-2.0513,-1.8094,-1.7047,-1.6695,-1.7096,-1.7886,-1.9329,-2.1897,-2.3762,-2.5738,-2.823,0.0,0.0,0.0,0.0,0.0,0.0,0.0,0.0,0.0,0.0,-4.0447,-4.0466,-4.043,-4.0379,-4.0289,-4.054,-4.0654,-4.0576,-4.0732,-4.0575,-4.0113,-3.9883,-3.956,-3.9183,-3.8997,-3.891,-3.8939,-3.8899,-3.8899,0.0,-3.896,-3.9007,-3.9017,-3.9017,-3.9017,-3.9017,-3.9017,-3.9017,-3.9017,-3.9017,-3.9064,-3.912,-3.921,-3.929,-3.935,-3.9376,-3.9551,-3.9762,-3.9892,-3.9977,-3.9983,-3.9641,-3.8556,-3.7243,-3.6064,-3.547,-3.5176,-3.5203,-3.53,-3.5379,-3.5446,-3.5474,-3.5493,-3.5493,-3.5493,-3.5493,-3.5493,-3.5493,-3.5515,-3.5596,-3.5648,-3.5735,-3.5846,-3.5943,-3.6001,-3.6009,-3.5995,-3.5996,-3.5996,-3.5996,-3.5996,-3.5996,-3.5996,-3.5996,-3.5996,-3.5996,-3.5996,-3.5996,-3.5996,-3.5996,-3.5996,-3.5996,-3.5996,-2.5907,-2.6619,-2.6967,-2.6829,-2.627,-2.5263,-2.3334,-2.1646,-1.9945,-1.8022,-1.6877,-1.6309,-1.6636,-1.7411,-1.8757,-2.1064,-2.2888,-2.4888,-2.7373,-2.9156,0.0,0.0,0.0,0.0,0.0,0.0,0.0,0.0,0.0,-4.0379,-4.0449,-4.0466,-4.0466,-4.043,-4.0377,-4.0342,-4.0288,-4.0139,-4.0019,-3.9933,-3.9689,-3.9526,-3.9427,-3.9237,-3.9147,-3.912,-3.9092,-3.9092,0.0,-3.921,-3.9219,-3.9245,-3.9272,-3.9272,-3.9245,-3.9245,-3.9245,-3.9219,-3.9245,-3.9272,-3.9324,-3.9502,-3.9623,-3.9717,-3.9721,-3.9851,-4.0017,-4.0138,-4.0196,-4.0194,-3.9946,-3.899,-3.7823,-3.6736,-3.608,-3.5645,-3.5392,-3.5379,-3.5446,-3.5493,-3.5493,-3.5493,-3.5493,-3.5493,-3.5493,-3.5493,-3.5493,-3.5515,-3.5596,-3.5658,-3.5735,-3.5853,-3.5943,-3.6001,-3.6009,-3.5995,-3.5996,-3.5996,-3.5996,-3.5996,-3.5996,-3.5996,-3.5996,-3.5996,-3.5996,-3.5996,-3.5996,-3.5996,-3.5996,-3.5996,-3.5996,-3.5996,-2.4741,-2.5379,-2.5282,-2.5157,-2.5075,-2.4353,-2.181,-1.9992,-1.8614,-1.7855,-1.6421,-1.5592,-1.6522,-1.7402,-1.8563,-2.0334,-2.2029,-2.3984,-2.6454,-2.8264,0.0,0.0,0.0,0.0,0.0,0.0,0.0,0.0,0.0,0.0,-4.0307,-4.036,-4.0427,-4.0489,-4.0515,-4.0502,-4.0502,-4.0285,-4.0195,-4.0196,-4.0057,-3.9892,-3.9693,-3.9575,-3.9452,-3.9376,-3.9324,-3.9324,0.0,-3.9477,-3.9526,-3.9599,-3.967,-3.9647,-3.9599,-3.9599,-3.9551,-3.9502,-3.9575,-3.9618,-3.9623,-3.9848,-3.9935,-4.0017,-4.0158,-4.0177,-4.0215,-4.0271,-4.0362,-4.0187,-3.9342,-3.9092,-3.8671,-3.6983,-3.6631,-3.6449,-3.5605,-3.546,-3.5493,-3.5493,-3.5493,-3.5493,-3.5493,-3.5493,-3.5493,-3.5493,-3.5493,-3.5534,-3.5591,-3.5657,-3.5726,-3.5794,-3.5919,-3.6001,-3.6009,-3.5995,-3.5996,-3.5996,-3.5996,-3.5996,-3.5996,-3.5996,-3.5996,-3.5996,-3.5996,-3.5996,-3.5996,-3.5996,-3.5996,-3.5996,-3.5996,-3.5996,-2.2513,-2.3253,-2.3636,-2.3544,-2.3435,-2.2852,-2.0897,-1.964,-1.8497,-1.7144,-1.6043,-1.5397,-1.5757,-1.7008,-1.8553,-2.0249,-2.1979,-2.4166,-2.7252,0.0,0.0,0.0,0.0,0.0,0.0,0.0,0.0,0.0,0.0,-4.0078,-4.0157,-4.0215,-4.0345,-4.0479,-4.0495,-4.0492,-4.0492,-4.0427,-4.0377,-4.0344,-4.0196,-4.0077,-3.9975,-3.9788,-3.9679,-3.967,-3.9645,-3.9687,-3.9739,-3.9807,-3.9832,-3.9878,-3.9899,-3.9899,-3.9878,-3.9873,-3.9873,-3.9857,-3.987,-3.9895,-3.996,-4.008,-4.0158,-4.0234,-4.0342,-4.0379,-4.0362,-4.0427,-4.0441,-4.0399,-4.013,-3.965,-3.9112,-3.8574,-3.7555,-3.6613,-3.6344,-3.5878,-3.5493,-3.5493,-3.5493,-3.5493,-3.5493,-3.5493,-3.5493,-3.5493,-3.5493,-3.5515,-3.5596,-3.5657,-3.5727,-3.5794,-3.5885,-3.5949,-3.601,-3.5995,-3.5996,-3.5996,-3.5996,-3.5996,-3.5996,-3.5996,-3.5996,-3.5996,-3.5992,-3.6005,-3.6005,-3.5995,-3.5996,-3.5996,-3.5996,-3.5996,-2.0269,-2.1099,-2.1442,-2.1382,-2.1308,-2.0871,-1.9515,-1.8565,-1.7718,-1.6721,-1.5855,-1.5407,-1.5776,-1.7007,-1.8512,-2.0196,-2.192,-2.4127,-2.7144,0.0,0.0,0.0,0.0,0.0,0.0,0.0,0.0,0.0,0.0,-3.9826,-3.9954,-4.0057,-4.0177,-4.0345,-4.0411,-4.046,-4.046,-4.0447,-4.0449,-4.0396,-4.0289,-4.0215,-4.0177,-4.006,-3.9981,-3.9937,-3.9944,-3.9983,0.0,-4.0099,-4.01,-4.012,-4.0139,-4.0139,-4.012,-4.0119,-4.0099,-4.0081,-4.0099,-4.0139,-4.0196,-4.0288,-4.0341,-4.0394,-4.0479,-4.0479,-4.0444,-4.0489,-4.0489,-4.0489,-4.0489,-4.0123,-3.9681,-3.9373,-3.8219,-3.7103,-3.6776,-3.6084,-3.5493,-3.5493,-3.5493,-3.5493,-3.5493,-3.5493,-3.5493,-3.5493,-3.5493,-3.5515,-3.5596,-3.5635,-3.5699,-3.5791,-3.5864,-3.5935,-3.5984,-3.5995,-3.5996,-3.5996,-3.5996,-3.5996,-3.5996,-3.5996,-3.5996,-3.5996,-3.5992,-3.6003,-3.5991,-3.5994,-3.5996,-3.5996,-3.5996,-3.5996,0.0,-1.8886,-1.8913,-1.8924,-1.8917,-1.8681,-1.7811,-1.7041,0.0,-1.6418,-1.5865,-1.5622,-1.6445,-1.7354,-1.8524,-2.0201,-2.1937,-2.3941,-2.6434,0.0,0.0,0.0,0.0,0.0,0.0,0.0,0.0,0.0,0.0,-3.9599,-3.967,-3.9785,-3.9933,-4.0057,-4.0253,-4.0362,-4.0398,-4.0398,-4.0398,-4.0379,-4.0321,-4.0304,-4.0307,-4.0307,-4.027,0.0,-4.0215,-4.0215,-4.0233,-4.0289,-4.0325,-4.0325,-4.0379,-4.0379,-4.0306,-4.0325,-4.027,-4.0233,-4.0288,-4.0325,-4.0342,-4.0466,-4.0495,-4.0489,-4.0489,-4.0489,-4.0489,-4.0489,-4.0489,-4.0489,-4.0489,-4.0489,-4.0296,-3.9488,-3.8623,-3.7757,-3.6892,-3.6084,-3.5493,-3.5493,-3.5493,-3.5493,-3.5493,-3.5493,-3.5493,-3.5493,-3.5493,-3.5534,-3.5579,-3.5601,-3.5639,-3.5782,-3.584,-3.5924,-3.5985,-3.5992,-3.5996,-3.5996,-3.5996,-3.5996,-3.5996,-3.5996,-3.5996,-3.5996,-3.5996,-3.5994,-3.5996,-3.5993,-3.5996,-3.5996,-3.5996,-3.5996,-1.4729,0.0,-1.7336,-1.7924,-1.8031,-1.7792,0.0,-1.6638,-1.6316,-1.5639,0.0,-1.6295,-1.6546,-1.7825,-1.937,-2.105,-2.2682,-2.4647,-2.7198,0.0,0.0,0.0,0.0,0.0,0.0,0.0,0.0,0.0,-3.9324,-3.9324,-3.9401,-3.9477,-3.9575,-3.9693,-3.987,-4.0039,-4.0233,-4.0252,-4.0271,-4.0325,-4.0306,-4.0325,-4.0379,-4.0379,-4.0362,-4.0362,-4.0362,-4.0379,-4.0432,-4.0449,-4.0447,-4.0457,-4.0476,-4.0476,-4.0441,-4.0447,-4.0447,-4.0425,-4.0447,-4.0463,-4.0457,-4.0492,-4.0508,-4.0489,-4.0489,-4.0489,-4.0489,-4.0489,-4.0489,-4.0489,-4.0489,-4.0489,-4.0296,-3.9488,-3.8623,-3.7757,-3.6892,-3.6084,-3.5493,-3.5493,-3.5493,-3.5493,-3.5493,-3.5493,-3.5493,-3.5493,-3.5493,-3.5501,-3.5515,-3.5572,-3.5631,-3.5708,-3.5782,-3.5852,-3.5922,-3.5974,-3.5995,-3.5996,-3.5996,-3.5996,-3.5996,-3.5996,-3.5996,-3.5996,-3.5996,-3.5996,-3.5995,-3.6007,-3.601,-3.5996,-3.5996,-3.5996,-1.3045,-1.4729,-1.6208,-1.7004,-1.7459,-1.7579,-1.7116,-1.6713,-1.6439,0.0,0.0,-1.6695,-1.7517,-1.8698,-2.0108,-2.1784,-2.34,0.0,0.0,0.0,0.0,0.0,0.0,0.0,0.0,0.0,0.0,0.0,-3.8339,-3.8544,-3.8625,-3.9032,-3.9324,-3.9452,-3.9551,-3.9739,-4.0,-4.008,-4.0158,-4.0234,-4.0289,-4.0342,-4.0449,-4.0447,-4.0463,-4.0463,-4.0463,-4.0479,-4.0495,-4.0495,-4.0492,-4.0489,-4.0489,-4.0489,-4.0489,-4.0511,-4.0492,-4.0489,-4.0511,-4.0492,-4.0489,-4.0489,-4.0489,-4.0489,-4.0489,-4.0489,-4.0489,-4.0489,-4.0489,-4.0489,-4.0489,-4.0219,-3.9835,-3.9392,-3.8334,-3.7276,-3.6796,-3.6084,-3.5493,-3.5493,-3.5493,-3.5493,-3.5493,-3.5493,-3.5493,-3.5493,-3.5493,-3.5501,-3.5502,-3.5528,-3.5584,-3.5646,-3.5708,-3.5773,-3.5803,-3.5875,-3.5929,-3.5991,-3.5994,-3.5995,-3.5995,-3.5995,-3.5995,-3.5995,-3.5995,-3.5995,-3.5995,-3.6007,-3.6009,-3.5995,-3.5996,-3.5996,-1.2323,-1.4004,-1.5463,-1.627,-1.7093,-1.7677,-1.7603,-1.706,-1.6755,0.0,0.0,0.0,0.0,0.0,0.0,0.0,0.0,0.0,0.0,0.0,0.0,0.0,0.0,0.0,0.0,0.0,0.0,-3.6554,-3.7165,-3.7525,-3.7572,-3.8276,-3.8813,-3.9059,-3.9156,-3.9346,-3.9735,-3.987,-4.0017,-4.0176,-4.0252,-4.0342,-4.0485,-4.0492,-4.0489,-4.0489,0.0,0.0,-4.0489,-4.0489,-4.0489,-4.0489,-4.0489,-4.0489,-4.0489,-4.0489,-4.0489,-4.0489,-4.0489,-4.0489,-4.0489,-4.0489,-4.0489,-4.0489,-4.0489,-4.0489,-4.0489,-4.0489,-4.0489,-4.0469,-4.0335,-3.9796,-3.9219,-3.8969,-3.7777,-3.668,-3.6546,-3.5988,-3.5493,-3.5493,-3.5493,-3.5493,-3.5493,-3.5493,-3.5493,-3.5493,-3.5493,-3.5501,-3.5489,-3.5502,-3.5528,-3.5589,-3.5635,-3.5669,-3.5679,-3.5757,-3.5846,-3.5955,-3.5979,-3.5987,-3.6007,-3.6007,-3.6007,-3.6007,-3.6007,-3.6007,-3.6007,-3.6007,-3.6007,-3.6009,-3.5994,-3.5996,-1.2266,-1.3894,-1.5331,-1.6202,-1.7018,-1.7587,-1.7534,-1.7413,-1.7376,0.0,0.0,0.0,0.0,0.0,0.0,0.0,0.0,0.0,0.0,0.0,0.0,0.0,0.0,0.0,0.0,0.0,0.0,-3.6454,-3.6555,-3.6611,-3.6611,-3.6749,-3.7202,-3.7988,-3.8106,-3.8566,-3.9432,-3.9642,-3.9848,-4.0017,-4.0158,-4.0289,-4.0415,-4.0476,-4.0489,-4.0489,0.0,-4.0489,-4.0489,-4.0489,-4.0489,-4.0489,-4.0489,-4.0489,-4.0489,-4.0489,-4.0489,-4.0489,-4.0489,-4.0489,-4.0489,-4.0489,-4.0489,-4.0489,-4.0489,-4.0489,-4.0489,-4.0489,-4.0489,-4.0335,-3.9662,-3.9392,-3.8931,-3.745,-3.6892,-3.6507,-3.5834,-3.5603,-3.5493,-3.5493,-3.5493,-3.5493,-3.5493,-3.5493,-3.5493,-3.5493,-3.5493,-3.5507,-3.5507,-3.5488,-3.5495,-3.5515,-3.5572,-3.562,-3.5618,-3.5679,-3.576,-3.583,-3.589,-3.5942,-3.5994,-3.5994,-3.5994,-3.5994,-3.5994,-3.5994,-3.5994,-3.5994,-3.6004,-3.5996,-3.5999,-3.6009,-1.2207,-1.3816,-1.536,-1.6616,-1.7898,-1.8954,-1.9338,-1.9039,-1.8949,0.0,0.0,0.0,0.0,0.0,0.0,0.0,0.0,0.0,0.0,0.0,0.0,0.0,0.0,0.0,0.0,0.0,-3.5036,-3.5,-3.5404,-3.5634,-3.5634,-3.6113,-3.662,-3.7155,-3.7262,-3.7809,-3.8858,-3.9006,-3.9391,-3.9954,-4.0158,-4.0307,-4.0396,-4.0476,-4.0489,-4.0489,0.0,-4.0489,-4.0489,-4.0489,-4.0489,-4.0489,-4.0489,-4.0489,-4.0489,-4.0489,-4.0489,-4.0489,-4.0489,-4.0489,-4.0489,-4.0489,-4.0489,-4.0489,-4.0489,-4.0489,-4.0412,-3.9969,-3.9835,-3.9758,-3.9392,-3.8604,-3.77,-3.6892,-3.6372,-3.5949,-3.5584,-3.5493,-3.5493,-3.5493,-3.5493,-3.5493,-3.5493,-3.5493,-3.5493,-3.5493,-3.5493,-3.5493,-3.5493,-3.5493,-3.5507,-3.5495,-3.5534,-3.554,-3.5558,-3.5607,-3.5718,-3.5845,-3.5878,-3.5904,-3.5948,-3.5948,-3.5948,-3.5948,-3.5958,-3.5958,-3.5948,-3.5958,-3.5953,-3.5958,-3.5988,-3.6003,-1.2137,-1.3749,-1.5364,-1.6961,-1.8785,-2.0323,-2.091,-2.0626,0.0,0.0,0.0,0.0,0.0,0.0,0.0,0.0,0.0,0.0,0.0,0.0,0.0,0.0,0.0,0.0,0.0,0.0,-3.3807,-3.3807,-3.4376,-3.4715,-3.4715,-3.5404,-3.5984,-3.6303,-3.6433,-3.705,-3.8139,-3.8269,-3.8906,-3.9975,-4.0177,-4.0342,-4.0432,-4.0476,-4.0489,-4.0489,-4.0489,-4.0489,-4.0489,-4.0489,-4.0489,-4.0489,-4.0489,-4.0489,-4.0489,-4.0489,-4.0489,-4.0489,-4.0489,-4.0489,-4.0489,-4.0489,-4.0489,-4.0489,-4.0489,-4.0354,-4.0085,-3.9469,-3.9008,-3.8681,-3.8681,-3.77,-3.6661,-3.6469,-3.5949,-3.5493,-3.5493,-3.5493,-3.5493,-3.5493,-3.5493,-3.5493,-3.5493,-3.5493,-3.5493,-3.5493,-3.5493,-3.5493,-3.5493,-3.5493,-3.5493,-3.5493,-3.5495,-3.5502,-3.5502,-3.5565,-3.5678,-3.583,-3.5833,-3.5872,-3.5885,-3.5885,-3.5866,-3.584,-3.5872,-3.5872,-3.584,-3.5879,-3.5878,-3.5899,-3.5958,-3.5977,-1.2068,-1.3678,-1.5291,-1.6918,-1.9131,-2.0926,-2.0919,-2.1388,0.0,-2.2945,0.0,0.0,0.0,0.0,0.0,0.0,0.0,0.0,0.0,0.0,0.0,0.0,0.0,0.0,0.0,-3.3788,-3.3807,-3.3807,-3.3844,-3.3899,-3.3899,-3.4015,-3.4515,-3.5454,-3.5621,-3.6246,-3.7379,-3.7526,-3.8461,-4.0176,-4.0252,-4.0379,-4.0502,-4.0492,-4.0489,-4.0489,-4.0489,-4.0489,-4.0489,-4.0489,-4.0489,-4.0489,-4.0489,-4.0489,-4.0489,-4.0489,-4.0489,-4.0489,-4.0489,-4.0489,-4.0489,-4.0489,-4.0489,-4.0489,-4.0489,-3.9969,-3.9373,-3.9315,-3.8123,-3.6892,-3.6892,-3.6796,-3.6507,-3.5776,-3.5532,-3.5493,-3.5493,-3.5493,-3.5493,-3.5493,-3.5493,-3.5493,-3.5493,-3.5493,-3.5493,-3.5493,-3.5493,-3.5493,-3.5493,-3.5493,-3.5493,-3.5493,-3.5507,-3.5501,-3.5502,-3.556,-3.5596,-3.5623,-3.5689,-3.5743,-3.5807,-3.5807,-3.5779,-3.5715,-3.5771,-3.5771,-3.5715,-3.5784,-3.5846,-3.5894,-3.5899,-3.5949,-1.2148,-1.3957,-1.5783,-1.6846,-1.9295,0.0,0.0,-2.2504,-2.3655,-2.4468,-2.5263,0.0,0.0,0.0,0.0,0.0,0.0,0.0,0.0,0.0,0.0,0.0,0.0,0.0,-3.3807,-3.3807,-3.3807,-3.3807,-3.3807,-3.3834,-3.3842,-3.3972,-3.4272,-3.4764,-3.4986,-3.5598,-3.6653,-3.6805,-3.7504,-3.8774,-3.8788,-3.9125,-3.9695,-3.9723,-4.0042,-4.0573,-4.0523,-4.0523,-4.0573,-4.0523,-4.0489,-4.0489,-4.0489,-4.0489,-4.0431,-3.9931,-3.9738,-3.9681,-3.9123,-3.895,-3.895,-3.895,-3.895,-3.895,-3.895,-3.8719,-3.8373,-3.7834,-3.7219,-3.6699,-3.6699,-3.6334,-3.5892,-3.557,-3.5493,-3.5493,-3.5493,-3.5493,-3.5493,-3.5493,-3.5493,-3.5493,-3.5493,-3.5493,-3.5493,-3.5493,-3.5493,-3.5493,-3.5493,-3.5493,-3.5493,-3.5493,-3.5493,-3.5507,-3.5501,-3.5515,-3.5541,-3.554,-3.5604,-3.5639,-3.5669,-3.5689,-3.5659,-3.563,-3.5669,-3.5679,-3.5699,-3.5736,-3.5803,-3.5897,-3.5894,-3.5939,-1.2405,-1.4202,-1.6103,-1.7335,-1.963,-2.1735,-2.2301,-2.3547,-2.4816,-2.5588,-2.6431,0.0,0.0,0.0,0.0,0.0,0.0,0.0,0.0,0.0,0.0,0.0,0.0,0.0,-3.3807,-3.3807,-3.3807,-3.3807,-3.3807,-3.3815,-3.3895,-3.4023,-3.4221,-3.4473,-3.4689,-3.5192,-3.5964,-3.6105,-3.6492,-3.7141,-3.7141,-3.7732,-3.8827,-3.9046,-3.948,-4.0034,-4.0019,-4.0019,-4.0015,-3.9792,-3.97,-3.97,-3.97,-3.97,-3.9642,-3.9084,-3.8892,-3.8796,-3.82,-3.8007,-3.8007,-3.8007,-3.8007,-3.8007,-3.8007,-3.7815,-3.7469,-3.6873,-3.6526,-3.6334,-3.6334,-3.5911,-3.5493,-3.5493,-3.5493,-3.5493,-3.5493,-3.5493,-3.5493,-3.5493,-3.5493,-3.5493,-3.5493,-3.5493,-3.5493,-3.5493,-3.5493,-3.5493,-3.5493,-3.5493,-3.5493,-3.5493,-3.5493,-3.5493,-3.5493,-3.5493,-3.5488,-3.5509,-3.5528,-3.5577,-3.5604,-3.5604,-3.5593,-3.5562,-3.5601,-3.5612,-3.5667,-3.5689,-3.5771,-3.5905,-3.5903,-3.5931,-1.2899,-1.4428,-1.6146,-1.8417,-2.0174,0.0,-2.3257,-2.4444,-2.5415,-2.6172,0.0,-2.7972,0.0,0.0,0.0,0.0,0.0,0.0,0.0,0.0,0.0,0.0,0.0,-3.377,-3.377,-3.377,-3.3788,-3.3788,-3.3807,-3.3815,-3.3895,-3.4023,-3.4245,-3.4583,-3.4811,-3.5019,-3.5312,-3.5369,-3.5427,-3.5493,-3.5493,-3.6372,-3.8007,-3.8541,-3.8787,-3.8806,-3.8864,-3.8845,-3.8748,-3.8219,-3.8007,-3.8007,-3.8007,-3.8007,-3.8007,-3.7988,-3.7988,-3.7988,-3.7988,-3.7988,-3.7988,-3.7988,-3.7988,-3.7988,-3.7988,-3.7373,-3.6699,-3.6699,-3.6122,-3.5493,-3.5493,-3.5493,-3.5493,-3.5493,-3.5493,-3.5493,-3.5493,-3.5493,-3.5493,-3.5493,-3.5493,-3.5493,-3.5493,-3.5493,-3.5493,-3.5493,-3.5493,-3.5493,-3.5493,-3.5493,-3.5493,-3.5493,-3.5493,-3.5493,-3.5493,-3.5493,-3.5493,-3.5493,-3.5493,-3.5534,-3.5591,-3.5591,-3.556,-3.5515,-3.556,-3.5596,-3.5601,-3.5669,-3.5771,-3.5905,-3.5903,-3.5931,-1.3532,-1.5027,0.0,-1.8289,0.0,0.0,0.0,-2.4175,0.0,0.0,0.0,0.0,0.0,0.0,0.0,0.0,0.0,0.0,0.0,0.0,0.0,0.0,0.0,-3.21,-3.21,-3.2614,-3.2963,-3.2963,-3.3529,-3.3921,-3.4023,-3.4221,-3.445,-3.4747,-3.4946,-3.5108,-3.5312,-3.5369,-3.5427,-3.5493,-3.5493,-3.6065,-3.7103,-3.7502,-3.8094,-3.883,-3.8041,-3.7695,-3.7704,-3.7906,-3.8007,-3.8007,-3.8007,-3.8007,-3.793,-3.7315,-3.7084,-3.7007,-3.6449,-3.6238,-3.6238,-3.6238,-3.6238,-3.6238,-3.6238,-3.6065,-3.5872,-3.5872,-3.568,-3.5493,-3.5493,-3.5493,-3.5493,-3.5493,-3.5493,-3.5493,-3.5493,-3.5493,-3.5493,-3.5493,-3.5493,-3.5493,-3.5493,-3.5493,-3.5493,-3.5493,-3.5493,-3.5493,-3.5493,-3.5493,-3.5493,-3.5493,-3.5493,-3.5493,-3.5493,-3.5493,-3.5493,-3.5493,-3.5493,-3.5507,-3.5534,-3.5534,-3.5515,-3.5501,-3.5522,-3.5553,-3.5601,-3.5669,-3.5771,-3.5898,-3.5953,-3.5974,-1.4118,-1.5635,0.0,-1.8946,-2.0289,-2.1558,0.0,0.0,0.0,0.0,0.0,0.0,0.0,0.0,0.0,0.0,0.0,0.0,0.0,0.0,0.0,0.0,-3.1384,-3.1384,-3.1384,-3.1843,-3.2118,-3.2162,-3.2654,-3.316,-3.369,-3.3873,-3.4223,-3.4811,-3.502,-3.516,-3.5289,-3.5369,-3.5427,-3.5493,-3.5493,-3.5757,-3.6238,-3.643,-3.6901,-3.7506,-3.6815,-3.6526,-3.6554,-3.6873,-3.7007,-3.7007,-3.7007,-3.7007,-3.6949,-3.643,-3.6219,-3.6161,-3.568,-3.5493,-3.5493,-3.5493,-3.5493,-3.5493,-3.5493,-3.5493,-3.5493,-3.5493,-3.5493,-3.5493,-3.5493,-3.5493,-3.5493,-3.5493,-3.5493,-3.5493,-3.5493,-3.5493,-3.5493,-3.5493,-3.5493,-3.5493,-3.5493,-3.5493,-3.5493,-3.5493,-3.5493,-3.5493,-3.5493,-3.5493,-3.5493,-3.5493,-3.5493,-3.5493,-3.5493,-3.5493,-3.5493,-3.5493,-3.5493,-3.5493,-3.5493,-3.5493,-3.5493,-3.5493,-3.5509,-3.5534,-3.5604,-3.5689,-3.5788,-3.5898,-3.5973,-3.6004,-1.4648,0.0,0.0,0.0,0.0,0.0,0.0,0.0,0.0,0.0,0.0,0.0,0.0,0.0,0.0,0.0,0.0,0.0,0.0,0.0,0.0,0.0,-3.1132,-3.1182,-3.1182,-3.1237,-3.1317,-3.1385,-3.1464,-3.1954,-3.2952,-3.3122,-3.3688,-3.4737,-3.4904,-3.5078,-3.53,-3.535,-3.5412,-3.5493,-3.5493,-3.5493,-3.5493,-3.5493,-3.5493,-3.5493,-3.5493,-3.5493,-3.5493,-3.5493,-3.5493,-3.5493,-3.5493,-3.5493,-3.5493,-3.5493,-3.5493,-3.5493,-3.5493,-3.5493,-3.5493,-3.5493,-3.5493,-3.5493,-3.5493,-3.5493,-3.5493,-3.5493,-3.5493,-3.5493,-3.5493,-3.5493,-3.5493,-3.5493,-3.5493,-3.5493,-3.5493,-3.5493,-3.5493,-3.5493,-3.5493,-3.5493,-3.5493,-3.5493,-3.5493,-3.5493,-3.5493,-3.5493,-3.5493,-3.5493,-3.5493,-3.5493,-3.5493,-3.5493,-3.5493,-3.5493,-3.5493,-3.5493,-3.5493,-3.5493,-3.5493,-3.5493,-3.5493,-3.5493,-3.5509,-3.5546,-3.5607,-3.5736,-3.583,-3.5905,-3.597,-3.5994,-1.5146,-1.6463,0.0,0.0,0.0,0.0,0.0,0.0,0.0,0.0,0.0,0.0,0.0,0.0,0.0,0.0,0.0,0.0,0.0,0.0,0.0,-2.9417,-2.9483,-2.9531,-2.9531,-3.0099,-3.0491,-3.0544,-3.1246,-3.1807,-3.2128,-3.2343,-3.2881,-3.3866,-3.4013,-3.4456,-3.5207,-3.5293,-3.5354,-3.5412,-3.5412,-3.5446,-3.5493,-3.5493,-3.5493,-3.5493,-3.5493,-3.5493,-3.5493,-3.5493,-3.5493,-3.5493,-3.5493,-3.5493,-3.5493,-3.5493,-3.5493,-3.5493,-3.5493,-3.5493,-3.5493,-3.5493,-3.5493,-3.5493,-3.5493,-3.5493,-3.5493,-3.5493,-3.5493,-3.5493,-3.5493,-3.5493,-3.5493,-3.5493,-3.5493,-3.5493,-3.5493,-3.5493,-3.5493,-3.5493,-3.5493,-3.5493,-3.5493,-3.5493,-3.5493,-3.5493,-3.5493,-3.5493,-3.5493,-3.5493,-3.5493,-3.5493,-3.5493,-3.5493,-3.5493,-3.5493,-3.5493,-3.5493,-3.5493,-3.5493,-3.5493,-3.5493,-3.5493,-3.5493,-3.5554,-3.5608,-3.5678,-3.5763,-3.5833,-3.5903,-3.5974,-3.6003,-1.4853,0.0,0.0,0.0,0.0,0.0,0.0,0.0,0.0,0.0,0.0,0.0,0.0,0.0,0.0,0.0,0.0,0.0,0.0,0.0,0.0,-2.8791,-2.8905,-2.8994,-2.8994,-2.936,-2.9646,-2.9715,-3.0212,-3.0732,-3.1294,-3.1481,-3.2015,-3.294,-3.3486,-3.3992,-3.4478,-3.495,-3.5245,-3.5304,-3.5339,-3.5383,-3.546,-3.5493,-3.5493,-3.5493,-3.5493,-3.5493,-3.5493,-3.5493,-3.5493,-3.5493,-3.5493,-3.5493,-3.5493,-3.5493,-3.5493,-3.5493,-3.5493,-3.5493,-3.5493,-3.5493,-3.5493,-3.5493,-3.5493,-3.5493,-3.5493,-3.5493,-3.5493,-3.5493,-3.5493,-3.5493,-3.5493,-3.5493,-3.5493,-3.5493,-3.5493,-3.5493,-3.5493,-3.5493,-3.5493,-3.5493,-3.5493,-3.5493,-3.5493,-3.5493,-3.5493,-3.5493,-3.5493,-3.5493,-3.5493,-3.5493,-3.5493,-3.5493,-3.5493,-3.5493,-3.5493,-3.5493,-3.5493,-3.5493,-3.5493,-3.5493,-3.5488,-3.5495,-3.556,-3.5623,-3.5708,-3.5795,-3.5879,-3.5889,-3.5968,-3.5991,-1.4204,0.0,-1.7744,0.0,0.0,0.0,0.0,0.0,0.0,0.0,0.0,0.0,0.0,0.0,0.0,0.0,0.0,0.0,0.0,0.0,0.0,-2.8694,-2.8881,-2.8994,-2.8994,-2.8994,-2.904,-2.9089,-2.9156,-2.9561,-3.0397,-3.058,-3.1092,-3.1996,-3.2808,-3.3279,-3.3446,-3.4374,-3.4845,-3.4947,-3.5184,-3.5339,-3.5412,-3.546,-3.5493,-3.5493,-3.5493,-3.5493,-3.5493,-3.5493,-3.5493,-3.5493,-3.5493,-3.5493,-3.5493,-3.5493,-3.5493,-3.5493,-3.5493,-3.5493,-3.5493,-3.5493,-3.5493,-3.5493,-3.5493,-3.5493,-3.5493,-3.5493,-3.5493,-3.5493,-3.5493,-3.5493,-3.5493,-3.5493,-3.5493,-3.5493,-3.5493,-3.5493,-3.5493,-3.5493,-3.5493,-3.5493,-3.5493,-3.5493,-3.5493,-3.5493,-3.5493,-3.5493,-3.5493,-3.5493,-3.5493,-3.5493,-3.5493,-3.5493,-3.5493,-3.5493,-3.5493,-3.5493,-3.5493,-3.5493,-3.5493,-3.5493,-3.5501,-3.5515,-3.5577,-3.5637,-3.5718,-3.5838,-3.5911,-3.5919,-3.5974,-3.5993,0.0,0.0,-1.8319,0.0,0.0,0.0,0.0,0.0,0.0,0.0,0.0,0.0,0.0,0.0,0.0,0.0,0.0,0.0,0.0,0.0,-2.8543,-2.8687,-2.8881,-2.8994,-2.8994,-2.8994,-2.904,-2.9089,-2.9156,-2.9277,-2.9471,-2.9619,-3.0055,-3.0879,-3.1147,-3.1638,-3.2392,-3.3261,-3.379,-3.3914,-3.4859,-3.535,-3.5412,-3.546,-3.5493,-3.5493,-3.5493,-3.5493,-3.5493,-3.5493,-3.5493,-3.5493,-3.5493,-3.5493,-3.5493,-3.5493,-3.5493,-3.5493,-3.5493,-3.5493,-3.5493,-3.5493,-3.5493,-3.5493,-3.5493,-3.5493,-3.5493,-3.5493,-3.5493,-3.5493,-3.5493,-3.5493,-3.5493,-3.5493,-3.5493,-3.5493,-3.5493,-3.5493,-3.5493,-3.5493,-3.5493,-3.5493,-3.5493,-3.5493,-3.5493,-3.5493,-3.5493,-3.5493,-3.5493,-3.5493,-3.5493,-3.5493,-3.5493,-3.5493,-3.5493,-3.5493,-3.5493,-3.5493,-3.5493,-3.5493,-3.5493,-3.5493,-3.5534,-3.5591,-3.5608,-3.5648,-3.5791,-3.585,-3.5924,-3.5981,-3.6007,-3.6007,-1.31,-1.5737,0.0,0.0,0.0,0.0,0.0,0.0,0.0,0.0,0.0,0.0,0.0,0.0,0.0,0.0,0.0,0.0,0.0,0.0,-2.785,-2.7997,-2.8607,-2.8994,-2.8994,-2.8994,-2.9017,-2.904,-2.9108,-2.9175,-2.9197,-2.9326,-2.9558,-2.9893,-3.046,-3.0932,-3.1308,-3.2214,-3.2995,-3.3656,-3.4244,-3.4814,-3.5339,-3.5398,-3.546,-3.5493,-3.5493,-3.5493,-3.5493,-3.5493,-3.5493,-3.5493,-3.5493,-3.5493,-3.5493,-3.5493,-3.5493,-3.5493,-3.5493,-3.5493,-3.5493,-3.5493,-3.5493,-3.5493,-3.5493,-3.5493,-3.5493,-3.5493,-3.5493,-3.5493,-3.5493,-3.5493,-3.5493,-3.5493,-3.5493,-3.5493,-3.5493,-3.5493,-3.5493,-3.5493,-3.5493,-3.5493,-3.5493,-3.5493,-3.5493,-3.5493,-3.5493,-3.5493,-3.5493,-3.5493,-3.5493,-3.5493,-3.5493,-3.5446,-3.5339,-3.5339,-3.5369,-3.5493,-3.546,-3.546,-3.5493,-3.5493,-3.5534,-3.5591,-3.5601,-3.5679,-3.5795,-3.5872,-3.5922,-3.6001,-3.6007,-3.6005,0.0,0.0,0.0,0.0,0.0,0.0,0.0,0.0,0.0,0.0,0.0,0.0,0.0,0.0,0.0,0.0,0.0,0.0,0.0,0.0,-2.6952,-2.7139,-2.7848,-2.8421,-2.8622,-2.8659,-2.8727,-2.8929,-2.9017,-2.9021,-2.9044,-2.9152,-2.9218,-2.9259,-2.9898,-3.0256,-3.0256,-3.1185,-3.2177,-3.3204,-3.3441,-3.3936,-3.4645,-3.4736,-3.4793,-3.4872,-3.5315,-3.5493,-3.5493,-3.5493,-3.5493,-3.5493,-3.5493,-3.5493,-3.5493,-3.5493,-3.5493,-3.5493,-3.5493,-3.5493,-3.5493,-3.5493,-3.5493,-3.5493,-3.5493,-3.5493,-3.5493,-3.5493,-3.5493,-3.5493,-3.5493,-3.5493,-3.5493,-3.5493,-3.5493,-3.5493,-3.5493,-3.5493,-3.5493,-3.5493,-3.5493,-3.5493,-3.5493,-3.5493,-3.5493,-3.5493,-3.5493,-3.5493,-3.5493,-3.5493,-3.5493,-3.5493,-3.5446,-3.5354,-3.5209,-3.5209,-3.5273,-3.546,-3.5446,-3.5427,-3.5493,-3.5493,-3.5534,-3.5591,-3.5593,-3.566,-3.5806,-3.5872,-3.5929,-3.5999,-3.6001,-3.5991,-1.2896,-1.3582,0.0,0.0,0.0,0.0,0.0,0.0,0.0,0.0,0.0,0.0,0.0,0.0,0.0,0.0,0.0,0.0,0.0,0.0,-2.6051,-2.6235,-2.6427,-2.6845,-2.7588,-2.7661,-2.7989,-2.8755,-2.881,-2.8834,-2.8905,-2.8994,-2.904,-2.9108,-2.9233,-2.9274,-2.9274,-3.0262,-3.1252,-3.2182,-3.2445,-3.267,-3.2837,-3.2971,-3.3025,-3.3122,-3.4776,-3.5493,-3.5493,-3.5493,-3.5493,-3.5493,-3.5493,-3.5493,-3.5493,-3.5493,-3.5493,-3.5493,-3.5493,-3.5493,-3.5493,-3.5493,-3.5493,-3.5493,-3.5493,-3.5493,-3.5493,-3.5493,-3.5493,-3.5493,-3.5493,-3.5493,-3.5493,-3.5493,-3.5493,-3.5493,-3.5493,-3.5493,-3.5493,-3.5493,-3.5493,-3.5493,-3.5493,-3.5493,-3.5493,-3.5493,-3.5493,-3.5493,-3.5493,-3.5493,-3.5493,-3.5493,-3.5339,-3.5209,-3.5209,-3.5209,-3.5258,-3.5403,-3.5398,-3.5427,-3.5493,-3.5493,-3.5534,-3.5591,-3.5593,-3.567,-3.5801,-3.5872,-3.5927,-3.5991,-3.5995,-3.5996,-1.0991,-1.2231,0.0,0.0,0.0,0.0,0.0,0.0,0.0,0.0,0.0,0.0,0.0,0.0,0.0,0.0,0.0,0.0,0.0,0.0,-2.5236,-2.5411,-2.5964,-2.6449,-2.6731,-2.6768,-2.7077,-2.7834,-2.7888,-2.8149,-2.8749,-2.8834,-2.8905,-2.8975,-2.904,-2.9089,-2.9152,-2.9579,-3.0269,-3.1199,-3.143,-3.191,-3.2645,-3.2766,-3.287,-3.2929,-3.3551,-3.3833,-3.3833,-3.3833,-3.416,-3.4661,-3.4661,-3.5007,-3.5493,-3.546,-3.5446,-3.5427,-3.5398,-3.5364,-3.5379,-3.5412,-3.5446,-3.5427,-3.5493,-3.5493,-3.5493,-3.5493,-3.5493,-3.5493,-3.5493,-3.5493,-3.5493,-3.5493,-3.5493,-3.5493,-3.5493,-3.5493,-3.5493,-3.5493,-3.5493,-3.5493,-3.5493,-3.5493,-3.5493,-3.5493,-3.5493,-3.5493,-3.5493,-3.5493,-3.5493,-3.5493,-3.5324,-3.5209,-3.5209,-3.5242,-3.5289,-3.5383,-3.5398,-3.5427,-3.5493,-3.5493,-3.5534,-3.5591,-3.509,-3.4865,-3.4963,-3.5026,-3.4804,-3.4331,-3.4335,-3.4629,-0.9775,-1.1121,0.0,0.0,0.0,0.0,0.0,0.0,0.0,0.0,0.0,0.0,0.0,0.0,0.0,0.0,0.0,0.0,0.0,0.0,-2.4331,-2.4487,-2.501,-2.5448,-2.5713,-2.5726,-2.6033,-2.6808,-2.7072,0.0,-2.8191,-2.8524,-2.8761,-2.8905,-2.897,-2.9017,-2.9085,-2.9175,-2.9564,-3.0234,-3.0433,-3.0938,-3.1675,-3.1817,-3.1938,-3.1993,-3.2013,-3.2346,-3.291,-3.2897,-3.3244,-3.3763,-3.373,-3.4082,-3.4587,-3.4539,-3.4506,-3.4529,-3.4787,-3.4864,-3.4917,-3.5258,-3.5383,-3.5412,-3.546,-3.5474,-3.5493,-3.5493,-3.5493,-3.5493,-3.5493,-3.5493,-3.5493,-3.5493,-3.5493,-3.5493,-3.5493,-3.5493,-3.5493,-3.5493,-3.5493,-3.5493,-3.5493,-3.5493,-3.5493,-3.5493,-3.5493,-3.5493,-3.5493,-3.5493,-3.5493,-3.5493,-3.5369,-3.5289,-3.5258,-3.5308,-3.5354,-3.5398,-3.5398,-3.5427,-3.5501,-3.5501,-3.5406,-3.5203,-3.4657,-3.4168,-3.3665,-3.3988,-3.3906,-3.3408,-3.3398,-3.3867,0.0,0.0,0.0,0.0,0.0,0.0,0.0,0.0,0.0,0.0,0.0,0.0,0.0,0.0,0.0,0.0,0.0,0.0,0.0,0.0,-2.3265,-2.3471,-2.3494,-2.3756,-2.4479,-2.4551,-2.4871,-2.5697,-2.6419,-2.6933,-2.7229,-2.8048,-2.8601,-2.8905,-2.897,-2.8994,-2.8994,-2.9085,-2.9175,-2.9302,-2.949,-2.9664,-2.9801,-3.0015,-3.0138,-3.0207,-3.0266,-3.1252,-3.2821,-3.2814,-3.2839,-3.2845,-3.2779,-3.2752,-3.2781,-3.28,-3.2752,-3.2802,-3.3662,-3.3961,-3.4106,-3.4948,-3.5262,-3.5321,-3.5321,-3.5369,-3.5416,-3.5416,-3.5449,-3.5468,-3.5474,-3.5493,-3.5493,-3.5493,-3.5493,-3.5493,-3.5493,-3.5493,-3.5493,-3.5493,-3.5493,-3.5493,-3.5493,-3.5493,-3.5493,-3.5493,-3.5493,-3.5493,-3.5493,-3.5493,-3.5493,-3.5493,-3.5493,-3.546,-3.5417,-3.5403,-3.5398,-3.5398,-3.5412,-3.5422,-3.5502,-3.5477,-3.5128,-3.4417,-3.4351,-3.3565,-3.2,-3.2848,-3.3286,-3.3319,-3.3357,-3.3828,-0.9921,0.0,0.0,0.0,0.0,0.0,0.0,0.0,0.0,0.0,0.0,0.0,0.0,0.0,0.0,0.0,0.0,0.0,0.0,0.0,-2.2944,-2.3052,-2.3119,-2.319,-2.335,-2.3368,-2.3726,0.0,-2.4892,-2.5366,-2.6165,-2.7229,-2.8136,-2.8887,-2.897,-2.8994,-2.8994,-2.9085,-2.9175,-2.9302,-2.9411,-2.9551,-2.9734,-2.9888,-3.0019,-3.0128,-3.0157,-3.0433,-3.0882,-3.0942,-3.1435,-3.2149,-3.1895,-3.1909,-3.2123,-3.2457,-3.2559,-3.258,-3.2775,-3.2868,-3.2956,-3.3255,-3.3394,-3.347,-3.3508,-3.3574,-3.3621,-3.3609,-3.4064,-3.4699,-3.5353,-3.5493,-3.5493,-3.5493,-3.5493,-3.5493,-3.5493,-3.5493,-3.5493,-3.5493,-3.5493,-3.5493,-3.5493,-3.5493,-3.5493,-3.5493,-3.5493,-3.5493,-3.5493,-3.5493,-3.5493,-3.5493,-3.5493,-3.546,-3.5398,-3.5398,-3.5398,-3.5398,-3.5446,-3.5468,-3.5502,-3.495,-3.4554,-3.4409,-3.3209,-3.2404,-3.1993,-3.2288,-3.2123,-3.1549,-3.2223,-3.2656,-0.9848,-1.0529,0.0,0.0,0.0,0.0,0.0,-1.4962,0.0,0.0,0.0,0.0,0.0,0.0,0.0,0.0,0.0,0.0,0.0,0.0,-2.2554,-2.2634,-2.2773,-2.2816,-2.2738,-2.2764,-2.3007,-2.3519,-2.3946,-2.4664,-2.5725,-2.6886,-2.776,-2.8328,-2.8787,-2.8994,-2.8994,-2.904,-2.9108,-2.9218,-2.9286,-2.9412,-2.9589,-2.9699,-2.9859,-2.9978,-2.9956,-2.9972,-2.9937,-2.9984,-3.0411,-3.1051,-3.0852,-3.0839,-3.0961,-3.1231,-3.133,-3.1369,-3.1674,-3.1805,-3.1934,-3.2346,-3.2561,-3.2672,-3.2713,-3.2804,-3.2897,-3.2904,-3.35,-3.4282,-3.4768,-3.5158,-3.5412,-3.5412,-3.5446,-3.5446,-3.5446,-3.5479,-3.5493,-3.5493,-3.5493,-3.5493,-3.5493,-3.5493,-3.5493,-3.5493,-3.5493,-3.5493,-3.5493,-3.5493,-3.5493,-3.5493,-3.5493,-3.5474,-3.5446,-3.5446,-3.5446,-3.5446,-3.5147,-3.4976,-3.4995,-3.4241,-3.3661,-3.3355,-3.243,-3.1792,-3.1509,-3.1544,-3.1317,-3.0858,-3.1404,-3.1855,-0.9887,-1.0539,-1.1203,0.0,0.0,0.0,-1.3577,-1.38,-1.4421,0.0,0.0,0.0,0.0,0.0,0.0,0.0,0.0,0.0,0.0,0.0,0.0,-2.2248,-2.2409,-2.2525,-2.246,-2.2542,-2.2605,-2.2659,-2.3457,-2.4419,-2.5615,-2.6658,-2.7341,-2.7588,-2.8416,-2.8925,-2.8994,-2.8994,-2.904,-2.9089,-2.9156,-2.9265,-2.9392,-2.9511,-2.9645,-2.9775,-2.9773,-2.9736,-2.9699,-2.9699,-2.977,-2.9874,-2.9878,-2.9808,-2.9681,-2.9662,-2.9664,-2.9777,-3.0471,-3.0772,-3.096,-3.1751,-3.2142,-3.2311,-3.2324,-3.2445,-3.2615,-3.273,-3.3281,-3.3824,-3.392,-3.4486,-3.5032,-3.509,-3.5143,-3.5249,-3.5379,-3.5465,-3.5493,-3.5493,-3.5493,-3.5493,-3.5493,-3.5493,-3.5493,-3.5493,-3.5493,-3.5493,-3.5493,-3.5493,-3.5493,-3.5493,-3.5493,-3.5493,-3.5493,-3.5493,-3.5468,-3.5372,-3.4622,-3.4186,-3.4152,-3.3376,-3.2618,-3.1909,-3.188,-3.1501,-3.0799,-3.0798,-3.0827,-3.0894,-3.0898,-3.1328,0.0,0.0,0.0,0.0,0.0,0.0,-1.2819,-1.3275,-1.387,0.0,0.0,0.0,0.0,0.0,0.0,0.0,0.0,0.0,0.0,0.0,0.0,-2.1882,-2.2027,-2.2158,-2.2254,-2.231,-2.2405,-2.2542,-2.3007,-2.3756,-2.4861,-2.5276,-2.6126,-2.7551,-2.7889,-2.836,-2.8975,-2.8994,-2.904,-2.9089,-2.9112,-2.9197,-2.9326,-2.9411,-2.9472,-2.9569,-2.957,-2.9608,-2.9701,-2.9626,-2.9683,-2.9738,-2.9739,-2.9645,-2.9514,-2.9418,-2.9397,-2.9471,-2.958,-2.9696,-2.9831,-3.0058,-3.0263,-3.0452,-3.0548,-3.0653,-3.0891,-3.1634,-3.1941,-3.2149,-3.2809,-3.3096,-3.331,-3.3746,-3.391,-3.4223,-3.5254,-3.5493,-3.5493,-3.5493,-3.5493,-3.5493,-3.5493,-3.5493,-3.5493,-3.5493,-3.5493,-3.5493,-3.5493,-3.5493,-3.5493,-3.5493,-3.5493,-3.5493,-3.5493,-3.5493,-3.5199,-3.4507,-3.4295,-3.393,-3.3277,-3.2469,-3.2,-3.1909,-3.128,-3.0898,-3.0808,-3.081,-3.081,-3.0825,-3.0873,-3.0995,0.0,0.0,0.0,-1.2896,0.0,0.0,0.0,-1.303,-1.3283,-1.3673,0.0,0.0,0.0,0.0,0.0,0.0,0.0,0.0,0.0,0.0,0.0,0.0,-2.1076,-2.1496,-2.1603,-2.2023,-2.2366,-2.2542,-2.2842,-2.3302,-2.4023,-2.4626,-2.5405,-2.6385,-2.6936,-2.7585,-2.8393,-2.8411,-2.8635,-2.9062,-2.9062,-2.9089,-2.916,-2.9246,-2.933,-2.9394,-2.9474,-2.9551,-2.9645,-2.9645,-2.9664,-2.9701,-2.9645,-2.9588,-2.9474,-2.9435,-2.9395,-2.9392,-2.9353,-2.9392,-2.947,-2.9491,-2.9608,-2.9771,-2.9874,-3.0022,-3.0238,-3.0715,-3.1087,-3.1444,-3.1851,-3.2222,-3.2642,-3.3263,-3.3884,-3.4522,-3.5209,-3.5432,-3.5493,-3.5493,-3.5493,-3.5493,-3.5493,-3.5493,-3.5493,-3.5493,-3.5493,-3.5493,-3.5493,-3.5493,-3.5493,-3.5493,-3.5493,-3.5493,-3.5493,-3.5493,-3.5141,-3.4257,-3.3795,-3.3185,-3.2386,-3.159,-3.1178,-3.125,-3.0863,-3.0685,-3.0749,-3.0755,-3.0771,-3.0801,-3.0827,-3.0874,0.0,0.0,0.0,0.0,0.0,-1.306,0.0,0.0,0.0,-1.3359,0.0,0.0,0.0,0.0,0.0,0.0,0.0,0.0,0.0,0.0,0.0,0.0,-2.013,-2.0688,-2.0759,-2.1434,-2.198,-2.2133,-2.2479,-2.2818,-2.3147,-2.4118,-2.4824,-2.5178,-2.5941,-2.6759,-2.7548,-2.7714,-2.8136,-2.8778,-2.892,-2.9003,-2.9016,-2.916,-2.9265,-2.9332,-2.9454,-2.9551,-2.9626,-2.9718,-2.9753,-2.9753,-2.9626,-2.9551,-2.9551,-2.955,-2.9511,-2.9433,-2.9412,-2.9411,-2.9409,-2.9392,-2.9493,-2.9608,-2.9681,-2.9857,-3.0038,-3.0034,-3.0443,-3.089,-3.0894,-3.1316,-3.1902,-3.2448,-3.3353,-3.4087,-3.417,-3.4829,-3.5446,-3.5493,-3.5493,-3.5493,-3.5493,-3.5493,-3.5493,-3.5493,-3.5493,-3.5493,-3.5493,-3.5493,-3.5493,-3.5493,-3.5493,-3.5493,-3.5493,-3.5493,-3.5064,-3.4007,-3.3295,-3.2461,-3.1496,-3.0835,-3.052,-3.0585,-3.0585,-3.061,-3.0676,-3.0672,-3.0711,-3.0771,-3.0794,-3.0829,0.0,0.0,0.0,0.0,-1.365,0.0,0.0,0.0,-1.2479,-1.2684,0.0,0.0,0.0,0.0,0.0,0.0,0.0,0.0,0.0,0.0,0.0,0.0,-1.965,-1.986,-1.9939,-2.0238,-2.0466,-2.0563,-2.142,-2.2036,-2.2326,-2.3303,-2.4238,-2.5078,-2.5333,-2.5855,-2.6741,-2.7438,-2.7842,-2.7934,-2.8668,-2.9021,-2.9089,-2.9218,-2.9326,-2.9412,-2.9532,-2.9663,-2.979,-2.9842,-2.991,-2.994,-2.9636,-2.9568,-2.9681,-2.9757,-2.9701,-2.9569,-2.9433,-2.9392,-2.9392,-2.9412,-2.9493,-2.9608,-2.9681,-2.9753,-2.9842,-2.9823,-2.981,-2.9795,-2.9777,-2.9795,-2.9831,-2.9904,-3.0171,-3.041,-3.0492,-3.2975,-3.5293,-3.5479,-3.5493,-3.5493,-3.5493,-3.5493,-3.5493,-3.5493,-3.5493,-3.5493,-3.5493,-3.5493,-3.5493,-3.5493,-3.5493,-3.5493,-3.5493,-3.5493,-3.4795,-3.3141,-3.2949,-3.2192,-3.0609,-3.0527,-3.05,-3.0511,-3.0511,-3.054,-3.0613,-3.0614,-3.0652,-3.0721,-3.0763,-3.0796,0.0,0.0,0.0,0.0,0.0,0.0,-1.3381,0.0,-1.2287,0.0,0.0,0.0,0.0,0.0,0.0,0.0,-1.3892,0.0,0.0,0.0,0.0,0.0,0.0,0.0,-1.9251,-1.9823,-2.0201,-2.0347,-2.0783,-2.1377,-2.2109,-2.2646,-2.3401,-2.4369,-2.4547,-2.5031,-2.5897,-2.6227,-2.6631,-2.7108,-2.7915,-2.8323,-2.8426,-2.8975,-2.9307,-2.9412,-2.957,-2.9737,-2.9878,-2.9978,-3.0022,-3.0049,-2.9992,-2.9931,-2.9886,-2.995,-2.9899,-2.9754,-2.9664,-2.957,-2.9494,-2.9433,-2.9414,-2.9435,-2.9513,-2.9551,-2.957,-2.957,-2.9513,-2.9434,-2.9429,-2.9388,-2.9328,-2.9286,-2.9429,-2.9607,-2.9755,-3.1781,-3.3927,-3.5101,-3.5417,-3.5493,-3.5493,-3.5493,-3.5493,-3.5493,-3.5493,-3.5493,-3.5493,-3.5493,-3.5493,-3.5493,-3.5493,-3.5493,-3.5493,-3.5045,-3.4218,-3.2987,-3.1987,-3.1121,-3.0421,-3.0444,-3.0436,-3.0449,-3.0449,-3.0481,-3.053,-3.0585,-3.063,-3.0697,-3.0774,-3.0807,-1.5323,0.0,0.0,0.0,0.0,0.0,0.0,0.0,0.0,0.0,0.0,0.0,0.0,0.0,-1.3441,-1.3329,0.0,-1.2975,0.0,0.0,0.0,0.0,0.0,0.0,0.0,-1.8626,-1.9087,-1.9487,-1.979,-2.0508,-2.1759,-2.2239,-2.2896,-2.3878,-2.4016,-2.4426,-2.5072,-2.5293,-2.5676,-2.6282,-2.709,-2.7607,-2.7929,-2.8587,-2.9082,-2.9412,-2.9608,-2.9774,-2.9876,-3.0026,-3.0083,-3.0113,-3.0237,-3.0185,-3.0056,-3.0102,-3.0057,-2.9956,-2.9874,-2.9754,-2.957,-2.9414,-2.9332,-2.931,-2.933,-2.9351,-2.9351,-2.9351,-2.931,-2.9246,-2.924,-2.9197,-2.9134,-2.9112,-2.924,-2.9427,-2.9569,-3.0678,-3.2351,-3.467,-3.5273,-3.5432,-3.5446,-3.5493,-3.5493,-3.5493,-3.5493,-3.5493,-3.5493,-3.5493,-3.5493,-3.5493,-3.5493,-3.5493,-3.5493,-3.4699,-3.3718,-3.2641,-3.1218,-3.0398,-3.0398,-3.0398,-3.039,-3.0406,-3.0386,-3.0419,-3.0491,-3.0577,-3.0634,-3.0704,-3.0778,-3.0798,0.0,0.0,0.0,-1.5608,0.0,0.0,0.0,0.0,-1.3815,0.0,0.0,0.0,0.0,-1.4073,-1.3991,-1.3481,-1.28,0.0,0.0,0.0,0.0,0.0,0.0,0.0,0.0,-1.5911,-1.6314,0.0,-1.8095,-1.9326,-2.1049,-2.2055,-2.2994,-2.386,-2.4016,-2.4132,-2.4245,-2.5017,-2.5421,-2.5458,-2.6245,-2.7074,-2.7911,-2.8054,-2.8604,-2.9412,-2.9608,-2.9754,-2.9825,-2.9959,-3.0038,-3.0102,-3.0176,-3.0199,-3.0188,-3.0207,-3.0166,-3.0079,-3.0022,-2.9825,-2.9569,-2.9373,-2.9289,-2.9302,-2.924,-2.92,-2.92,-2.92,-2.9156,-2.9108,-2.9108,-2.9062,-2.9017,-2.9085,-2.9197,-2.9323,-2.9386,-2.9605,-3.0791,-3.4245,-3.5072,-3.5223,-3.53,-3.5412,-3.5493,-3.5493,-3.5493,-3.5493,-3.5493,-3.5493,-3.5493,-3.5493,-3.5493,-3.5493,-3.5493,-3.4699,-3.3487,-3.1833,-3.091,-3.0398,-3.0398,-3.0398,-3.0398,-3.041,-3.0394,-3.0419,-3.0491,-3.0567,-3.063,-3.0703,-3.0761,-3.0806,0.0,0.0,-1.6386,-1.632,0.0,0.0,0.0,0.0,0.0,0.0,0.0,0.0,0.0,-1.4473,-1.4266,-1.4264,-1.2824,-1.173,0.0,0.0,0.0,0.0,0.0,0.0,0.0,0.0,0.0,0.0,-1.7701,0.0,-2.1119,-2.1653,-2.2531,-2.3921,-2.4036,-2.4113,-2.419,-2.4465,-2.4612,-2.4612,-2.5419,-2.5993,-2.6328,-2.6903,-2.7668,-2.8548,-2.8651,-2.9083,-2.9664,-2.9753,-2.9857,-2.9978,-2.9988,-3.0068,-3.0142,-3.018,-3.0194,-3.0133,-2.9991,-2.9773,-2.9569,-2.9388,-2.9222,-2.9152,-2.9085,-2.9085,-2.9085,-2.9085,-2.9062,-2.904,-2.904,-2.9017,-2.9017,-2.904,-2.9108,-2.9197,-2.9262,-2.9857,-3.058,-3.1318,-3.3392,-3.5037,-3.5143,-3.5242,-3.5339,-3.5479,-3.5493,-3.5493,-3.5493,-3.5493,-3.5493,-3.5493,-3.482,-3.4449,-3.4622,-3.3353,-3.2064,-3.091,-3.0552,-3.0398,-3.0398,-3.0398,-3.039,-3.0394,-3.0428,-3.05,-3.0568,-3.0618,-3.0704,-3.0773,-3.0784,-3.079,-1.7598,-1.7486,0.0,-1.7178,-1.6331,0.0,-1.5213,0.0,0.0,0.0,0.0,0.0,0.0,-1.5234,-1.497,-1.4743,-1.3296,-1.1964,0.0,-1.0697,0.0,0.0,0.0,0.0,0.0,0.0,-1.5723,-1.6671,-1.7107,0.0,0.0,-2.1188,-2.2209,-2.356,-2.3947,-2.4151,-2.419,-2.419,-2.419,-2.4208,-2.4722,-2.5146,-2.5479,-2.6033,-2.6903,-2.8017,-2.8103,-2.8686,-2.949,-2.957,-2.9664,-2.9773,-2.9787,-2.9855,-2.9972,-3.0104,-3.0152,-3.0109,-2.9926,-2.9737,-2.9549,-2.9365,-2.9197,-2.9085,-2.9017,-2.8994,-2.8994,-2.8994,-2.8994,-2.8994,-2.8994,-2.8994,-2.8994,-2.8994,-2.9062,-2.9112,-2.9175,-2.9712,-3.0176,-3.0075,-3.1883,-3.3583,-3.4035,-3.416,-3.4467,-3.5302,-3.4941,-3.4647,-3.4845,-3.4532,-3.4372,-3.4564,-3.393,-3.343,-3.3314,-3.2314,-3.1333,-3.0456,-3.0398,-3.0398,-3.0398,-3.039,-3.0414,-3.0428,-3.05,-3.0568,-3.0637,-3.0703,-3.0749,-3.0799,-3.0799,-3.0813]}]]